<?xml version="1.0" encoding="UTF-8" standalone="no" ?>
<gpx xmlns="http://www.topografix.com/GPX/1/1" xmlns:xsi="http://www.w3.org/2001/XMLSchema-instance" xsi:schemaLocation="http://www.topografix.com/GPX/1/1 http://www.topografix.com/GPX/1/1/gpx.xsd" version="1.1" creator="VisuGPX - https://www.visugpx.com">
  <metadata>
    <name>15017433-CCV Grand parcours - 09/22</name>
  </metadata>
  <trk>
    <name><![CDATA[15017433-CCV Grand parcours - 09/22]]></name>
    <extensions>
      <line xmlns="http://www.topografix.com/GPX/gpx_style/0/2">
        <color>0000FF</color>
        <width>4</width>
      </line>
    </extensions>
    <trkseg>
      <trkpt lat="45.4675" lon="4.35346">
        <ele>479</ele>
        <time>2022-09-08T09:36:49Z</time>
        <extensions>
          <visugpx:TrkExtension xmlns:visugpx="https://www.visugpx.com/editgpx/">
            <visugpx:node>6</visugpx:node>
            </visugpx:TrkExtension>
        </extensions>
      </trkpt>
      <trkpt lat="45.46716" lon="4.35343">
        <ele>481</ele>
        <time>2022-09-08T09:36:55Z</time>
      </trkpt>
      <trkpt lat="45.46694" lon="4.35336">
        <ele>482</ele>
        <time>2022-09-08T09:36:59Z</time>
      </trkpt>
      <trkpt lat="45.46642" lon="4.35312">
        <ele>485</ele>
        <time>2022-09-08T09:37:09Z</time>
      </trkpt>
      <trkpt lat="45.46638" lon="4.35307">
        <ele>485</ele>
        <time>2022-09-08T09:37:10Z</time>
      </trkpt>
      <trkpt lat="45.46637" lon="4.353">
        <ele>485</ele>
        <time>2022-09-08T09:37:11Z</time>
      </trkpt>
      <trkpt lat="45.46638" lon="4.35277">
        <ele>485</ele>
        <time>2022-09-08T09:37:14Z</time>
      </trkpt>
      <trkpt lat="45.46632" lon="4.35272">
        <ele>485</ele>
        <time>2022-09-08T09:37:15Z</time>
      </trkpt>
      <trkpt lat="45.46611" lon="4.35266">
        <ele>485</ele>
        <time>2022-09-08T09:37:19Z</time>
      </trkpt>
      <trkpt lat="45.46606" lon="4.35261">
        <ele>486</ele>
        <time>2022-09-08T09:37:20Z</time>
      </trkpt>
      <trkpt lat="45.46604" lon="4.35255">
        <ele>486</ele>
        <time>2022-09-08T09:37:20Z</time>
      </trkpt>
      <trkpt lat="45.46614" lon="4.35187">
        <ele>485</ele>
        <time>2022-09-08T09:37:29Z</time>
      </trkpt>
      <trkpt lat="45.46657" lon="4.35201">
        <ele>483</ele>
        <time>2022-09-08T09:37:37Z</time>
      </trkpt>
      <trkpt lat="45.46688" lon="4.35207">
        <ele>482</ele>
        <time>2022-09-08T09:37:43Z</time>
      </trkpt>
      <trkpt lat="45.46673" lon="4.35187">
        <ele>482</ele>
        <time>2022-09-08T09:37:46Z</time>
      </trkpt>
      <trkpt lat="45.46666" lon="4.35167">
        <ele>481</ele>
        <time>2022-09-08T09:37:49Z</time>
      </trkpt>
      <trkpt lat="45.46659" lon="4.35099">
        <ele>475</ele>
        <time>2022-09-08T09:37:58Z</time>
      </trkpt>
      <trkpt lat="45.4665" lon="4.35065">
        <ele>473</ele>
        <time>2022-09-08T09:38:02Z</time>
      </trkpt>
      <trkpt lat="45.46556" lon="4.34867">
        <ele>482</ele>
        <time>2022-09-08T09:38:32Z</time>
      </trkpt>
      <trkpt lat="45.46521" lon="4.34768">
        <ele>482</ele>
        <time>2022-09-08T09:38:46Z</time>
      </trkpt>
      <trkpt lat="45.46512" lon="4.34751">
        <ele>481</ele>
        <time>2022-09-08T09:38:48Z</time>
      </trkpt>
      <trkpt lat="45.46502" lon="4.34738">
        <ele>481</ele>
        <time>2022-09-08T09:38:51Z</time>
      </trkpt>
      <trkpt lat="45.46482" lon="4.3472">
        <ele>481</ele>
        <time>2022-09-08T09:38:55Z</time>
      </trkpt>
      <trkpt lat="45.46465" lon="4.34692">
        <ele>480</ele>
        <time>2022-09-08T09:39:00Z</time>
      </trkpt>
      <trkpt lat="45.46453" lon="4.34677">
        <ele>480</ele>
        <time>2022-09-08T09:39:03Z</time>
      </trkpt>
      <trkpt lat="45.46417" lon="4.3464">
        <ele>482</ele>
        <time>2022-09-08T09:39:10Z</time>
      </trkpt>
      <trkpt lat="45.46396" lon="4.34604">
        <ele>484</ele>
        <time>2022-09-08T09:39:16Z</time>
      </trkpt>
      <trkpt lat="45.46388" lon="4.34585">
        <ele>485</ele>
        <time>2022-09-08T09:39:19Z</time>
      </trkpt>
      <trkpt lat="45.46388" lon="4.34566">
        <ele>486</ele>
        <time>2022-09-08T09:39:21Z</time>
      </trkpt>
      <trkpt lat="45.46401" lon="4.34492">
        <ele>489</ele>
        <time>2022-09-08T09:39:31Z</time>
      </trkpt>
      <trkpt lat="45.464" lon="4.34483">
        <ele>490</ele>
        <time>2022-09-08T09:39:32Z</time>
      </trkpt>
      <trkpt lat="45.46398" lon="4.34474">
        <ele>490</ele>
        <time>2022-09-08T09:39:33Z</time>
      </trkpt>
      <trkpt lat="45.46391" lon="4.34465">
        <ele>490</ele>
        <time>2022-09-08T09:39:35Z</time>
      </trkpt>
      <trkpt lat="45.46361" lon="4.34447">
        <ele>492</ele>
        <time>2022-09-08T09:39:41Z</time>
      </trkpt>
      <trkpt lat="45.46351" lon="4.34436">
        <ele>493</ele>
        <time>2022-09-08T09:39:43Z</time>
      </trkpt>
      <trkpt lat="45.46344" lon="4.34417">
        <ele>494</ele>
        <time>2022-09-08T09:39:46Z</time>
      </trkpt>
      <trkpt lat="45.46341" lon="4.34399">
        <ele>495</ele>
        <time>2022-09-08T09:39:48Z</time>
      </trkpt>
      <trkpt lat="45.46342" lon="4.34343">
        <ele>497</ele>
        <time>2022-09-08T09:39:55Z</time>
      </trkpt>
      <trkpt lat="45.46339" lon="4.34312">
        <ele>497</ele>
        <time>2022-09-08T09:39:59Z</time>
      </trkpt>
      <trkpt lat="45.46334" lon="4.34297">
        <ele>496</ele>
        <time>2022-09-08T09:40:01Z</time>
      </trkpt>
      <trkpt lat="45.46306" lon="4.34244">
        <ele>493</ele>
        <time>2022-09-08T09:40:09Z</time>
      </trkpt>
      <trkpt lat="45.46301" lon="4.34228">
        <ele>491</ele>
        <time>2022-09-08T09:40:11Z</time>
      </trkpt>
      <trkpt lat="45.46305" lon="4.34186">
        <ele>486</ele>
        <time>2022-09-08T09:40:17Z</time>
      </trkpt>
      <trkpt lat="45.46304" lon="4.34177">
        <ele>485</ele>
        <time>2022-09-08T09:40:18Z</time>
      </trkpt>
      <trkpt lat="45.46298" lon="4.34171">
        <ele>484</ele>
        <time>2022-09-08T09:40:19Z</time>
      </trkpt>
      <trkpt lat="45.46292" lon="4.3417">
        <ele>483</ele>
        <time>2022-09-08T09:40:20Z</time>
      </trkpt>
      <trkpt lat="45.46285" lon="4.34174">
        <ele>483</ele>
        <time>2022-09-08T09:40:22Z</time>
      </trkpt>
      <trkpt lat="45.46243" lon="4.34207">
        <ele>485</ele>
        <time>2022-09-08T09:40:30Z</time>
      </trkpt>
      <trkpt lat="45.46231" lon="4.34214">
        <ele>485</ele>
        <time>2022-09-08T09:40:32Z</time>
      </trkpt>
      <trkpt lat="45.46077" lon="4.34245">
        <ele>476</ele>
        <time>2022-09-08T09:41:00Z</time>
      </trkpt>
      <trkpt lat="45.46028" lon="4.34247">
        <ele>473</ele>
        <time>2022-09-08T09:41:09Z</time>
      </trkpt>
      <trkpt lat="45.46004" lon="4.34254">
        <ele>472</ele>
        <time>2022-09-08T09:41:13Z</time>
      </trkpt>
      <trkpt lat="45.45983" lon="4.34263">
        <ele>471</ele>
        <time>2022-09-08T09:41:17Z</time>
      </trkpt>
      <trkpt lat="45.45964" lon="4.34275">
        <ele>471</ele>
        <time>2022-09-08T09:41:21Z</time>
      </trkpt>
      <trkpt lat="45.45931" lon="4.34303">
        <ele>469</ele>
        <time>2022-09-08T09:41:28Z</time>
      </trkpt>
      <trkpt lat="45.45911" lon="4.34313">
        <ele>468</ele>
        <time>2022-09-08T09:41:31Z</time>
      </trkpt>
      <trkpt lat="45.45885" lon="4.3432">
        <ele>468</ele>
        <time>2022-09-08T09:41:36Z</time>
      </trkpt>
      <trkpt lat="45.45845" lon="4.34319">
        <ele>467</ele>
        <time>2022-09-08T09:41:43Z</time>
      </trkpt>
      <trkpt lat="45.45799" lon="4.34306">
        <ele>468</ele>
        <time>2022-09-08T09:41:51Z</time>
      </trkpt>
      <trkpt lat="45.45692" lon="4.34269">
        <ele>469</ele>
        <time>2022-09-08T09:42:11Z</time>
      </trkpt>
      <trkpt lat="45.45663" lon="4.34253">
        <ele>469</ele>
        <time>2022-09-08T09:42:17Z</time>
      </trkpt>
      <trkpt lat="45.45577" lon="4.34188">
        <ele>470</ele>
        <time>2022-09-08T09:42:34Z</time>
      </trkpt>
      <trkpt lat="45.45545" lon="4.34171">
        <ele>470</ele>
        <time>2022-09-08T09:42:40Z</time>
      </trkpt>
      <trkpt lat="45.45527" lon="4.34168">
        <ele>470</ele>
        <time>2022-09-08T09:42:43Z</time>
      </trkpt>
      <trkpt lat="45.45421" lon="4.34193">
        <ele>474</ele>
        <time>2022-09-08T09:43:02Z</time>
      </trkpt>
      <trkpt lat="45.45394" lon="4.34205">
        <ele>475</ele>
        <time>2022-09-08T09:43:07Z</time>
      </trkpt>
      <trkpt lat="45.45314" lon="4.34256">
        <ele>475</ele>
        <time>2022-09-08T09:43:23Z</time>
      </trkpt>
      <trkpt lat="45.4526" lon="4.34295">
        <ele>474</ele>
        <time>2022-09-08T09:43:34Z</time>
      </trkpt>
      <trkpt lat="45.45259" lon="4.34278">
        <ele>474</ele>
        <time>2022-09-08T09:43:36Z</time>
      </trkpt>
      <trkpt lat="45.45269" lon="4.34255">
        <ele>473</ele>
        <time>2022-09-08T09:43:39Z</time>
      </trkpt>
      <trkpt lat="45.45276" lon="4.34225">
        <ele>473</ele>
        <time>2022-09-08T09:43:43Z</time>
      </trkpt>
      <trkpt lat="45.45276" lon="4.34173">
        <ele>473</ele>
        <time>2022-09-08T09:43:50Z</time>
      </trkpt>
      <trkpt lat="45.45284" lon="4.34129">
        <ele>476</ele>
        <time>2022-09-08T09:43:55Z</time>
      </trkpt>
      <trkpt lat="45.4532" lon="4.34065">
        <ele>480</ele>
        <time>2022-09-08T09:44:06Z</time>
      </trkpt>
      <trkpt lat="45.45337" lon="4.34045">
        <ele>483</ele>
        <time>2022-09-08T09:44:10Z</time>
      </trkpt>
      <trkpt lat="45.45346" lon="4.34037">
        <ele>484</ele>
        <time>2022-09-08T09:44:11Z</time>
      </trkpt>
      <trkpt lat="45.45358" lon="4.34031">
        <ele>485</ele>
        <time>2022-09-08T09:44:14Z</time>
      </trkpt>
      <trkpt lat="45.45566" lon="4.33932">
        <ele>491</ele>
        <time>2022-09-08T09:44:53Z</time>
      </trkpt>
      <trkpt lat="45.45653" lon="4.33919">
        <ele>489</ele>
        <time>2022-09-08T09:45:08Z</time>
      </trkpt>
      <trkpt lat="45.4567" lon="4.33911">
        <ele>490</ele>
        <time>2022-09-08T09:45:11Z</time>
      </trkpt>
      <trkpt lat="45.45683" lon="4.33898">
        <ele>491</ele>
        <time>2022-09-08T09:45:14Z</time>
      </trkpt>
      <trkpt lat="45.45687" lon="4.33819">
        <ele>501</ele>
        <time>2022-09-08T09:45:24Z</time>
      </trkpt>
      <trkpt lat="45.45697" lon="4.33794">
        <ele>503</ele>
        <time>2022-09-08T09:45:28Z</time>
      </trkpt>
      <trkpt lat="45.45718" lon="4.33777">
        <ele>505</ele>
        <time>2022-09-08T09:45:32Z</time>
      </trkpt>
      <trkpt lat="45.45737" lon="4.33777">
        <ele>506</ele>
        <time>2022-09-08T09:45:35Z</time>
      </trkpt>
      <trkpt lat="45.45787" lon="4.33785">
        <ele>504</ele>
        <time>2022-09-08T09:45:44Z</time>
      </trkpt>
      <trkpt lat="45.45812" lon="4.33785">
        <ele>504</ele>
        <time>2022-09-08T09:45:49Z</time>
      </trkpt>
      <trkpt lat="45.45832" lon="4.33776">
        <ele>505</ele>
        <time>2022-09-08T09:45:53Z</time>
      </trkpt>
      <trkpt lat="45.45852" lon="4.33756">
        <ele>506</ele>
        <time>2022-09-08T09:45:57Z</time>
      </trkpt>
      <trkpt lat="45.45877" lon="4.33714">
        <ele>510</ele>
        <time>2022-09-08T09:46:04Z</time>
      </trkpt>
      <trkpt lat="45.45889" lon="4.33685">
        <ele>512</ele>
        <time>2022-09-08T09:46:08Z</time>
      </trkpt>
      <trkpt lat="45.45898" lon="4.33614">
        <ele>518</ele>
        <time>2022-09-08T09:46:17Z</time>
      </trkpt>
      <trkpt lat="45.45904" lon="4.33595">
        <ele>518</ele>
        <time>2022-09-08T09:46:20Z</time>
      </trkpt>
      <trkpt lat="45.4592" lon="4.33563">
        <ele>519</ele>
        <time>2022-09-08T09:46:24Z</time>
      </trkpt>
      <trkpt lat="45.45949" lon="4.33517">
        <ele>520</ele>
        <time>2022-09-08T09:46:32Z</time>
      </trkpt>
      <trkpt lat="45.45953" lon="4.33498">
        <ele>521</ele>
        <time>2022-09-08T09:46:35Z</time>
      </trkpt>
      <trkpt lat="45.45954" lon="4.33478">
        <ele>523</ele>
        <time>2022-09-08T09:46:37Z</time>
      </trkpt>
      <trkpt lat="45.45934" lon="4.33428">
        <ele>530</ele>
        <time>2022-09-08T09:46:44Z</time>
      </trkpt>
      <trkpt lat="45.45933" lon="4.33405">
        <ele>532</ele>
        <time>2022-09-08T09:46:47Z</time>
      </trkpt>
      <trkpt lat="45.45944" lon="4.33365">
        <ele>534</ele>
        <time>2022-09-08T09:46:53Z</time>
      </trkpt>
      <trkpt lat="45.45977" lon="4.33327">
        <ele>532</ele>
        <time>2022-09-08T09:47:00Z</time>
      </trkpt>
      <trkpt lat="45.45993" lon="4.33314">
        <ele>531</ele>
        <time>2022-09-08T09:47:03Z</time>
      </trkpt>
      <trkpt lat="45.46045" lon="4.33235">
        <ele>540</ele>
        <time>2022-09-08T09:47:17Z</time>
      </trkpt>
      <trkpt lat="45.46061" lon="4.33229">
        <ele>541</ele>
        <time>2022-09-08T09:47:20Z</time>
      </trkpt>
      <trkpt lat="45.46087" lon="4.33234">
        <ele>538</ele>
        <time>2022-09-08T09:47:25Z</time>
      </trkpt>
      <trkpt lat="45.4612" lon="4.33247">
        <ele>537</ele>
        <time>2022-09-08T09:47:31Z</time>
      </trkpt>
      <trkpt lat="45.46154" lon="4.33255">
        <ele>537</ele>
        <time>2022-09-08T09:47:37Z</time>
      </trkpt>
      <trkpt lat="45.46177" lon="4.3325">
        <ele>538</ele>
        <time>2022-09-08T09:47:41Z</time>
      </trkpt>
      <trkpt lat="45.462" lon="4.33234">
        <ele>537</ele>
        <time>2022-09-08T09:47:45Z</time>
      </trkpt>
      <trkpt lat="45.46209" lon="4.33221">
        <ele>537</ele>
        <time>2022-09-08T09:47:48Z</time>
      </trkpt>
      <trkpt lat="45.46215" lon="4.33209">
        <ele>537</ele>
        <time>2022-09-08T09:47:50Z</time>
      </trkpt>
      <trkpt lat="45.46217" lon="4.33194">
        <ele>538</ele>
        <time>2022-09-08T09:47:51Z</time>
      </trkpt>
      <trkpt lat="45.46213" lon="4.33168">
        <ele>541</ele>
        <time>2022-09-08T09:47:55Z</time>
      </trkpt>
      <trkpt lat="45.46209" lon="4.33158">
        <ele>541</ele>
        <time>2022-09-08T09:47:56Z</time>
      </trkpt>
      <trkpt lat="45.46146" lon="4.33085">
        <ele>548</ele>
        <time>2022-09-08T09:48:11Z</time>
      </trkpt>
      <trkpt lat="45.46115" lon="4.32971">
        <ele>556</ele>
        <time>2022-09-08T09:48:26Z</time>
      </trkpt>
      <trkpt lat="45.46115" lon="4.3294">
        <ele>558</ele>
        <time>2022-09-08T09:48:30Z</time>
      </trkpt>
      <trkpt lat="45.46127" lon="4.329">
        <ele>559</ele>
        <time>2022-09-08T09:48:35Z</time>
      </trkpt>
      <trkpt lat="45.4615" lon="4.32847">
        <ele>561</ele>
        <time>2022-09-08T09:48:43Z</time>
      </trkpt>
      <trkpt lat="45.46155" lon="4.32816">
        <ele>563</ele>
        <time>2022-09-08T09:48:47Z</time>
      </trkpt>
      <trkpt lat="45.46152" lon="4.3276">
        <ele>568</ele>
        <time>2022-09-08T09:48:54Z</time>
      </trkpt>
      <trkpt lat="45.46157" lon="4.32739">
        <ele>569</ele>
        <time>2022-09-08T09:48:57Z</time>
      </trkpt>
      <trkpt lat="45.46171" lon="4.32708">
        <ele>568</ele>
        <time>2022-09-08T09:49:01Z</time>
      </trkpt>
      <trkpt lat="45.46199" lon="4.3266">
        <ele>569</ele>
        <time>2022-09-08T09:49:09Z</time>
      </trkpt>
      <trkpt lat="45.462" lon="4.32649">
        <ele>569</ele>
        <time>2022-09-08T09:49:11Z</time>
      </trkpt>
      <trkpt lat="45.46197" lon="4.32639">
        <ele>570</ele>
        <time>2022-09-08T09:49:12Z</time>
      </trkpt>
      <trkpt lat="45.4628" lon="4.32503">
        <ele>574</ele>
        <time>2022-09-08T09:49:34Z</time>
      </trkpt>
      <trkpt lat="45.46443" lon="4.32223">
        <ele>575</ele>
        <time>2022-09-08T09:50:20Z</time>
      </trkpt>
      <trkpt lat="45.46451" lon="4.32212">
        <ele>575</ele>
        <time>2022-09-08T09:50:22Z</time>
      </trkpt>
      <trkpt lat="45.46481" lon="4.32185">
        <ele>574</ele>
        <time>2022-09-08T09:50:28Z</time>
      </trkpt>
      <trkpt lat="45.46494" lon="4.32179">
        <ele>574</ele>
        <time>2022-09-08T09:50:31Z</time>
      </trkpt>
      <trkpt lat="45.46506" lon="4.32184">
        <ele>574</ele>
        <time>2022-09-08T09:50:33Z</time>
      </trkpt>
      <trkpt lat="45.46517" lon="4.32178">
        <ele>573</ele>
        <time>2022-09-08T09:50:35Z</time>
      </trkpt>
      <trkpt lat="45.46521" lon="4.32172">
        <ele>572</ele>
        <time>2022-09-08T09:50:36Z</time>
      </trkpt>
      <trkpt lat="45.46524" lon="4.32156">
        <ele>572</ele>
        <time>2022-09-08T09:50:38Z</time>
      </trkpt>
      <trkpt lat="45.46521" lon="4.32144">
        <ele>572</ele>
        <time>2022-09-08T09:50:40Z</time>
      </trkpt>
      <trkpt lat="45.46515" lon="4.32135">
        <ele>572</ele>
        <time>2022-09-08T09:50:41Z</time>
      </trkpt>
      <trkpt lat="45.46482" lon="4.32125">
        <ele>573</ele>
        <time>2022-09-08T09:50:47Z</time>
      </trkpt>
      <trkpt lat="45.46439" lon="4.32107">
        <ele>572</ele>
        <time>2022-09-08T09:50:55Z</time>
      </trkpt>
      <trkpt lat="45.46416" lon="4.32093">
        <ele>571</ele>
        <time>2022-09-08T09:51:00Z</time>
      </trkpt>
      <trkpt lat="45.46292" lon="4.31996">
        <ele>567</ele>
        <time>2022-09-08T09:51:25Z</time>
      </trkpt>
      <trkpt lat="45.46269" lon="4.31961">
        <ele>566</ele>
        <time>2022-09-08T09:51:31Z</time>
      </trkpt>
      <trkpt lat="45.46257" lon="4.31938">
        <ele>565</ele>
        <time>2022-09-08T09:51:34Z</time>
      </trkpt>
      <trkpt lat="45.46219" lon="4.31841">
        <ele>566</ele>
        <time>2022-09-08T09:51:48Z</time>
      </trkpt>
      <trkpt lat="45.46177" lon="4.31717">
        <ele>565</ele>
        <time>2022-09-08T09:52:05Z</time>
      </trkpt>
      <trkpt lat="45.46162" lon="4.31643">
        <ele>561</ele>
        <time>2022-09-08T09:52:15Z</time>
      </trkpt>
      <trkpt lat="45.46158" lon="4.31594">
        <ele>559</ele>
        <time>2022-09-08T09:52:21Z</time>
      </trkpt>
      <trkpt lat="45.46138" lon="4.31557">
        <ele>560</ele>
        <time>2022-09-08T09:52:27Z</time>
      </trkpt>
      <trkpt lat="45.46121" lon="4.31538">
        <ele>562</ele>
        <time>2022-09-08T09:52:31Z</time>
      </trkpt>
      <trkpt lat="45.46111" lon="4.31475">
        <ele>563</ele>
        <time>2022-09-08T09:52:39Z</time>
      </trkpt>
      <trkpt lat="45.46089" lon="4.31404">
        <ele>566</ele>
        <time>2022-09-08T09:52:48Z</time>
      </trkpt>
      <trkpt lat="45.46066" lon="4.31349">
        <ele>566</ele>
        <time>2022-09-08T09:52:56Z</time>
      </trkpt>
      <trkpt lat="45.46039" lon="4.31328">
        <ele>569</ele>
        <time>2022-09-08T09:53:02Z</time>
      </trkpt>
      <trkpt lat="45.45982" lon="4.31315">
        <ele>575</ele>
        <time>2022-09-08T09:53:12Z</time>
      </trkpt>
      <trkpt lat="45.45926" lon="4.31282">
        <ele>578</ele>
        <time>2022-09-08T09:53:23Z</time>
      </trkpt>
      <trkpt lat="45.45874" lon="4.3124">
        <ele>582</ele>
        <time>2022-09-08T09:53:34Z</time>
      </trkpt>
      <trkpt lat="45.45816" lon="4.31161">
        <ele>581</ele>
        <time>2022-09-08T09:53:48Z</time>
      </trkpt>
      <trkpt lat="45.45757" lon="4.3109">
        <ele>581</ele>
        <time>2022-09-08T09:54:02Z</time>
      </trkpt>
      <trkpt lat="45.45722" lon="4.31065">
        <ele>582</ele>
        <time>2022-09-08T09:54:09Z</time>
      </trkpt>
      <trkpt lat="45.45693" lon="4.31064">
        <ele>583</ele>
        <time>2022-09-08T09:54:14Z</time>
      </trkpt>
      <trkpt lat="45.45653" lon="4.31074">
        <ele>583</ele>
        <time>2022-09-08T09:54:21Z</time>
      </trkpt>
      <trkpt lat="45.45633" lon="4.31015">
        <ele>583</ele>
        <time>2022-09-08T09:54:29Z</time>
      </trkpt>
      <trkpt lat="45.45578" lon="4.30898">
        <ele>591</ele>
        <time>2022-09-08T09:54:47Z</time>
      </trkpt>
      <trkpt lat="45.45542" lon="4.30813">
        <ele>593</ele>
        <time>2022-09-08T09:54:59Z</time>
      </trkpt>
      <trkpt lat="45.45522" lon="4.30778">
        <ele>592</ele>
        <time>2022-09-08T09:55:05Z</time>
      </trkpt>
      <trkpt lat="45.45469" lon="4.30667">
        <ele>585</ele>
        <time>2022-09-08T09:55:22Z</time>
      </trkpt>
      <trkpt lat="45.45421" lon="4.30538">
        <ele>574</ele>
        <time>2022-09-08T09:55:40Z</time>
      </trkpt>
      <trkpt lat="45.45365" lon="4.30407">
        <ele>567</ele>
        <time>2022-09-08T09:55:59Z</time>
      </trkpt>
      <trkpt lat="45.45341" lon="4.30323">
        <ele>565</ele>
        <time>2022-09-08T09:56:10Z</time>
      </trkpt>
      <trkpt lat="45.45316" lon="4.30203">
        <ele>565</ele>
        <time>2022-09-08T09:56:26Z</time>
      </trkpt>
      <trkpt lat="45.45326" lon="4.30168">
        <ele>566</ele>
        <time>2022-09-08T09:56:31Z</time>
      </trkpt>
      <trkpt lat="45.45364" lon="4.30067">
        <ele>563</ele>
        <time>2022-09-08T09:56:45Z</time>
      </trkpt>
      <trkpt lat="45.45373" lon="4.30029">
        <ele>564</ele>
        <time>2022-09-08T09:56:50Z</time>
      </trkpt>
      <trkpt lat="45.45374" lon="4.29991">
        <ele>564</ele>
        <time>2022-09-08T09:56:55Z</time>
      </trkpt>
      <trkpt lat="45.45372" lon="4.29932">
        <ele>564</ele>
        <time>2022-09-08T09:57:02Z</time>
      </trkpt>
      <trkpt lat="45.45342" lon="4.29661">
        <ele>558</ele>
        <time>2022-09-08T09:57:36Z</time>
      </trkpt>
      <trkpt lat="45.45331" lon="4.29513">
        <ele>555</ele>
        <time>2022-09-08T09:57:55Z</time>
      </trkpt>
      <trkpt lat="45.4516" lon="4.2955">
        <ele>544</ele>
        <time>2022-09-08T09:58:26Z</time>
      </trkpt>
      <trkpt lat="45.45064" lon="4.29562">
        <ele>535</ele>
        <time>2022-09-08T09:58:43Z</time>
      </trkpt>
      <trkpt lat="45.4502" lon="4.29559">
        <ele>532</ele>
        <time>2022-09-08T09:58:51Z</time>
      </trkpt>
      <trkpt lat="45.44962" lon="4.29545">
        <ele>527</ele>
        <time>2022-09-08T09:59:01Z</time>
      </trkpt>
      <trkpt lat="45.4494" lon="4.29545">
        <ele>526</ele>
        <time>2022-09-08T09:59:05Z</time>
      </trkpt>
      <trkpt lat="45.4492" lon="4.29549">
        <ele>525</ele>
        <time>2022-09-08T09:59:09Z</time>
      </trkpt>
      <trkpt lat="45.449" lon="4.29557">
        <ele>525</ele>
        <time>2022-09-08T09:59:12Z</time>
      </trkpt>
      <trkpt lat="45.44883" lon="4.29568">
        <ele>525</ele>
        <time>2022-09-08T09:59:16Z</time>
      </trkpt>
      <trkpt lat="45.44873" lon="4.29587">
        <ele>525</ele>
        <time>2022-09-08T09:59:19Z</time>
      </trkpt>
      <trkpt lat="45.44867" lon="4.2961">
        <ele>525</ele>
        <time>2022-09-08T09:59:22Z</time>
      </trkpt>
      <trkpt lat="45.44866" lon="4.29637">
        <ele>524</ele>
        <time>2022-09-08T09:59:25Z</time>
      </trkpt>
      <trkpt lat="45.44873" lon="4.29664">
        <ele>524</ele>
        <time>2022-09-08T09:59:29Z</time>
      </trkpt>
      <trkpt lat="45.4491" lon="4.29725">
        <ele>521</ele>
        <time>2022-09-08T09:59:39Z</time>
      </trkpt>
      <trkpt lat="45.44917" lon="4.29752">
        <ele>519</ele>
        <time>2022-09-08T09:59:42Z</time>
      </trkpt>
      <trkpt lat="45.44919" lon="4.29777">
        <ele>520</ele>
        <time>2022-09-08T09:59:45Z</time>
      </trkpt>
      <trkpt lat="45.44907" lon="4.29826">
        <ele>518</ele>
        <time>2022-09-08T09:59:52Z</time>
      </trkpt>
      <trkpt lat="45.4488" lon="4.29884">
        <ele>514</ele>
        <time>2022-09-08T10:00:01Z</time>
      </trkpt>
      <trkpt lat="45.44834" lon="4.29942">
        <ele>507</ele>
        <time>2022-09-08T10:00:11Z</time>
      </trkpt>
      <trkpt lat="45.44826" lon="4.29964">
        <ele>507</ele>
        <time>2022-09-08T10:00:15Z</time>
      </trkpt>
      <trkpt lat="45.44825" lon="4.29991">
        <ele>507</ele>
        <time>2022-09-08T10:00:18Z</time>
      </trkpt>
      <trkpt lat="45.44829" lon="4.30092">
        <ele>505</ele>
        <time>2022-09-08T10:00:31Z</time>
      </trkpt>
      <trkpt lat="45.44821" lon="4.30133">
        <ele>504</ele>
        <time>2022-09-08T10:00:36Z</time>
      </trkpt>
      <trkpt lat="45.44794" lon="4.30212">
        <ele>502</ele>
        <time>2022-09-08T10:00:47Z</time>
      </trkpt>
      <trkpt lat="45.44773" lon="4.30233">
        <ele>499</ele>
        <time>2022-09-08T10:00:51Z</time>
      </trkpt>
      <trkpt lat="45.44759" lon="4.3024">
        <ele>498</ele>
        <time>2022-09-08T10:00:54Z</time>
      </trkpt>
      <trkpt lat="45.44745" lon="4.3024">
        <ele>496</ele>
        <time>2022-09-08T10:00:57Z</time>
      </trkpt>
      <trkpt lat="45.44734" lon="4.30237">
        <ele>495</ele>
        <time>2022-09-08T10:00:59Z</time>
      </trkpt>
      <trkpt lat="45.44723" lon="4.30231">
        <ele>495</ele>
        <time>2022-09-08T10:01:01Z</time>
      </trkpt>
      <trkpt lat="45.44709" lon="4.30218">
        <ele>494</ele>
        <time>2022-09-08T10:01:04Z</time>
      </trkpt>
      <trkpt lat="45.44675" lon="4.30141">
        <ele>492</ele>
        <time>2022-09-08T10:01:15Z</time>
      </trkpt>
      <trkpt lat="45.44647" lon="4.30117">
        <ele>493</ele>
        <time>2022-09-08T10:01:21Z</time>
      </trkpt>
      <trkpt lat="45.44627" lon="4.30112">
        <ele>494</ele>
        <time>2022-09-08T10:01:24Z</time>
      </trkpt>
      <trkpt lat="45.44609" lon="4.30088">
        <ele>497</ele>
        <time>2022-09-08T10:01:29Z</time>
      </trkpt>
      <trkpt lat="45.44537" lon="4.30062">
        <ele>505</ele>
        <time>2022-09-08T10:01:42Z</time>
      </trkpt>
      <trkpt lat="45.4451" lon="4.30045">
        <ele>508</ele>
        <time>2022-09-08T10:01:47Z</time>
      </trkpt>
      <trkpt lat="45.44471" lon="4.30006">
        <ele>514</ele>
        <time>2022-09-08T10:01:56Z</time>
      </trkpt>
      <trkpt lat="45.4445" lon="4.29992">
        <ele>516</ele>
        <time>2022-09-08T10:02:00Z</time>
      </trkpt>
      <trkpt lat="45.44377" lon="4.29965">
        <ele>523</ele>
        <time>2022-09-08T10:02:13Z</time>
      </trkpt>
      <trkpt lat="45.44348" lon="4.29964">
        <ele>526</ele>
        <time>2022-09-08T10:02:18Z</time>
      </trkpt>
      <trkpt lat="45.44266" lon="4.29967">
        <ele>534</ele>
        <time>2022-09-08T10:02:33Z</time>
      </trkpt>
      <trkpt lat="45.44252" lon="4.29972">
        <ele>535</ele>
        <time>2022-09-08T10:02:36Z</time>
      </trkpt>
      <trkpt lat="45.44227" lon="4.2999">
        <ele>536</ele>
        <time>2022-09-08T10:02:41Z</time>
      </trkpt>
      <trkpt lat="45.44171" lon="4.30008">
        <ele>541</ele>
        <time>2022-09-08T10:02:51Z</time>
      </trkpt>
      <trkpt lat="45.44116" lon="4.30013">
        <ele>546</ele>
        <time>2022-09-08T10:03:01Z</time>
      </trkpt>
      <trkpt lat="45.44062" lon="4.30014">
        <ele>549</ele>
        <time>2022-09-08T10:03:10Z</time>
      </trkpt>
      <trkpt lat="45.44029" lon="4.30009">
        <ele>551</ele>
        <time>2022-09-08T10:03:16Z</time>
      </trkpt>
      <trkpt lat="45.44007" lon="4.30001">
        <ele>554</ele>
        <time>2022-09-08T10:03:20Z</time>
      </trkpt>
      <trkpt lat="45.43917" lon="4.29956">
        <ele>562</ele>
        <time>2022-09-08T10:03:37Z</time>
      </trkpt>
      <trkpt lat="45.4387" lon="4.29922">
        <ele>565</ele>
        <time>2022-09-08T10:03:46Z</time>
      </trkpt>
      <trkpt lat="45.43837" lon="4.29877">
        <ele>567</ele>
        <time>2022-09-08T10:03:55Z</time>
      </trkpt>
      <trkpt lat="45.43778" lon="4.29785">
        <ele>569</ele>
        <time>2022-09-08T10:04:10Z</time>
      </trkpt>
      <trkpt lat="45.43746" lon="4.29756">
        <ele>569</ele>
        <time>2022-09-08T10:04:17Z</time>
      </trkpt>
      <trkpt lat="45.43697" lon="4.29727">
        <ele>569</ele>
        <time>2022-09-08T10:04:26Z</time>
      </trkpt>
      <trkpt lat="45.43666" lon="4.297">
        <ele>569</ele>
        <time>2022-09-08T10:04:33Z</time>
      </trkpt>
      <trkpt lat="45.43601" lon="4.29672">
        <ele>571</ele>
        <time>2022-09-08T10:04:45Z</time>
      </trkpt>
      <trkpt lat="45.43567" lon="4.29652">
        <ele>573</ele>
        <time>2022-09-08T10:04:51Z</time>
      </trkpt>
      <trkpt lat="45.43548" lon="4.2963">
        <ele>575</ele>
        <time>2022-09-08T10:04:56Z</time>
      </trkpt>
      <trkpt lat="45.43519" lon="4.29584">
        <ele>577</ele>
        <time>2022-09-08T10:05:04Z</time>
      </trkpt>
      <trkpt lat="45.435" lon="4.29566">
        <ele>578</ele>
        <time>2022-09-08T10:05:08Z</time>
      </trkpt>
      <trkpt lat="45.43473" lon="4.29562">
        <ele>579</ele>
        <time>2022-09-08T10:05:12Z</time>
      </trkpt>
      <trkpt lat="45.43444" lon="4.2957">
        <ele>581</ele>
        <time>2022-09-08T10:05:18Z</time>
      </trkpt>
      <trkpt lat="45.43417" lon="4.29572">
        <ele>583</ele>
        <time>2022-09-08T10:05:22Z</time>
      </trkpt>
      <trkpt lat="45.43412" lon="4.29571">
        <ele>582</ele>
        <time>2022-09-08T10:05:23Z</time>
      </trkpt>
      <trkpt lat="45.43406" lon="4.29559">
        <ele>582</ele>
        <time>2022-09-08T10:05:25Z</time>
      </trkpt>
      <trkpt lat="45.43396" lon="4.29555">
        <ele>582</ele>
        <time>2022-09-08T10:05:27Z</time>
      </trkpt>
      <trkpt lat="45.43386" lon="4.29559">
        <ele>582</ele>
        <time>2022-09-08T10:05:29Z</time>
      </trkpt>
      <trkpt lat="45.43382" lon="4.29564">
        <ele>582</ele>
        <time>2022-09-08T10:05:30Z</time>
      </trkpt>
      <trkpt lat="45.43361" lon="4.29563">
        <ele>582</ele>
        <time>2022-09-08T10:05:34Z</time>
      </trkpt>
      <trkpt lat="45.43241" lon="4.29538">
        <ele>579</ele>
        <time>2022-09-08T10:05:55Z</time>
      </trkpt>
      <trkpt lat="45.43147" lon="4.29502">
        <ele>580</ele>
        <time>2022-09-08T10:06:13Z</time>
      </trkpt>
      <trkpt lat="45.43135" lon="4.29495">
        <ele>580</ele>
        <time>2022-09-08T10:06:15Z</time>
      </trkpt>
      <trkpt lat="45.43021" lon="4.29478">
        <ele>575</ele>
        <time>2022-09-08T10:06:35Z</time>
      </trkpt>
      <trkpt lat="45.42983" lon="4.29495">
        <ele>575</ele>
        <time>2022-09-08T10:06:42Z</time>
      </trkpt>
      <trkpt lat="45.42968" lon="4.29507">
        <ele>575</ele>
        <time>2022-09-08T10:06:45Z</time>
      </trkpt>
      <trkpt lat="45.42935" lon="4.29527">
        <ele>575</ele>
        <time>2022-09-08T10:06:52Z</time>
      </trkpt>
      <trkpt lat="45.42923" lon="4.2953">
        <ele>574</ele>
        <time>2022-09-08T10:06:54Z</time>
      </trkpt>
      <trkpt lat="45.42903" lon="4.29526">
        <ele>574</ele>
        <time>2022-09-08T10:06:58Z</time>
      </trkpt>
      <trkpt lat="45.42849" lon="4.29501">
        <ele>575</ele>
        <time>2022-09-08T10:07:08Z</time>
      </trkpt>
      <trkpt lat="45.42813" lon="4.29489">
        <ele>576</ele>
        <time>2022-09-08T10:07:14Z</time>
      </trkpt>
      <trkpt lat="45.4259" lon="4.29474">
        <ele>582</ele>
        <time>2022-09-08T10:07:54Z</time>
      </trkpt>
      <trkpt lat="45.42458" lon="4.29479">
        <ele>584</ele>
        <time>2022-09-08T10:08:17Z</time>
      </trkpt>
      <trkpt lat="45.42434" lon="4.29484">
        <ele>585</ele>
        <time>2022-09-08T10:08:22Z</time>
      </trkpt>
      <trkpt lat="45.42349" lon="4.29562">
        <ele>585</ele>
        <time>2022-09-08T10:08:40Z</time>
      </trkpt>
      <trkpt lat="45.4225" lon="4.29695">
        <ele>582</ele>
        <time>2022-09-08T10:09:04Z</time>
      </trkpt>
      <trkpt lat="45.42139" lon="4.29798">
        <ele>575</ele>
        <time>2022-09-08T10:09:27Z</time>
      </trkpt>
      <trkpt lat="45.42018" lon="4.29949">
        <ele>568</ele>
        <time>2022-09-08T10:09:56Z</time>
      </trkpt>
      <trkpt lat="45.41976" lon="4.2999">
        <ele>567</ele>
        <time>2022-09-08T10:10:05Z</time>
      </trkpt>
      <trkpt lat="45.41796" lon="4.30104">
        <ele>558</ele>
        <time>2022-09-08T10:10:40Z</time>
      </trkpt>
      <trkpt lat="45.41774" lon="4.30112">
        <ele>558</ele>
        <time>2022-09-08T10:10:44Z</time>
      </trkpt>
      <trkpt lat="45.4176" lon="4.30114">
        <ele>557</ele>
        <time>2022-09-08T10:10:47Z</time>
      </trkpt>
      <trkpt lat="45.41732" lon="4.30109">
        <ele>556</ele>
        <time>2022-09-08T10:10:52Z</time>
      </trkpt>
      <trkpt lat="45.41688" lon="4.30084">
        <ele>554</ele>
        <time>2022-09-08T10:11:00Z</time>
      </trkpt>
      <trkpt lat="45.41665" lon="4.30075">
        <ele>552</ele>
        <time>2022-09-08T10:11:04Z</time>
      </trkpt>
      <trkpt lat="45.41616" lon="4.30065">
        <ele>554</ele>
        <time>2022-09-08T10:11:13Z</time>
      </trkpt>
      <trkpt lat="45.41597" lon="4.30056">
        <ele>555</ele>
        <time>2022-09-08T10:11:17Z</time>
      </trkpt>
      <trkpt lat="45.41592" lon="4.30049">
        <ele>555</ele>
        <time>2022-09-08T10:11:18Z</time>
      </trkpt>
      <trkpt lat="45.4155" lon="4.2995">
        <ele>562</ele>
        <time>2022-09-08T10:11:33Z</time>
      </trkpt>
      <trkpt lat="45.41513" lon="4.29662">
        <ele>564</ele>
        <time>2022-09-08T10:12:09Z</time>
      </trkpt>
      <trkpt lat="45.41503" lon="4.29645">
        <ele>566</ele>
        <time>2022-09-08T10:12:12Z</time>
      </trkpt>
      <trkpt lat="45.41493" lon="4.29641">
        <ele>567</ele>
        <time>2022-09-08T10:12:14Z</time>
      </trkpt>
      <trkpt lat="45.41483" lon="4.29642">
        <ele>567</ele>
        <time>2022-09-08T10:12:15Z</time>
      </trkpt>
      <trkpt lat="45.41476" lon="4.2963">
        <ele>567</ele>
        <time>2022-09-08T10:12:17Z</time>
      </trkpt>
      <trkpt lat="45.41466" lon="4.29625">
        <ele>567</ele>
        <time>2022-09-08T10:12:19Z</time>
      </trkpt>
      <trkpt lat="45.41454" lon="4.29631">
        <ele>567</ele>
        <time>2022-09-08T10:12:22Z</time>
      </trkpt>
      <trkpt lat="45.4145" lon="4.29638">
        <ele>567</ele>
        <time>2022-09-08T10:12:23Z</time>
      </trkpt>
      <trkpt lat="45.41438" lon="4.29636">
        <ele>567</ele>
        <time>2022-09-08T10:12:25Z</time>
      </trkpt>
      <trkpt lat="45.41424" lon="4.29622">
        <ele>567</ele>
        <time>2022-09-08T10:12:28Z</time>
      </trkpt>
      <trkpt lat="45.4141" lon="4.29613">
        <ele>567</ele>
        <time>2022-09-08T10:12:31Z</time>
      </trkpt>
      <trkpt lat="45.41392" lon="4.29608">
        <ele>565</ele>
        <time>2022-09-08T10:12:34Z</time>
      </trkpt>
      <trkpt lat="45.41368" lon="4.29614">
        <ele>564</ele>
        <time>2022-09-08T10:12:38Z</time>
      </trkpt>
      <trkpt lat="45.41356" lon="4.29622">
        <ele>563</ele>
        <time>2022-09-08T10:12:41Z</time>
      </trkpt>
      <trkpt lat="45.41326" lon="4.29652">
        <ele>563</ele>
        <time>2022-09-08T10:12:47Z</time>
      </trkpt>
      <trkpt lat="45.41307" lon="4.29662">
        <ele>563</ele>
        <time>2022-09-08T10:12:51Z</time>
      </trkpt>
      <trkpt lat="45.41288" lon="4.29663">
        <ele>561</ele>
        <time>2022-09-08T10:12:54Z</time>
      </trkpt>
      <trkpt lat="45.41276" lon="4.2966">
        <ele>560</ele>
        <time>2022-09-08T10:12:56Z</time>
      </trkpt>
      <trkpt lat="45.412" lon="4.29627">
        <ele>553</ele>
        <time>2022-09-08T10:13:10Z</time>
      </trkpt>
      <trkpt lat="45.41125" lon="4.29611">
        <ele>549</ele>
        <time>2022-09-08T10:13:24Z</time>
      </trkpt>
      <trkpt lat="45.41099" lon="4.29603">
        <ele>548</ele>
        <time>2022-09-08T10:13:29Z</time>
      </trkpt>
      <trkpt lat="45.41084" lon="4.29591">
        <ele>547</ele>
        <time>2022-09-08T10:13:32Z</time>
      </trkpt>
      <trkpt lat="45.41046" lon="4.29541">
        <ele>545</ele>
        <time>2022-09-08T10:13:41Z</time>
      </trkpt>
      <trkpt lat="45.41027" lon="4.29507">
        <ele>544</ele>
        <time>2022-09-08T10:13:46Z</time>
      </trkpt>
      <trkpt lat="45.41003" lon="4.29482">
        <ele>545</ele>
        <time>2022-09-08T10:13:52Z</time>
      </trkpt>
      <trkpt lat="45.40934" lon="4.29333">
        <ele>543</ele>
        <time>2022-09-08T10:14:14Z</time>
      </trkpt>
      <trkpt lat="45.40907" lon="4.29294">
        <ele>542</ele>
        <time>2022-09-08T10:14:21Z</time>
      </trkpt>
      <trkpt lat="45.40868" lon="4.29229">
        <ele>541</ele>
        <time>2022-09-08T10:14:31Z</time>
      </trkpt>
      <trkpt lat="45.40834" lon="4.29141">
        <ele>541</ele>
        <time>2022-09-08T10:14:44Z</time>
      </trkpt>
      <trkpt lat="45.40821" lon="4.29113">
        <ele>540</ele>
        <time>2022-09-08T10:14:48Z</time>
      </trkpt>
      <trkpt lat="45.40759" lon="4.29037">
        <ele>540</ele>
        <time>2022-09-08T10:15:03Z</time>
      </trkpt>
      <trkpt lat="45.40743" lon="4.28982">
        <ele>538</ele>
        <time>2022-09-08T10:15:10Z</time>
      </trkpt>
      <trkpt lat="45.4074" lon="4.28958">
        <ele>537</ele>
        <time>2022-09-08T10:15:13Z</time>
      </trkpt>
      <trkpt lat="45.40741" lon="4.28921">
        <ele>533</ele>
        <time>2022-09-08T10:15:18Z</time>
      </trkpt>
      <trkpt lat="45.40754" lon="4.2886">
        <ele>526</ele>
        <time>2022-09-08T10:15:26Z</time>
      </trkpt>
      <trkpt lat="45.40754" lon="4.28846">
        <ele>525</ele>
        <time>2022-09-08T10:15:28Z</time>
      </trkpt>
      <trkpt lat="45.40748" lon="4.28827">
        <ele>525</ele>
        <time>2022-09-08T10:15:30Z</time>
      </trkpt>
      <trkpt lat="45.40704" lon="4.28768">
        <ele>524</ele>
        <time>2022-09-08T10:15:41Z</time>
      </trkpt>
      <trkpt lat="45.40676" lon="4.28721">
        <ele>521</ele>
        <time>2022-09-08T10:15:49Z</time>
      </trkpt>
      <trkpt lat="45.4063" lon="4.2867">
        <ele>523</ele>
        <time>2022-09-08T10:15:59Z</time>
      </trkpt>
      <trkpt lat="45.40626" lon="4.2866">
        <ele>523</ele>
        <time>2022-09-08T10:16:00Z</time>
      </trkpt>
      <trkpt lat="45.40625" lon="4.28643">
        <ele>523</ele>
        <time>2022-09-08T10:16:03Z</time>
      </trkpt>
      <trkpt lat="45.40632" lon="4.28633">
        <ele>521</ele>
        <time>2022-09-08T10:16:04Z</time>
      </trkpt>
      <trkpt lat="45.40637" lon="4.28619">
        <ele>519</ele>
        <time>2022-09-08T10:16:06Z</time>
      </trkpt>
      <trkpt lat="45.40639" lon="4.28575">
        <ele>516</ele>
        <time>2022-09-08T10:16:12Z</time>
      </trkpt>
      <trkpt lat="45.40636" lon="4.28536">
        <ele>514</ele>
        <time>2022-09-08T10:16:17Z</time>
      </trkpt>
      <trkpt lat="45.40647" lon="4.28495">
        <ele>509</ele>
        <time>2022-09-08T10:16:22Z</time>
      </trkpt>
      <trkpt lat="45.40659" lon="4.28471">
        <ele>505</ele>
        <time>2022-09-08T10:16:26Z</time>
      </trkpt>
      <trkpt lat="45.4072" lon="4.28383">
        <ele>493</ele>
        <time>2022-09-08T10:16:41Z</time>
      </trkpt>
      <trkpt lat="45.40759" lon="4.28333">
        <ele>488</ele>
        <time>2022-09-08T10:16:51Z</time>
      </trkpt>
      <trkpt lat="45.40791" lon="4.2828">
        <ele>485</ele>
        <time>2022-09-08T10:16:59Z</time>
      </trkpt>
      <trkpt lat="45.4081" lon="4.28235">
        <ele>484</ele>
        <time>2022-09-08T10:17:06Z</time>
      </trkpt>
      <trkpt lat="45.4081" lon="4.28191">
        <ele>483</ele>
        <time>2022-09-08T10:17:11Z</time>
      </trkpt>
      <trkpt lat="45.40848" lon="4.2816">
        <ele>482</ele>
        <time>2022-09-08T10:17:19Z</time>
      </trkpt>
      <trkpt lat="45.40867" lon="4.2814">
        <ele>482</ele>
        <time>2022-09-08T10:17:23Z</time>
      </trkpt>
      <trkpt lat="45.40877" lon="4.28109">
        <ele>482</ele>
        <time>2022-09-08T10:17:28Z</time>
      </trkpt>
      <trkpt lat="45.4088" lon="4.28081">
        <ele>482</ele>
        <time>2022-09-08T10:17:31Z</time>
      </trkpt>
      <trkpt lat="45.40879" lon="4.28029">
        <ele>484</ele>
        <time>2022-09-08T10:17:38Z</time>
      </trkpt>
      <trkpt lat="45.40877" lon="4.28001">
        <ele>485</ele>
        <time>2022-09-08T10:17:41Z</time>
      </trkpt>
      <trkpt lat="45.40861" lon="4.27935">
        <ele>482</ele>
        <time>2022-09-08T10:17:50Z</time>
      </trkpt>
      <trkpt lat="45.40844" lon="4.27901">
        <ele>480</ele>
        <time>2022-09-08T10:17:55Z</time>
      </trkpt>
      <trkpt lat="45.40836" lon="4.27878">
        <ele>479</ele>
        <time>2022-09-08T10:17:58Z</time>
      </trkpt>
      <trkpt lat="45.40826" lon="4.27826">
        <ele>480</ele>
        <time>2022-09-08T10:18:05Z</time>
      </trkpt>
      <trkpt lat="45.40813" lon="4.2778">
        <ele>479</ele>
        <time>2022-09-08T10:18:11Z</time>
      </trkpt>
      <trkpt lat="45.40746" lon="4.27569">
        <ele>473</ele>
        <time>2022-09-08T10:18:40Z</time>
      </trkpt>
      <trkpt lat="45.40714" lon="4.27479">
        <ele>476</ele>
        <time>2022-09-08T10:18:53Z</time>
      </trkpt>
      <trkpt lat="45.40688" lon="4.27419">
        <ele>474</ele>
        <time>2022-09-08T10:19:02Z</time>
      </trkpt>
      <trkpt lat="45.40639" lon="4.27341">
        <ele>474</ele>
        <time>2022-09-08T10:19:15Z</time>
      </trkpt>
      <trkpt lat="45.40612" lon="4.27252">
        <ele>471</ele>
        <time>2022-09-08T10:19:27Z</time>
      </trkpt>
      <trkpt lat="45.40584" lon="4.27186">
        <ele>466</ele>
        <time>2022-09-08T10:19:36Z</time>
      </trkpt>
      <trkpt lat="45.4061" lon="4.27134">
        <ele>467</ele>
        <time>2022-09-08T10:19:44Z</time>
      </trkpt>
      <trkpt lat="45.40637" lon="4.27115">
        <ele>469</ele>
        <time>2022-09-08T10:19:50Z</time>
      </trkpt>
      <trkpt lat="45.4063" lon="4.26858">
        <ele>459</ele>
        <time>2022-09-08T10:20:22Z</time>
      </trkpt>
      <trkpt lat="45.40626" lon="4.26812">
        <ele>457</ele>
        <time>2022-09-08T10:20:28Z</time>
      </trkpt>
      <trkpt lat="45.40629" lon="4.26801">
        <ele>457</ele>
        <time>2022-09-08T10:20:29Z</time>
      </trkpt>
      <trkpt lat="45.40627" lon="4.26794">
        <ele>457</ele>
        <time>2022-09-08T10:20:30Z</time>
      </trkpt>
      <trkpt lat="45.40628" lon="4.26776">
        <ele>457</ele>
        <time>2022-09-08T10:20:32Z</time>
      </trkpt>
      <trkpt lat="45.40636" lon="4.26723">
        <ele>457</ele>
        <time>2022-09-08T10:20:39Z</time>
      </trkpt>
      <trkpt lat="45.40651" lon="4.26658">
        <ele>459</ele>
        <time>2022-09-08T10:20:48Z</time>
      </trkpt>
      <trkpt lat="45.40654" lon="4.26624">
        <ele>460</ele>
        <time>2022-09-08T10:20:52Z</time>
      </trkpt>
      <trkpt lat="45.40652" lon="4.26582">
        <ele>462</ele>
        <time>2022-09-08T10:20:57Z</time>
      </trkpt>
      <trkpt lat="45.40645" lon="4.26534">
        <ele>463</ele>
        <time>2022-09-08T10:21:03Z</time>
      </trkpt>
      <trkpt lat="45.40593" lon="4.26387">
        <ele>468.5</ele>
        <extensions>
          <visugpx:TrkExtension xmlns:visugpx="https://www.visugpx.com/editgpx/">
            <visugpx:node>2</visugpx:node>
            </visugpx:TrkExtension>
        </extensions>
      </trkpt>
      <trkpt lat="45.40593" lon="4.26387">
        <ele>468.5</ele>
      </trkpt>
      <trkpt lat="45.40589" lon="4.26376">
        <ele>468.4</ele>
      </trkpt>
      <trkpt lat="45.40585" lon="4.26351">
        <ele>468.6</ele>
      </trkpt>
      <trkpt lat="45.40585" lon="4.2634">
        <ele>469</ele>
      </trkpt>
      <trkpt lat="45.40587" lon="4.26321">
        <ele>470</ele>
      </trkpt>
      <trkpt lat="45.40594" lon="4.26296">
        <ele>472.1</ele>
      </trkpt>
      <trkpt lat="45.40598" lon="4.2628">
        <ele>473.5</ele>
      </trkpt>
      <trkpt lat="45.40609" lon="4.26243">
        <ele>472.9</ele>
      </trkpt>
      <trkpt lat="45.40614" lon="4.26224">
        <ele>473.2</ele>
      </trkpt>
      <trkpt lat="45.40631" lon="4.26162">
        <ele>472.1</ele>
        <extensions>
          <visugpx:TrkExtension xmlns:visugpx="https://www.visugpx.com/editgpx/">
            <visugpx:node>5</visugpx:node>
            </visugpx:TrkExtension>
        </extensions>
      </trkpt>
      <trkpt lat="45.40638" lon="4.26135">
        <ele>470.9</ele>
      </trkpt>
      <trkpt lat="45.40643" lon="4.26119">
        <ele>471.2</ele>
      </trkpt>
      <trkpt lat="45.40646" lon="4.26111">
        <ele>471.2</ele>
      </trkpt>
      <trkpt lat="45.40649" lon="4.26097">
        <ele>469.7</ele>
      </trkpt>
      <trkpt lat="45.40655" lon="4.26077">
        <ele>468.4</ele>
      </trkpt>
      <trkpt lat="45.40665" lon="4.26049">
        <ele>467.4</ele>
      </trkpt>
      <trkpt lat="45.40672" lon="4.26036">
        <ele>466.2</ele>
      </trkpt>
      <trkpt lat="45.40679" lon="4.26023">
        <ele>464.3</ele>
      </trkpt>
      <trkpt lat="45.40708" lon="4.25987">
        <ele>461.6</ele>
      </trkpt>
      <trkpt lat="45.4072" lon="4.25967">
        <ele>459.6</ele>
      </trkpt>
      <trkpt lat="45.40727" lon="4.25954">
        <ele>458.7</ele>
      </trkpt>
      <trkpt lat="45.4073" lon="4.25942">
        <ele>457.7</ele>
      </trkpt>
      <trkpt lat="45.40733" lon="4.25929">
        <ele>456.4</ele>
      </trkpt>
      <trkpt lat="45.40736" lon="4.25902">
        <ele>454.4</ele>
      </trkpt>
      <trkpt lat="45.40735" lon="4.25902">
        <ele>454.3</ele>
        <extensions>
          <visugpx:TrkExtension xmlns:visugpx="https://www.visugpx.com/editgpx/">
            <visugpx:node>3</visugpx:node>
            </visugpx:TrkExtension>
        </extensions>
      </trkpt>
      <trkpt lat="45.40736" lon="4.25883">
        <ele>459</ele>
        <time>2022-09-08T10:22:42Z</time>
      </trkpt>
      <trkpt lat="45.40733" lon="4.25823">
        <ele>455</ele>
        <time>2022-09-08T10:22:49Z</time>
      </trkpt>
      <trkpt lat="45.40738" lon="4.25797">
        <ele>453</ele>
        <time>2022-09-08T10:22:53Z</time>
      </trkpt>
      <trkpt lat="45.40788" lon="4.25624">
        <ele>448</ele>
        <time>2022-09-08T10:23:16Z</time>
      </trkpt>
      <trkpt lat="45.40795" lon="4.25594">
        <ele>449</ele>
        <time>2022-09-08T10:23:20Z</time>
      </trkpt>
      <trkpt lat="45.40812" lon="4.25492">
        <ele>440</ele>
        <time>2022-09-08T10:23:33Z</time>
      </trkpt>
      <trkpt lat="45.40818" lon="4.25469">
        <ele>438</ele>
        <time>2022-09-08T10:23:36Z</time>
      </trkpt>
      <trkpt lat="45.40823" lon="4.25455">
        <ele>436</ele>
        <time>2022-09-08T10:23:38Z</time>
      </trkpt>
      <trkpt lat="45.40851" lon="4.25402">
        <ele>436</ele>
        <time>2022-09-08T10:23:46Z</time>
      </trkpt>
      <trkpt lat="45.40853" lon="4.2538">
        <ele>436</ele>
        <time>2022-09-08T10:23:49Z</time>
      </trkpt>
      <trkpt lat="45.40851" lon="4.25402">
        <ele>436</ele>
        <time>2022-09-08T10:23:52Z</time>
      </trkpt>
      <trkpt lat="45.40858" lon="4.25387">
        <ele>438</ele>
        <time>2022-09-08T10:23:54Z</time>
      </trkpt>
      <trkpt lat="45.4086" lon="4.25344">
        <ele>437</ele>
        <time>2022-09-08T10:24:00Z</time>
      </trkpt>
      <trkpt lat="45.40884" lon="4.25305">
        <ele>440</ele>
        <time>2022-09-08T10:24:06Z</time>
      </trkpt>
      <trkpt lat="45.40897" lon="4.25272">
        <ele>440</ele>
        <time>2022-09-08T10:24:11Z</time>
      </trkpt>
      <trkpt lat="45.40905" lon="4.25233">
        <ele>439</ele>
        <time>2022-09-08T10:24:16Z</time>
      </trkpt>
      <trkpt lat="45.40908" lon="4.25195">
        <ele>438</ele>
        <time>2022-09-08T10:24:21Z</time>
      </trkpt>
      <trkpt lat="45.40905" lon="4.25174">
        <ele>438</ele>
        <time>2022-09-08T10:24:23Z</time>
      </trkpt>
      <trkpt lat="45.40915" lon="4.25169">
        <ele>436</ele>
        <time>2022-09-08T10:24:25Z</time>
      </trkpt>
      <trkpt lat="45.40919" lon="4.25161">
        <ele>437</ele>
        <time>2022-09-08T10:24:26Z</time>
      </trkpt>
      <trkpt lat="45.40927" lon="4.25099">
        <ele>436</ele>
        <time>2022-09-08T10:24:34Z</time>
      </trkpt>
      <trkpt lat="45.40896" lon="4.24905">
        <ele>428</ele>
        <time>2022-09-08T10:24:59Z</time>
      </trkpt>
      <trkpt lat="45.40893" lon="4.24899">
        <ele>428</ele>
        <time>2022-09-08T10:25:00Z</time>
      </trkpt>
      <trkpt lat="45.40886" lon="4.24899">
        <ele>428</ele>
        <time>2022-09-08T10:25:01Z</time>
      </trkpt>
      <trkpt lat="45.40875" lon="4.24923">
        <ele>430</ele>
        <time>2022-09-08T10:25:05Z</time>
      </trkpt>
      <trkpt lat="45.40866" lon="4.24916">
        <ele>430</ele>
        <time>2022-09-08T10:25:07Z</time>
      </trkpt>
      <trkpt lat="45.40861" lon="4.24916">
        <ele>430</ele>
        <time>2022-09-08T10:25:08Z</time>
      </trkpt>
      <trkpt lat="45.40852" lon="4.24711">
        <ele>422</ele>
        <time>2022-09-08T10:25:33Z</time>
      </trkpt>
      <trkpt lat="45.40848" lon="4.24668">
        <ele>423</ele>
        <time>2022-09-08T10:25:39Z</time>
      </trkpt>
      <trkpt lat="45.40839" lon="4.24612">
        <ele>425</ele>
        <time>2022-09-08T10:25:46Z</time>
      </trkpt>
      <trkpt lat="45.40829" lon="4.24578">
        <ele>427</ele>
        <time>2022-09-08T10:25:50Z</time>
      </trkpt>
      <trkpt lat="45.40837" lon="4.24567">
        <ele>427</ele>
        <time>2022-09-08T10:25:52Z</time>
      </trkpt>
      <trkpt lat="45.40838" lon="4.24544">
        <ele>427</ele>
        <time>2022-09-08T10:25:55Z</time>
      </trkpt>
      <trkpt lat="45.40779" lon="4.242">
        <ele>448</ele>
        <time>2022-09-08T10:26:40Z</time>
      </trkpt>
      <trkpt lat="45.40771" lon="4.24126">
        <ele>455</ele>
        <time>2022-09-08T10:26:49Z</time>
      </trkpt>
      <trkpt lat="45.40767" lon="4.23981">
        <ele>460</ele>
        <time>2022-09-08T10:27:07Z</time>
      </trkpt>
      <trkpt lat="45.40774" lon="4.23927">
        <ele>460</ele>
        <time>2022-09-08T10:27:14Z</time>
      </trkpt>
      <trkpt lat="45.40787" lon="4.2388">
        <ele>463</ele>
        <time>2022-09-08T10:27:20Z</time>
      </trkpt>
      <trkpt lat="45.40803" lon="4.23837">
        <ele>464</ele>
        <time>2022-09-08T10:27:26Z</time>
      </trkpt>
      <trkpt lat="45.40833" lon="4.23774">
        <ele>467</ele>
        <time>2022-09-08T10:27:36Z</time>
      </trkpt>
      <trkpt lat="45.40845" lon="4.23755">
        <ele>469</ele>
        <time>2022-09-08T10:27:39Z</time>
      </trkpt>
      <trkpt lat="45.40879" lon="4.23717">
        <ele>473</ele>
        <time>2022-09-08T10:27:47Z</time>
      </trkpt>
      <trkpt lat="45.40972" lon="4.23655">
        <ele>473</ele>
        <time>2022-09-08T10:28:05Z</time>
      </trkpt>
      <trkpt lat="45.4101" lon="4.23644">
        <ele>472</ele>
        <time>2022-09-08T10:28:12Z</time>
      </trkpt>
      <trkpt lat="45.41033" lon="4.23643">
        <ele>472</ele>
        <time>2022-09-08T10:28:16Z</time>
      </trkpt>
      <trkpt lat="45.41066" lon="4.23646">
        <ele>471</ele>
        <time>2022-09-08T10:28:22Z</time>
      </trkpt>
      <trkpt lat="45.41157" lon="4.23663">
        <ele>473</ele>
        <time>2022-09-08T10:28:38Z</time>
      </trkpt>
      <trkpt lat="45.41172" lon="4.2367">
        <ele>474</ele>
        <time>2022-09-08T10:28:41Z</time>
      </trkpt>
      <trkpt lat="45.41183" lon="4.2368">
        <ele>474</ele>
        <time>2022-09-08T10:28:43Z</time>
      </trkpt>
      <trkpt lat="45.41207" lon="4.23713">
        <ele>468</ele>
        <time>2022-09-08T10:28:49Z</time>
      </trkpt>
      <trkpt lat="45.41219" lon="4.23725">
        <ele>466</ele>
        <time>2022-09-08T10:28:52Z</time>
      </trkpt>
      <trkpt lat="45.41237" lon="4.23727">
        <ele>472</ele>
        <time>2022-09-08T10:28:55Z</time>
      </trkpt>
      <trkpt lat="45.41248" lon="4.23725">
        <ele>476</ele>
        <time>2022-09-08T10:28:57Z</time>
      </trkpt>
      <trkpt lat="45.41268" lon="4.2373">
        <ele>476</ele>
        <time>2022-09-08T10:29:01Z</time>
      </trkpt>
      <trkpt lat="45.41299" lon="4.23761">
        <ele>465</ele>
        <time>2022-09-08T10:29:07Z</time>
      </trkpt>
      <trkpt lat="45.41308" lon="4.23766">
        <ele>464</ele>
        <time>2022-09-08T10:29:09Z</time>
      </trkpt>
      <trkpt lat="45.4132" lon="4.23767">
        <ele>465</ele>
        <time>2022-09-08T10:29:11Z</time>
      </trkpt>
      <trkpt lat="45.4133" lon="4.23764">
        <ele>467</ele>
        <time>2022-09-08T10:29:13Z</time>
      </trkpt>
      <trkpt lat="45.41338" lon="4.23754">
        <ele>470</ele>
        <time>2022-09-08T10:29:15Z</time>
      </trkpt>
      <trkpt lat="45.41384" lon="4.23662">
        <ele>494</ele>
        <time>2022-09-08T10:29:29Z</time>
      </trkpt>
      <trkpt lat="45.41422" lon="4.23608">
        <ele>500</ele>
        <time>2022-09-08T10:29:39Z</time>
      </trkpt>
      <trkpt lat="45.4143" lon="4.23601">
        <ele>503</ele>
        <time>2022-09-08T10:29:40Z</time>
      </trkpt>
      <trkpt lat="45.41438" lon="4.23598">
        <ele>504</ele>
        <time>2022-09-08T10:29:42Z</time>
      </trkpt>
      <trkpt lat="45.41445" lon="4.23599">
        <ele>505</ele>
        <time>2022-09-08T10:29:43Z</time>
      </trkpt>
      <trkpt lat="45.41456" lon="4.23609">
        <ele>505</ele>
        <time>2022-09-08T10:29:45Z</time>
      </trkpt>
      <trkpt lat="45.41461" lon="4.23621">
        <ele>504</ele>
        <time>2022-09-08T10:29:47Z</time>
      </trkpt>
      <trkpt lat="45.41463" lon="4.23636">
        <ele>503</ele>
        <time>2022-09-08T10:29:49Z</time>
      </trkpt>
      <trkpt lat="45.41452" lon="4.23689">
        <ele>494</ele>
        <time>2022-09-08T10:29:56Z</time>
      </trkpt>
      <trkpt lat="45.4145" lon="4.23719">
        <ele>490</ele>
        <time>2022-09-08T10:30:00Z</time>
      </trkpt>
      <trkpt lat="45.41483" lon="4.23901">
        <ele>486</ele>
        <time>2022-09-08T10:30:23Z</time>
      </trkpt>
      <trkpt lat="45.41504" lon="4.23953">
        <ele>488</ele>
        <time>2022-09-08T10:30:31Z</time>
      </trkpt>
      <trkpt lat="45.41536" lon="4.24">
        <ele>496</ele>
        <time>2022-09-08T10:30:39Z</time>
      </trkpt>
      <trkpt lat="45.41545" lon="4.24034">
        <ele>496</ele>
        <time>2022-09-08T10:30:43Z</time>
      </trkpt>
      <trkpt lat="45.4155" lon="4.24069">
        <ele>492</ele>
        <time>2022-09-08T10:30:48Z</time>
      </trkpt>
      <trkpt lat="45.41556" lon="4.24088">
        <ele>492</ele>
        <time>2022-09-08T10:30:50Z</time>
      </trkpt>
      <trkpt lat="45.41595" lon="4.24149">
        <ele>499</ele>
        <time>2022-09-08T10:31:01Z</time>
      </trkpt>
      <trkpt lat="45.41603" lon="4.24165">
        <ele>499</ele>
        <time>2022-09-08T10:31:03Z</time>
      </trkpt>
      <trkpt lat="45.41621" lon="4.24215">
        <ele>497</ele>
        <time>2022-09-08T10:31:10Z</time>
      </trkpt>
      <trkpt lat="45.41642" lon="4.2425">
        <ele>498</ele>
        <time>2022-09-08T10:31:16Z</time>
      </trkpt>
      <trkpt lat="45.41674" lon="4.24285">
        <ele>501</ele>
        <time>2022-09-08T10:31:23Z</time>
      </trkpt>
      <trkpt lat="45.41781" lon="4.24352">
        <ele>504</ele>
        <time>2022-09-08T10:31:44Z</time>
      </trkpt>
      <trkpt lat="45.41801" lon="4.24359">
        <ele>505</ele>
        <time>2022-09-08T10:31:48Z</time>
      </trkpt>
      <trkpt lat="45.41868" lon="4.24374">
        <ele>510</ele>
        <time>2022-09-08T10:32:00Z</time>
      </trkpt>
      <trkpt lat="45.41881" lon="4.24381">
        <ele>511</ele>
        <time>2022-09-08T10:32:02Z</time>
      </trkpt>
      <trkpt lat="45.41919" lon="4.24426">
        <ele>511</ele>
        <time>2022-09-08T10:32:11Z</time>
      </trkpt>
      <trkpt lat="45.41927" lon="4.24431">
        <ele>510</ele>
        <time>2022-09-08T10:32:12Z</time>
      </trkpt>
      <trkpt lat="45.41939" lon="4.2443">
        <ele>510</ele>
        <time>2022-09-08T10:32:15Z</time>
      </trkpt>
      <trkpt lat="45.41956" lon="4.24423">
        <ele>510</ele>
        <time>2022-09-08T10:32:18Z</time>
      </trkpt>
      <trkpt lat="45.41963" lon="4.24416">
        <ele>510</ele>
        <time>2022-09-08T10:32:19Z</time>
      </trkpt>
      <trkpt lat="45.41972" lon="4.24392">
        <ele>511</ele>
        <time>2022-09-08T10:32:23Z</time>
      </trkpt>
      <trkpt lat="45.41973" lon="4.24374">
        <ele>513</ele>
        <time>2022-09-08T10:32:25Z</time>
      </trkpt>
      <trkpt lat="45.41969" lon="4.24352">
        <ele>514</ele>
        <time>2022-09-08T10:32:28Z</time>
      </trkpt>
      <trkpt lat="45.4194" lon="4.24259">
        <ele>521</ele>
        <time>2022-09-08T10:32:40Z</time>
      </trkpt>
      <trkpt lat="45.41935" lon="4.24217">
        <ele>526</ele>
        <time>2022-09-08T10:32:46Z</time>
      </trkpt>
      <trkpt lat="45.41936" lon="4.24201">
        <ele>527</ele>
        <time>2022-09-08T10:32:48Z</time>
      </trkpt>
      <trkpt lat="45.41958" lon="4.24121">
        <ele>529</ele>
        <time>2022-09-08T10:32:59Z</time>
      </trkpt>
      <trkpt lat="45.41966" lon="4.24024">
        <ele>541</ele>
        <time>2022-09-08T10:33:11Z</time>
      </trkpt>
      <trkpt lat="45.41972" lon="4.24002">
        <ele>543</ele>
        <time>2022-09-08T10:33:14Z</time>
      </trkpt>
      <trkpt lat="45.4198" lon="4.2399">
        <ele>543</ele>
        <time>2022-09-08T10:33:16Z</time>
      </trkpt>
      <trkpt lat="45.41989" lon="4.23985">
        <ele>541</ele>
        <time>2022-09-08T10:33:17Z</time>
      </trkpt>
      <trkpt lat="45.41999" lon="4.23984">
        <ele>539</ele>
        <time>2022-09-08T10:33:19Z</time>
      </trkpt>
      <trkpt lat="45.4203" lon="4.23996">
        <ele>534</ele>
        <time>2022-09-08T10:33:25Z</time>
      </trkpt>
      <trkpt lat="45.42043" lon="4.23995">
        <ele>534</ele>
        <time>2022-09-08T10:33:27Z</time>
      </trkpt>
      <trkpt lat="45.42053" lon="4.23992">
        <ele>534</ele>
        <time>2022-09-08T10:33:29Z</time>
      </trkpt>
      <trkpt lat="45.42073" lon="4.23973">
        <ele>538</ele>
        <time>2022-09-08T10:33:33Z</time>
      </trkpt>
      <trkpt lat="45.42081" lon="4.23959">
        <ele>540</ele>
        <time>2022-09-08T10:33:36Z</time>
      </trkpt>
      <trkpt lat="45.42085" lon="4.23942">
        <ele>543</ele>
        <time>2022-09-08T10:33:38Z</time>
      </trkpt>
      <trkpt lat="45.42087" lon="4.23908">
        <ele>549</ele>
        <time>2022-09-08T10:33:42Z</time>
      </trkpt>
      <trkpt lat="45.42085" lon="4.23864">
        <ele>556</ele>
        <time>2022-09-08T10:33:48Z</time>
      </trkpt>
      <trkpt lat="45.42087" lon="4.23848">
        <ele>558</ele>
        <time>2022-09-08T10:33:50Z</time>
      </trkpt>
      <trkpt lat="45.4209" lon="4.23836">
        <ele>559</ele>
        <time>2022-09-08T10:33:51Z</time>
      </trkpt>
      <trkpt lat="45.42097" lon="4.23828">
        <ele>560</ele>
        <time>2022-09-08T10:33:53Z</time>
      </trkpt>
      <trkpt lat="45.42108" lon="4.23822">
        <ele>561</ele>
        <time>2022-09-08T10:33:55Z</time>
      </trkpt>
      <trkpt lat="45.42117" lon="4.23824">
        <ele>560</ele>
        <time>2022-09-08T10:33:57Z</time>
      </trkpt>
      <trkpt lat="45.42128" lon="4.23832">
        <ele>559</ele>
        <time>2022-09-08T10:33:59Z</time>
      </trkpt>
      <trkpt lat="45.42161" lon="4.23896">
        <ele>547</ele>
        <time>2022-09-08T10:34:09Z</time>
      </trkpt>
      <trkpt lat="45.4218" lon="4.23925">
        <ele>544</ele>
        <time>2022-09-08T10:34:14Z</time>
      </trkpt>
      <trkpt lat="45.42199" lon="4.23946">
        <ele>545</ele>
        <time>2022-09-08T10:34:18Z</time>
      </trkpt>
      <trkpt lat="45.42279" lon="4.24017">
        <ele>545</ele>
        <time>2022-09-08T10:34:35Z</time>
      </trkpt>
      <trkpt lat="45.42299" lon="4.24021">
        <ele>547</ele>
        <time>2022-09-08T10:34:38Z</time>
      </trkpt>
      <trkpt lat="45.42313" lon="4.2402">
        <ele>549</ele>
        <time>2022-09-08T10:34:41Z</time>
      </trkpt>
      <trkpt lat="45.42352" lon="4.24005">
        <ele>556</ele>
        <time>2022-09-08T10:34:48Z</time>
      </trkpt>
      <trkpt lat="45.4239" lon="4.23984">
        <ele>562</ele>
        <time>2022-09-08T10:34:55Z</time>
      </trkpt>
      <trkpt lat="45.42397" lon="4.23983">
        <ele>563</ele>
        <time>2022-09-08T10:34:56Z</time>
      </trkpt>
      <trkpt lat="45.42406" lon="4.23985">
        <ele>563</ele>
        <time>2022-09-08T10:34:58Z</time>
      </trkpt>
      <trkpt lat="45.42416" lon="4.23993">
        <ele>562</ele>
        <time>2022-09-08T10:35:00Z</time>
      </trkpt>
      <trkpt lat="45.42456" lon="4.24051">
        <ele>556</ele>
        <time>2022-09-08T10:35:10Z</time>
      </trkpt>
      <trkpt lat="45.42478" lon="4.24061">
        <ele>556</ele>
        <time>2022-09-08T10:35:14Z</time>
      </trkpt>
      <trkpt lat="45.42489" lon="4.24061">
        <ele>558</ele>
        <time>2022-09-08T10:35:16Z</time>
      </trkpt>
      <trkpt lat="45.42501" lon="4.24056">
        <ele>560</ele>
        <time>2022-09-08T10:35:19Z</time>
      </trkpt>
      <trkpt lat="45.42549" lon="4.24025">
        <ele>568</ele>
        <time>2022-09-08T10:35:28Z</time>
      </trkpt>
      <trkpt lat="45.42561" lon="4.24022">
        <ele>569</ele>
        <time>2022-09-08T10:35:30Z</time>
      </trkpt>
      <trkpt lat="45.4257" lon="4.24023">
        <ele>570</ele>
        <time>2022-09-08T10:35:32Z</time>
      </trkpt>
      <trkpt lat="45.42578" lon="4.24027">
        <ele>569</ele>
        <time>2022-09-08T10:35:33Z</time>
      </trkpt>
      <trkpt lat="45.42597" lon="4.2405">
        <ele>568</ele>
        <time>2022-09-08T10:35:38Z</time>
      </trkpt>
      <trkpt lat="45.42631" lon="4.24128">
        <ele>566</ele>
        <time>2022-09-08T10:35:49Z</time>
      </trkpt>
      <trkpt lat="45.42651" lon="4.24153">
        <ele>567</ele>
        <time>2022-09-08T10:35:54Z</time>
      </trkpt>
      <trkpt lat="45.42677" lon="4.2416">
        <ele>569</ele>
        <time>2022-09-08T10:35:59Z</time>
      </trkpt>
      <trkpt lat="45.42791" lon="4.24149">
        <ele>582</ele>
        <time>2022-09-08T10:36:19Z</time>
      </trkpt>
      <trkpt lat="45.42824" lon="4.24149">
        <ele>586</ele>
        <time>2022-09-08T10:36:25Z</time>
      </trkpt>
      <trkpt lat="45.42847" lon="4.24153">
        <ele>588</ele>
        <time>2022-09-08T10:36:29Z</time>
      </trkpt>
      <trkpt lat="45.42864" lon="4.2416">
        <ele>589</ele>
        <time>2022-09-08T10:36:32Z</time>
      </trkpt>
      <trkpt lat="45.42873" lon="4.24168">
        <ele>588</ele>
        <time>2022-09-08T10:36:34Z</time>
      </trkpt>
      <trkpt lat="45.42891" lon="4.24186">
        <ele>587</ele>
        <time>2022-09-08T10:36:38Z</time>
      </trkpt>
      <trkpt lat="45.42926" lon="4.24231">
        <ele>583</ele>
        <time>2022-09-08T10:36:46Z</time>
      </trkpt>
      <trkpt lat="45.42937" lon="4.24241">
        <ele>581</ele>
        <time>2022-09-08T10:36:49Z</time>
      </trkpt>
      <trkpt lat="45.42948" lon="4.24246">
        <ele>581</ele>
        <time>2022-09-08T10:36:51Z</time>
      </trkpt>
      <trkpt lat="45.42966" lon="4.24247">
        <ele>583</ele>
        <time>2022-09-08T10:36:54Z</time>
      </trkpt>
      <trkpt lat="45.42978" lon="4.24244">
        <ele>585</ele>
        <time>2022-09-08T10:36:56Z</time>
      </trkpt>
      <trkpt lat="45.43006" lon="4.24229">
        <ele>590</ele>
        <time>2022-09-08T10:37:01Z</time>
      </trkpt>
      <trkpt lat="45.43091" lon="4.24168">
        <ele>592</ele>
        <time>2022-09-08T10:37:18Z</time>
      </trkpt>
      <trkpt lat="45.43101" lon="4.24155">
        <ele>589</ele>
        <time>2022-09-08T10:37:21Z</time>
      </trkpt>
      <trkpt lat="45.43104" lon="4.24148">
        <ele>588</ele>
        <time>2022-09-08T10:37:22Z</time>
      </trkpt>
      <trkpt lat="45.43105" lon="4.24129">
        <ele>587</ele>
        <time>2022-09-08T10:37:24Z</time>
      </trkpt>
      <trkpt lat="45.43098" lon="4.24111">
        <ele>588</ele>
        <time>2022-09-08T10:37:27Z</time>
      </trkpt>
      <trkpt lat="45.4303" lon="4.24028">
        <ele>598</ele>
        <time>2022-09-08T10:37:43Z</time>
      </trkpt>
      <trkpt lat="45.43017" lon="4.24007">
        <ele>600</ele>
        <time>2022-09-08T10:37:46Z</time>
      </trkpt>
      <trkpt lat="45.43012" lon="4.23989">
        <ele>600</ele>
        <time>2022-09-08T10:37:48Z</time>
      </trkpt>
      <trkpt lat="45.42991" lon="4.23858">
        <ele>599</ele>
        <time>2022-09-08T10:38:05Z</time>
      </trkpt>
      <trkpt lat="45.42978" lon="4.23823">
        <ele>599</ele>
        <time>2022-09-08T10:38:10Z</time>
      </trkpt>
      <trkpt lat="45.42963" lon="4.23791">
        <ele>600</ele>
        <time>2022-09-08T10:38:15Z</time>
      </trkpt>
      <trkpt lat="45.42938" lon="4.23722">
        <ele>600</ele>
        <time>2022-09-08T10:38:25Z</time>
      </trkpt>
      <trkpt lat="45.42923" lon="4.237">
        <ele>603</ele>
        <time>2022-09-08T10:38:29Z</time>
      </trkpt>
      <trkpt lat="45.42914" lon="4.23677">
        <ele>604</ele>
        <time>2022-09-08T10:38:32Z</time>
      </trkpt>
      <trkpt lat="45.42914" lon="4.23662">
        <ele>603</ele>
        <time>2022-09-08T10:38:34Z</time>
      </trkpt>
      <trkpt lat="45.4293" lon="4.23615">
        <ele>599</ele>
        <time>2022-09-08T10:38:40Z</time>
      </trkpt>
      <trkpt lat="45.42931" lon="4.23588">
        <ele>600</ele>
        <time>2022-09-08T10:38:44Z</time>
      </trkpt>
      <trkpt lat="45.42928" lon="4.23571">
        <ele>600</ele>
        <time>2022-09-08T10:38:46Z</time>
      </trkpt>
      <trkpt lat="45.42914" lon="4.23529">
        <ele>600</ele>
        <time>2022-09-08T10:38:52Z</time>
      </trkpt>
      <trkpt lat="45.4288" lon="4.23451">
        <ele>609</ele>
        <time>2022-09-08T10:39:03Z</time>
      </trkpt>
      <trkpt lat="45.42876" lon="4.23431">
        <ele>609</ele>
        <time>2022-09-08T10:39:06Z</time>
      </trkpt>
      <trkpt lat="45.42879" lon="4.23378">
        <ele>606</ele>
        <time>2022-09-08T10:39:12Z</time>
      </trkpt>
      <trkpt lat="45.42875" lon="4.23324">
        <ele>609</ele>
        <time>2022-09-08T10:39:19Z</time>
      </trkpt>
      <trkpt lat="45.42889" lon="4.23245">
        <ele>604</ele>
        <time>2022-09-08T10:39:29Z</time>
      </trkpt>
      <trkpt lat="45.42887" lon="4.2322">
        <ele>605</ele>
        <time>2022-09-08T10:39:32Z</time>
      </trkpt>
      <trkpt lat="45.42881" lon="4.23201">
        <ele>607</ele>
        <time>2022-09-08T10:39:35Z</time>
      </trkpt>
      <trkpt lat="45.42852" lon="4.23164">
        <ele>618</ele>
        <time>2022-09-08T10:39:42Z</time>
      </trkpt>
      <trkpt lat="45.42845" lon="4.2315">
        <ele>620</ele>
        <time>2022-09-08T10:39:44Z</time>
      </trkpt>
      <trkpt lat="45.42842" lon="4.23135">
        <ele>620</ele>
        <time>2022-09-08T10:39:46Z</time>
      </trkpt>
      <trkpt lat="45.42842" lon="4.23121">
        <ele>619</ele>
        <time>2022-09-08T10:39:48Z</time>
      </trkpt>
      <trkpt lat="45.42845" lon="4.23108">
        <ele>618</ele>
        <time>2022-09-08T10:39:49Z</time>
      </trkpt>
      <trkpt lat="45.42854" lon="4.23091">
        <ele>617</ele>
        <time>2022-09-08T10:39:52Z</time>
      </trkpt>
      <trkpt lat="45.42858" lon="4.23088">
        <ele>616</ele>
        <time>2022-09-08T10:39:53Z</time>
      </trkpt>
      <trkpt lat="45.42866" lon="4.23086">
        <ele>616</ele>
        <time>2022-09-08T10:39:54Z</time>
      </trkpt>
      <trkpt lat="45.42887" lon="4.23089">
        <ele>614</ele>
        <time>2022-09-08T10:39:58Z</time>
      </trkpt>
      <trkpt lat="45.4298" lon="4.23124">
        <ele>612</ele>
        <time>2022-09-08T10:40:15Z</time>
      </trkpt>
      <trkpt lat="45.43006" lon="4.23137">
        <ele>611</ele>
        <time>2022-09-08T10:40:20Z</time>
      </trkpt>
      <trkpt lat="45.4303" lon="4.23167">
        <ele>608</ele>
        <time>2022-09-08T10:40:26Z</time>
      </trkpt>
      <trkpt lat="45.43043" lon="4.23216">
        <ele>601</ele>
        <time>2022-09-08T10:40:32Z</time>
      </trkpt>
      <trkpt lat="45.43049" lon="4.23227">
        <ele>600</ele>
        <time>2022-09-08T10:40:34Z</time>
      </trkpt>
      <trkpt lat="45.43058" lon="4.23237">
        <ele>601</ele>
        <time>2022-09-08T10:40:36Z</time>
      </trkpt>
      <trkpt lat="45.43082" lon="4.23253">
        <ele>605</ele>
        <time>2022-09-08T10:40:41Z</time>
      </trkpt>
      <trkpt lat="45.43122" lon="4.23274">
        <ele>608</ele>
        <time>2022-09-08T10:40:48Z</time>
      </trkpt>
      <trkpt lat="45.43197" lon="4.23307">
        <ele>611</ele>
        <time>2022-09-08T10:41:02Z</time>
      </trkpt>
      <trkpt lat="45.43237" lon="4.23332">
        <ele>608</ele>
        <time>2022-09-08T10:41:10Z</time>
      </trkpt>
      <trkpt lat="45.43253" lon="4.23336">
        <ele>609</ele>
        <time>2022-09-08T10:41:13Z</time>
      </trkpt>
      <trkpt lat="45.43262" lon="4.23335">
        <ele>609</ele>
        <time>2022-09-08T10:41:15Z</time>
      </trkpt>
      <trkpt lat="45.43284" lon="4.23321">
        <ele>615</ele>
        <time>2022-09-08T10:41:19Z</time>
      </trkpt>
      <trkpt lat="45.43321" lon="4.2329">
        <ele>626</ele>
        <time>2022-09-08T10:41:27Z</time>
      </trkpt>
      <trkpt lat="45.43331" lon="4.23289">
        <ele>627</ele>
        <time>2022-09-08T10:41:28Z</time>
      </trkpt>
      <trkpt lat="45.4334" lon="4.23291">
        <ele>627</ele>
        <time>2022-09-08T10:41:30Z</time>
      </trkpt>
      <trkpt lat="45.43356" lon="4.23309">
        <ele>624</ele>
        <time>2022-09-08T10:41:34Z</time>
      </trkpt>
      <trkpt lat="45.43373" lon="4.23341">
        <ele>617</ele>
        <time>2022-09-08T10:41:39Z</time>
      </trkpt>
      <trkpt lat="45.43381" lon="4.23348">
        <ele>618</ele>
        <time>2022-09-08T10:41:40Z</time>
      </trkpt>
      <trkpt lat="45.43416" lon="4.23363">
        <ele>624</ele>
        <time>2022-09-08T10:41:47Z</time>
      </trkpt>
      <trkpt lat="45.43427" lon="4.23372">
        <ele>626</ele>
        <time>2022-09-08T10:41:49Z</time>
      </trkpt>
      <trkpt lat="45.43432" lon="4.23384">
        <ele>625</ele>
        <time>2022-09-08T10:41:51Z</time>
      </trkpt>
      <trkpt lat="45.43434" lon="4.23398">
        <ele>623</ele>
        <time>2022-09-08T10:41:53Z</time>
      </trkpt>
      <trkpt lat="45.43434" lon="4.23455">
        <ele>615</ele>
        <time>2022-09-08T10:42:00Z</time>
      </trkpt>
      <trkpt lat="45.43437" lon="4.23475">
        <ele>614</ele>
        <time>2022-09-08T10:42:02Z</time>
      </trkpt>
      <trkpt lat="45.43448" lon="4.23499">
        <ele>613</ele>
        <time>2022-09-08T10:42:06Z</time>
      </trkpt>
      <trkpt lat="45.4346" lon="4.23508">
        <ele>614</ele>
        <time>2022-09-08T10:42:08Z</time>
      </trkpt>
      <trkpt lat="45.4353" lon="4.23524">
        <ele>622</ele>
        <time>2022-09-08T10:42:21Z</time>
      </trkpt>
      <trkpt lat="45.43541" lon="4.23531">
        <ele>621</ele>
        <time>2022-09-08T10:42:23Z</time>
      </trkpt>
      <trkpt lat="45.4356" lon="4.23555">
        <ele>618</ele>
        <time>2022-09-08T10:42:28Z</time>
      </trkpt>
      <trkpt lat="45.43579" lon="4.2357">
        <ele>618</ele>
        <time>2022-09-08T10:42:31Z</time>
      </trkpt>
      <trkpt lat="45.43586" lon="4.2357">
        <ele>619</ele>
        <time>2022-09-08T10:42:33Z</time>
      </trkpt>
      <trkpt lat="45.43604" lon="4.23559">
        <ele>621</ele>
        <time>2022-09-08T10:42:36Z</time>
      </trkpt>
      <trkpt lat="45.43613" lon="4.23546">
        <ele>625</ele>
        <time>2022-09-08T10:42:38Z</time>
      </trkpt>
      <trkpt lat="45.4363" lon="4.23509">
        <ele>636</ele>
        <time>2022-09-08T10:42:44Z</time>
      </trkpt>
      <trkpt lat="45.43645" lon="4.235">
        <ele>638</ele>
        <time>2022-09-08T10:42:47Z</time>
      </trkpt>
      <trkpt lat="45.43662" lon="4.23504">
        <ele>638</ele>
        <time>2022-09-08T10:42:50Z</time>
      </trkpt>
      <trkpt lat="45.4375" lon="4.23592">
        <ele>630</ele>
        <time>2022-09-08T10:43:09Z</time>
      </trkpt>
      <trkpt lat="45.43787" lon="4.23611">
        <ele>634</ele>
        <time>2022-09-08T10:43:16Z</time>
      </trkpt>
      <trkpt lat="45.43815" lon="4.23634">
        <ele>633</ele>
        <time>2022-09-08T10:43:22Z</time>
      </trkpt>
      <trkpt lat="45.43835" lon="4.23644">
        <ele>634</ele>
        <time>2022-09-08T10:43:26Z</time>
      </trkpt>
      <trkpt lat="45.4395" lon="4.23663">
        <ele>638</ele>
        <time>2022-09-08T10:43:46Z</time>
      </trkpt>
      <trkpt lat="45.43993" lon="4.23675">
        <ele>637</ele>
        <time>2022-09-08T10:43:54Z</time>
      </trkpt>
      <trkpt lat="45.4409" lon="4.23727">
        <ele>633</ele>
        <time>2022-09-08T10:44:12Z</time>
      </trkpt>
      <trkpt lat="45.44139" lon="4.23744">
        <ele>633</ele>
        <time>2022-09-08T10:44:21Z</time>
      </trkpt>
      <trkpt lat="45.44179" lon="4.23754">
        <ele>634</ele>
        <time>2022-09-08T10:44:29Z</time>
      </trkpt>
      <trkpt lat="45.44223" lon="4.23753">
        <ele>633</ele>
        <time>2022-09-08T10:44:36Z</time>
      </trkpt>
      <trkpt lat="45.44294" lon="4.23757">
        <ele>630</ele>
        <time>2022-09-08T10:44:49Z</time>
      </trkpt>
      <trkpt lat="45.44323" lon="4.23755">
        <ele>628</ele>
        <time>2022-09-08T10:44:54Z</time>
      </trkpt>
      <trkpt lat="45.44346" lon="4.2375">
        <ele>627</ele>
        <time>2022-09-08T10:44:58Z</time>
      </trkpt>
      <trkpt lat="45.44367" lon="4.23742">
        <ele>625</ele>
        <time>2022-09-08T10:45:02Z</time>
      </trkpt>
      <trkpt lat="45.44385" lon="4.23732">
        <ele>625</ele>
        <time>2022-09-08T10:45:06Z</time>
      </trkpt>
      <trkpt lat="45.44404" lon="4.23718">
        <ele>624</ele>
        <time>2022-09-08T10:45:09Z</time>
      </trkpt>
      <trkpt lat="45.44443" lon="4.2367">
        <ele>623</ele>
        <time>2022-09-08T10:45:19Z</time>
      </trkpt>
      <trkpt lat="45.44466" lon="4.23646">
        <ele>623</ele>
        <time>2022-09-08T10:45:24Z</time>
      </trkpt>
      <trkpt lat="45.44491" lon="4.23627">
        <ele>622</ele>
        <time>2022-09-08T10:45:29Z</time>
      </trkpt>
      <trkpt lat="45.44531" lon="4.236">
        <ele>621</ele>
        <time>2022-09-08T10:45:37Z</time>
      </trkpt>
      <trkpt lat="45.44611" lon="4.23561">
        <ele>617</ele>
        <time>2022-09-08T10:45:52Z</time>
      </trkpt>
      <trkpt lat="45.44785" lon="4.23457">
        <ele>615</ele>
        <time>2022-09-08T10:46:25Z</time>
      </trkpt>
      <trkpt lat="45.44803" lon="4.23441">
        <ele>614</ele>
        <time>2022-09-08T10:46:29Z</time>
      </trkpt>
      <trkpt lat="45.44854" lon="4.23368">
        <ele>611</ele>
        <time>2022-09-08T10:46:42Z</time>
      </trkpt>
      <trkpt lat="45.44844" lon="4.23358">
        <ele>611</ele>
        <time>2022-09-08T10:46:44Z</time>
      </trkpt>
      <trkpt lat="45.44839" lon="4.23358">
        <ele>612</ele>
        <time>2022-09-08T10:46:45Z</time>
      </trkpt>
      <trkpt lat="45.44806" lon="4.2338">
        <ele>614</ele>
        <time>2022-09-08T10:46:51Z</time>
      </trkpt>
      <trkpt lat="45.44791" lon="4.23386">
        <ele>615</ele>
        <time>2022-09-08T10:46:54Z</time>
      </trkpt>
      <trkpt lat="45.44768" lon="4.23386">
        <ele>616</ele>
        <time>2022-09-08T10:46:58Z</time>
      </trkpt>
      <trkpt lat="45.44565" lon="4.23354">
        <ele>632</ele>
        <time>2022-09-08T10:47:35Z</time>
      </trkpt>
      <trkpt lat="45.44487" lon="4.23334">
        <ele>640</ele>
        <time>2022-09-08T10:47:49Z</time>
      </trkpt>
      <trkpt lat="45.44331" lon="4.23288">
        <ele>652</ele>
        <time>2022-09-08T10:48:17Z</time>
      </trkpt>
      <trkpt lat="45.44302" lon="4.23284">
        <ele>656</ele>
        <time>2022-09-08T10:48:22Z</time>
      </trkpt>
      <trkpt lat="45.44265" lon="4.23288">
        <ele>662</ele>
        <time>2022-09-08T10:48:29Z</time>
      </trkpt>
      <trkpt lat="45.44221" lon="4.23289">
        <ele>668</ele>
        <time>2022-09-08T10:48:37Z</time>
      </trkpt>
      <trkpt lat="45.44173" lon="4.23262">
        <ele>675</ele>
        <time>2022-09-08T10:48:46Z</time>
      </trkpt>
      <trkpt lat="45.44082" lon="4.23216">
        <ele>684</ele>
        <time>2022-09-08T10:49:03Z</time>
      </trkpt>
      <trkpt lat="45.43992" lon="4.2323">
        <ele>692</ele>
        <time>2022-09-08T10:49:19Z</time>
      </trkpt>
      <trkpt lat="45.4396" lon="4.2322">
        <ele>693</ele>
        <time>2022-09-08T10:49:25Z</time>
      </trkpt>
      <trkpt lat="45.43911" lon="4.23189">
        <ele>696</ele>
        <time>2022-09-08T10:49:35Z</time>
      </trkpt>
      <trkpt lat="45.43858" lon="4.23142">
        <ele>701</ele>
        <time>2022-09-08T10:49:46Z</time>
      </trkpt>
      <trkpt lat="45.43815" lon="4.23119">
        <ele>702</ele>
        <time>2022-09-08T10:49:54Z</time>
      </trkpt>
      <trkpt lat="45.43748" lon="4.2307">
        <ele>700</ele>
        <time>2022-09-08T10:50:07Z</time>
      </trkpt>
      <trkpt lat="45.43687" lon="4.23007">
        <ele>703</ele>
        <time>2022-09-08T10:50:21Z</time>
      </trkpt>
      <trkpt lat="45.43652" lon="4.22987">
        <ele>704</ele>
        <time>2022-09-08T10:50:27Z</time>
      </trkpt>
      <trkpt lat="45.43615" lon="4.22944">
        <ele>705</ele>
        <time>2022-09-08T10:50:36Z</time>
      </trkpt>
      <trkpt lat="45.43586" lon="4.22889">
        <ele>703</ele>
        <time>2022-09-08T10:50:44Z</time>
      </trkpt>
      <trkpt lat="45.43553" lon="4.2284">
        <ele>702</ele>
        <time>2022-09-08T10:50:53Z</time>
      </trkpt>
      <trkpt lat="45.43518" lon="4.22819">
        <ele>703</ele>
        <time>2022-09-08T10:51:00Z</time>
      </trkpt>
      <trkpt lat="45.43436" lon="4.22781">
        <ele>705</ele>
        <time>2022-09-08T10:51:15Z</time>
      </trkpt>
      <trkpt lat="45.43403" lon="4.22759">
        <ele>707</ele>
        <time>2022-09-08T10:51:21Z</time>
      </trkpt>
      <trkpt lat="45.43317" lon="4.22663">
        <ele>718</ele>
        <time>2022-09-08T10:51:41Z</time>
      </trkpt>
      <trkpt lat="45.4329" lon="4.22623">
        <ele>724</ele>
        <time>2022-09-08T10:51:48Z</time>
      </trkpt>
      <trkpt lat="45.43257" lon="4.22551">
        <ele>729</ele>
        <time>2022-09-08T10:51:59Z</time>
      </trkpt>
      <trkpt lat="45.43161" lon="4.22405">
        <ele>732</ele>
        <time>2022-09-08T10:52:24Z</time>
      </trkpt>
      <trkpt lat="45.43158" lon="4.22295">
        <ele>728</ele>
        <time>2022-09-08T10:52:37Z</time>
      </trkpt>
      <trkpt lat="45.43103" lon="4.22155">
        <ele>727</ele>
        <time>2022-09-08T10:52:57Z</time>
      </trkpt>
      <trkpt lat="45.43089" lon="4.22073">
        <ele>727</ele>
        <time>2022-09-08T10:53:08Z</time>
      </trkpt>
      <trkpt lat="45.43077" lon="4.21935">
        <ele>724</ele>
        <time>2022-09-08T10:53:25Z</time>
      </trkpt>
      <trkpt lat="45.43043" lon="4.21854">
        <ele>720</ele>
        <time>2022-09-08T10:53:37Z</time>
      </trkpt>
      <trkpt lat="45.43021" lon="4.2183">
        <ele>719</ele>
        <time>2022-09-08T10:53:42Z</time>
      </trkpt>
      <trkpt lat="45.42994" lon="4.21841">
        <ele>719</ele>
        <time>2022-09-08T10:53:47Z</time>
      </trkpt>
      <trkpt lat="45.42975" lon="4.21843">
        <ele>719</ele>
        <time>2022-09-08T10:53:50Z</time>
      </trkpt>
      <trkpt lat="45.4296" lon="4.2184">
        <ele>720</ele>
        <time>2022-09-08T10:53:53Z</time>
      </trkpt>
      <trkpt lat="45.42927" lon="4.21813">
        <ele>720</ele>
        <time>2022-09-08T10:54:00Z</time>
      </trkpt>
      <trkpt lat="45.42888" lon="4.21773">
        <ele>721</ele>
        <time>2022-09-08T10:54:08Z</time>
      </trkpt>
      <trkpt lat="45.42842" lon="4.21718">
        <ele>722</ele>
        <time>2022-09-08T10:54:19Z</time>
      </trkpt>
      <trkpt lat="45.42796" lon="4.21673">
        <ele>724</ele>
        <time>2022-09-08T10:54:29Z</time>
      </trkpt>
      <trkpt lat="45.42703" lon="4.21619">
        <ele>727</ele>
        <time>2022-09-08T10:54:47Z</time>
      </trkpt>
      <trkpt lat="45.42661" lon="4.21581">
        <ele>727</ele>
        <time>2022-09-08T10:54:56Z</time>
      </trkpt>
      <trkpt lat="45.42621" lon="4.21523">
        <ele>727</ele>
        <time>2022-09-08T10:55:06Z</time>
      </trkpt>
      <trkpt lat="45.42583" lon="4.21477">
        <ele>727</ele>
        <time>2022-09-08T10:55:15Z</time>
      </trkpt>
      <trkpt lat="45.42546" lon="4.21453">
        <ele>727</ele>
        <time>2022-09-08T10:55:22Z</time>
      </trkpt>
      <trkpt lat="45.42512" lon="4.21447">
        <ele>727</ele>
        <time>2022-09-08T10:55:28Z</time>
      </trkpt>
      <trkpt lat="45.42425" lon="4.21423">
        <ele>729</ele>
        <time>2022-09-08T10:55:44Z</time>
      </trkpt>
      <trkpt lat="45.42388" lon="4.21425">
        <ele>731</ele>
        <time>2022-09-08T10:55:50Z</time>
      </trkpt>
      <trkpt lat="45.42359" lon="4.21434">
        <ele>733</ele>
        <time>2022-09-08T10:55:56Z</time>
      </trkpt>
      <trkpt lat="45.42319" lon="4.21451">
        <ele>735</ele>
        <time>2022-09-08T10:56:03Z</time>
      </trkpt>
      <trkpt lat="45.42282" lon="4.21456">
        <ele>737</ele>
        <time>2022-09-08T10:56:10Z</time>
      </trkpt>
      <trkpt lat="45.42247" lon="4.21446">
        <ele>738</ele>
        <time>2022-09-08T10:56:16Z</time>
      </trkpt>
      <trkpt lat="45.42207" lon="4.21449">
        <ele>739</ele>
        <time>2022-09-08T10:56:23Z</time>
      </trkpt>
      <trkpt lat="45.42154" lon="4.21495">
        <ele>740</ele>
        <time>2022-09-08T10:56:34Z</time>
      </trkpt>
      <trkpt lat="45.42124" lon="4.21504">
        <ele>740</ele>
        <time>2022-09-08T10:56:40Z</time>
      </trkpt>
      <trkpt lat="45.42082" lon="4.21495">
        <ele>740</ele>
        <time>2022-09-08T10:56:47Z</time>
      </trkpt>
      <trkpt lat="45.42037" lon="4.21482">
        <ele>740</ele>
        <time>2022-09-08T10:56:55Z</time>
      </trkpt>
      <trkpt lat="45.41971" lon="4.21452">
        <ele>740</ele>
        <time>2022-09-08T10:57:08Z</time>
      </trkpt>
      <trkpt lat="45.4194" lon="4.21441">
        <ele>741</ele>
        <time>2022-09-08T10:57:13Z</time>
      </trkpt>
      <trkpt lat="45.4188" lon="4.21449">
        <ele>742</ele>
        <time>2022-09-08T10:57:24Z</time>
      </trkpt>
      <trkpt lat="45.41812" lon="4.21452">
        <ele>744</ele>
        <time>2022-09-08T10:57:36Z</time>
      </trkpt>
      <trkpt lat="45.41757" lon="4.21462">
        <ele>747</ele>
        <time>2022-09-08T10:57:46Z</time>
      </trkpt>
      <trkpt lat="45.4163" lon="4.21491">
        <ele>759</ele>
        <time>2022-09-08T10:58:09Z</time>
      </trkpt>
      <trkpt lat="45.4159" lon="4.21503">
        <ele>763</ele>
        <time>2022-09-08T10:58:16Z</time>
      </trkpt>
      <trkpt lat="45.41562" lon="4.21503">
        <ele>765</ele>
        <time>2022-09-08T10:58:21Z</time>
      </trkpt>
      <trkpt lat="45.41541" lon="4.21496">
        <ele>765</ele>
        <time>2022-09-08T10:58:25Z</time>
      </trkpt>
      <trkpt lat="45.4153" lon="4.21486">
        <ele>766</ele>
        <time>2022-09-08T10:58:27Z</time>
      </trkpt>
      <trkpt lat="45.41517" lon="4.21448">
        <ele>766</ele>
        <time>2022-09-08T10:58:33Z</time>
      </trkpt>
      <trkpt lat="45.41514" lon="4.21374">
        <ele>764</ele>
        <time>2022-09-08T10:58:42Z</time>
      </trkpt>
      <trkpt lat="45.41504" lon="4.2131">
        <ele>763</ele>
        <time>2022-09-08T10:58:50Z</time>
      </trkpt>
      <trkpt lat="45.41503" lon="4.21252">
        <ele>762</ele>
        <time>2022-09-08T10:58:57Z</time>
      </trkpt>
      <trkpt lat="45.41498" lon="4.21236">
        <ele>761</ele>
        <time>2022-09-08T10:59:00Z</time>
      </trkpt>
      <trkpt lat="45.4148" lon="4.2122">
        <ele>761</ele>
        <time>2022-09-08T10:59:03Z</time>
      </trkpt>
      <trkpt lat="45.41456" lon="4.21206">
        <ele>760</ele>
        <time>2022-09-08T10:59:08Z</time>
      </trkpt>
      <trkpt lat="45.41419" lon="4.21196">
        <ele>759</ele>
        <time>2022-09-08T10:59:15Z</time>
      </trkpt>
      <trkpt lat="45.41388" lon="4.2118">
        <ele>758</ele>
        <time>2022-09-08T10:59:21Z</time>
      </trkpt>
      <trkpt lat="45.41331" lon="4.21137">
        <ele>754</ele>
        <time>2022-09-08T10:59:32Z</time>
      </trkpt>
      <trkpt lat="45.41318" lon="4.2112">
        <ele>754</ele>
        <time>2022-09-08T10:59:35Z</time>
      </trkpt>
      <trkpt lat="45.41287" lon="4.2106">
        <ele>753</ele>
        <time>2022-09-08T10:59:44Z</time>
      </trkpt>
      <trkpt lat="45.41267" lon="4.21008">
        <ele>754</ele>
        <time>2022-09-08T10:59:52Z</time>
      </trkpt>
      <trkpt lat="45.41249" lon="4.20947">
        <ele>754</ele>
        <time>2022-09-08T11:00:00Z</time>
      </trkpt>
      <trkpt lat="45.41234" lon="4.20921">
        <ele>753</ele>
        <time>2022-09-08T11:00:04Z</time>
      </trkpt>
      <trkpt lat="45.41224" lon="4.20908">
        <ele>753</ele>
        <time>2022-09-08T11:00:07Z</time>
      </trkpt>
      <trkpt lat="45.41155" lon="4.20861">
        <ele>754</ele>
        <time>2022-09-08T11:00:20Z</time>
      </trkpt>
      <trkpt lat="45.41115" lon="4.20828">
        <ele>753</ele>
        <time>2022-09-08T11:00:29Z</time>
      </trkpt>
      <trkpt lat="45.41059" lon="4.20764">
        <ele>751</ele>
        <time>2022-09-08T11:00:41Z</time>
      </trkpt>
      <trkpt lat="45.41035" lon="4.20726">
        <ele>751</ele>
        <time>2022-09-08T11:00:48Z</time>
      </trkpt>
      <trkpt lat="45.41024" lon="4.20722">
        <ele>751</ele>
        <time>2022-09-08T11:00:50Z</time>
      </trkpt>
      <trkpt lat="45.40998" lon="4.20734">
        <ele>750</ele>
        <time>2022-09-08T11:00:55Z</time>
      </trkpt>
      <trkpt lat="45.40981" lon="4.20748">
        <ele>750</ele>
        <time>2022-09-08T11:00:58Z</time>
      </trkpt>
      <trkpt lat="45.40976" lon="4.20747">
        <ele>750</ele>
        <time>2022-09-08T11:00:59Z</time>
      </trkpt>
      <trkpt lat="45.40981" lon="4.20748">
        <ele>750</ele>
        <time>2022-09-08T11:01:00Z</time>
      </trkpt>
      <trkpt lat="45.40945" lon="4.2059">
        <ele>754</ele>
        <time>2022-09-08T11:01:21Z</time>
      </trkpt>
      <trkpt lat="45.40832" lon="4.20137">
        <ele>764</ele>
        <time>2022-09-08T11:02:21Z</time>
      </trkpt>
      <trkpt lat="45.40827" lon="4.20084">
        <ele>765</ele>
        <time>2022-09-08T11:02:27Z</time>
      </trkpt>
      <trkpt lat="45.40822" lon="4.19848">
        <ele>774</ele>
        <time>2022-09-08T11:02:57Z</time>
      </trkpt>
      <trkpt lat="45.40816" lon="4.19765">
        <ele>776</ele>
        <time>2022-09-08T11:03:07Z</time>
      </trkpt>
      <trkpt lat="45.40805" lon="4.19692">
        <ele>777</ele>
        <time>2022-09-08T11:03:17Z</time>
      </trkpt>
      <trkpt lat="45.40795" lon="4.19657">
        <ele>777</ele>
        <time>2022-09-08T11:03:21Z</time>
      </trkpt>
      <trkpt lat="45.40781" lon="4.19616">
        <ele>776</ele>
        <time>2022-09-08T11:03:27Z</time>
      </trkpt>
      <trkpt lat="45.40741" lon="4.19542">
        <ele>775</ele>
        <time>2022-09-08T11:03:39Z</time>
      </trkpt>
      <trkpt lat="45.40473" lon="4.19163">
        <ele>777</ele>
        <time>2022-09-08T11:04:46Z</time>
      </trkpt>
      <trkpt lat="45.40453" lon="4.1913">
        <ele>778</ele>
        <time>2022-09-08T11:04:51Z</time>
      </trkpt>
      <trkpt lat="45.40436" lon="4.19093">
        <ele>779</ele>
        <time>2022-09-08T11:04:57Z</time>
      </trkpt>
      <trkpt lat="45.40372" lon="4.18904">
        <ele>785</ele>
        <time>2022-09-08T11:05:23Z</time>
      </trkpt>
      <trkpt lat="45.40364" lon="4.18911">
        <ele>785</ele>
        <time>2022-09-08T11:05:25Z</time>
      </trkpt>
      <trkpt lat="45.40354" lon="4.18911">
        <ele>786</ele>
        <time>2022-09-08T11:05:27Z</time>
      </trkpt>
      <trkpt lat="45.40336" lon="4.18889">
        <ele>787</ele>
        <time>2022-09-08T11:05:31Z</time>
      </trkpt>
      <trkpt lat="45.40303" lon="4.18839">
        <ele>787</ele>
        <time>2022-09-08T11:05:39Z</time>
      </trkpt>
      <trkpt lat="45.4027" lon="4.18538">
        <ele>794</ele>
        <time>2022-09-08T11:06:17Z</time>
      </trkpt>
      <trkpt lat="45.40243" lon="4.1833">
        <ele>799</ele>
        <time>2022-09-08T11:06:44Z</time>
      </trkpt>
      <trkpt lat="45.4024" lon="4.18323">
        <ele>798</ele>
        <time>2022-09-08T11:06:45Z</time>
      </trkpt>
      <trkpt lat="45.40211" lon="4.18287">
        <ele>796</ele>
        <time>2022-09-08T11:06:52Z</time>
      </trkpt>
      <trkpt lat="45.40194" lon="4.18258">
        <ele>795</ele>
        <time>2022-09-08T11:06:56Z</time>
      </trkpt>
      <trkpt lat="45.4019" lon="4.18228">
        <ele>793</ele>
        <time>2022-09-08T11:07:00Z</time>
      </trkpt>
      <trkpt lat="45.40191" lon="4.18213">
        <ele>792</ele>
        <time>2022-09-08T11:07:02Z</time>
      </trkpt>
      <trkpt lat="45.40181" lon="4.1821">
        <ele>791</ele>
        <time>2022-09-08T11:07:04Z</time>
      </trkpt>
      <trkpt lat="45.40148" lon="4.1819">
        <ele>789</ele>
        <time>2022-09-08T11:07:10Z</time>
      </trkpt>
      <trkpt lat="45.40148" lon="4.18173">
        <ele>788</ele>
        <time>2022-09-08T11:07:12Z</time>
      </trkpt>
      <trkpt lat="45.40115" lon="4.18092">
        <ele>781</ele>
        <time>2022-09-08T11:07:24Z</time>
      </trkpt>
      <trkpt lat="45.40107" lon="4.18083">
        <ele>781</ele>
        <time>2022-09-08T11:07:26Z</time>
      </trkpt>
      <trkpt lat="45.40069" lon="4.18062">
        <ele>781</ele>
        <time>2022-09-08T11:07:33Z</time>
      </trkpt>
      <trkpt lat="45.40057" lon="4.18041">
        <ele>781</ele>
        <time>2022-09-08T11:07:37Z</time>
      </trkpt>
      <trkpt lat="45.4004" lon="4.18">
        <ele>781</ele>
        <time>2022-09-08T11:07:43Z</time>
      </trkpt>
      <trkpt lat="45.40045" lon="4.17967">
        <ele>780</ele>
        <time>2022-09-08T11:07:47Z</time>
      </trkpt>
      <trkpt lat="45.40067" lon="4.17894">
        <ele>778</ele>
        <time>2022-09-08T11:07:57Z</time>
      </trkpt>
      <trkpt lat="45.40079" lon="4.17826">
        <ele>775</ele>
        <time>2022-09-08T11:08:05Z</time>
      </trkpt>
      <trkpt lat="45.40088" lon="4.17709">
        <ele>774</ele>
        <time>2022-09-08T11:08:20Z</time>
      </trkpt>
      <trkpt lat="45.40086" lon="4.17653">
        <ele>772</ele>
        <time>2022-09-08T11:08:27Z</time>
      </trkpt>
      <trkpt lat="45.40082" lon="4.17636">
        <ele>771</ele>
        <time>2022-09-08T11:08:29Z</time>
      </trkpt>
      <trkpt lat="45.40077" lon="4.17622">
        <ele>770</ele>
        <time>2022-09-08T11:08:31Z</time>
      </trkpt>
      <trkpt lat="45.4007" lon="4.17613">
        <ele>770</ele>
        <time>2022-09-08T11:08:33Z</time>
      </trkpt>
      <trkpt lat="45.39995" lon="4.1754">
        <ele>769</ele>
        <time>2022-09-08T11:08:49Z</time>
      </trkpt>
      <trkpt lat="45.39979" lon="4.17527">
        <ele>768</ele>
        <time>2022-09-08T11:08:52Z</time>
      </trkpt>
      <trkpt lat="45.39967" lon="4.17521">
        <ele>768</ele>
        <time>2022-09-08T11:08:55Z</time>
      </trkpt>
      <trkpt lat="45.39924" lon="4.17512">
        <ele>768</ele>
        <time>2022-09-08T11:09:02Z</time>
      </trkpt>
      <trkpt lat="45.39909" lon="4.17504">
        <ele>768</ele>
        <time>2022-09-08T11:09:05Z</time>
      </trkpt>
      <trkpt lat="45.39898" lon="4.17494">
        <ele>768</ele>
        <time>2022-09-08T11:09:08Z</time>
      </trkpt>
      <trkpt lat="45.39892" lon="4.17477">
        <ele>769</ele>
        <time>2022-09-08T11:09:10Z</time>
      </trkpt>
      <trkpt lat="45.39888" lon="4.17447">
        <ele>770</ele>
        <time>2022-09-08T11:09:14Z</time>
      </trkpt>
      <trkpt lat="45.3989" lon="4.17428">
        <ele>771</ele>
        <time>2022-09-08T11:09:16Z</time>
      </trkpt>
      <trkpt lat="45.39902" lon="4.17389">
        <ele>771</ele>
        <time>2022-09-08T11:09:22Z</time>
      </trkpt>
      <trkpt lat="45.39916" lon="4.17357">
        <ele>771</ele>
        <time>2022-09-08T11:09:26Z</time>
      </trkpt>
      <trkpt lat="45.39969" lon="4.1726">
        <ele>770</ele>
        <time>2022-09-08T11:09:42Z</time>
      </trkpt>
      <trkpt lat="45.39978" lon="4.17238">
        <ele>769</ele>
        <time>2022-09-08T11:09:45Z</time>
      </trkpt>
      <trkpt lat="45.39981" lon="4.17222">
        <ele>769</ele>
        <time>2022-09-08T11:09:47Z</time>
      </trkpt>
      <trkpt lat="45.39983" lon="4.17202">
        <ele>769</ele>
        <time>2022-09-08T11:09:49Z</time>
      </trkpt>
      <trkpt lat="45.39975" lon="4.1713">
        <ele>772</ele>
        <time>2022-09-08T11:09:58Z</time>
      </trkpt>
      <trkpt lat="45.39976" lon="4.17112">
        <ele>773</ele>
        <time>2022-09-08T11:10:01Z</time>
      </trkpt>
      <trkpt lat="45.39991" lon="4.17041">
        <ele>772</ele>
        <time>2022-09-08T11:10:10Z</time>
      </trkpt>
      <trkpt lat="45.40006" lon="4.16869">
        <ele>773</ele>
        <time>2022-09-08T11:10:32Z</time>
      </trkpt>
      <trkpt lat="45.4" lon="4.16679">
        <ele>768</ele>
        <time>2022-09-08T11:10:55Z</time>
      </trkpt>
      <trkpt lat="45.40016" lon="4.16359">
        <ele>766</ele>
        <time>2022-09-08T11:11:35Z</time>
      </trkpt>
      <trkpt lat="45.40016" lon="4.16324">
        <ele>765</ele>
        <time>2022-09-08T11:11:40Z</time>
      </trkpt>
      <trkpt lat="45.40013" lon="4.16298">
        <ele>764</ele>
        <time>2022-09-08T11:11:43Z</time>
      </trkpt>
      <trkpt lat="45.39995" lon="4.16218">
        <ele>760</ele>
        <time>2022-09-08T11:11:54Z</time>
      </trkpt>
      <trkpt lat="45.39971" lon="4.16151">
        <ele>757</ele>
        <time>2022-09-08T11:12:03Z</time>
      </trkpt>
      <trkpt lat="45.39954" lon="4.1612">
        <ele>756</ele>
        <time>2022-09-08T11:12:08Z</time>
      </trkpt>
      <trkpt lat="45.39911" lon="4.16063">
        <ele>752</ele>
        <time>2022-09-08T11:12:18Z</time>
      </trkpt>
      <trkpt lat="45.39888" lon="4.16044">
        <ele>750</ele>
        <time>2022-09-08T11:12:23Z</time>
      </trkpt>
      <trkpt lat="45.39857" lon="4.16025">
        <ele>748</ele>
        <time>2022-09-08T11:12:29Z</time>
      </trkpt>
      <trkpt lat="45.39769" lon="4.1599">
        <ele>745</ele>
        <time>2022-09-08T11:12:45Z</time>
      </trkpt>
      <trkpt lat="45.39746" lon="4.15965">
        <ele>742</ele>
        <time>2022-09-08T11:12:51Z</time>
      </trkpt>
      <trkpt lat="45.39733" lon="4.15942">
        <ele>740</ele>
        <time>2022-09-08T11:12:54Z</time>
      </trkpt>
      <trkpt lat="45.39722" lon="4.15908">
        <ele>738</ele>
        <time>2022-09-08T11:12:59Z</time>
      </trkpt>
      <trkpt lat="45.3972" lon="4.15892">
        <ele>737</ele>
        <time>2022-09-08T11:13:01Z</time>
      </trkpt>
      <trkpt lat="45.39721" lon="4.15847">
        <ele>735</ele>
        <time>2022-09-08T11:13:07Z</time>
      </trkpt>
      <trkpt lat="45.39732" lon="4.15781">
        <ele>735</ele>
        <time>2022-09-08T11:13:15Z</time>
      </trkpt>
      <trkpt lat="45.39744" lon="4.15745">
        <ele>735</ele>
        <time>2022-09-08T11:13:20Z</time>
      </trkpt>
      <trkpt lat="45.39769" lon="4.15713">
        <ele>736</ele>
        <time>2022-09-08T11:13:26Z</time>
      </trkpt>
      <trkpt lat="45.39832" lon="4.15654">
        <ele>741</ele>
        <time>2022-09-08T11:13:39Z</time>
      </trkpt>
      <trkpt lat="45.39848" lon="4.15635">
        <ele>742</ele>
        <time>2022-09-08T11:13:43Z</time>
      </trkpt>
      <trkpt lat="45.39863" lon="4.15611">
        <ele>742</ele>
        <time>2022-09-08T11:13:47Z</time>
      </trkpt>
      <trkpt lat="45.39881" lon="4.15571">
        <ele>742</ele>
        <time>2022-09-08T11:13:53Z</time>
      </trkpt>
      <trkpt lat="45.39934" lon="4.1541">
        <ele>746</ele>
        <time>2022-09-08T11:14:15Z</time>
      </trkpt>
      <trkpt lat="45.3996" lon="4.15315">
        <ele>745</ele>
        <time>2022-09-08T11:14:28Z</time>
      </trkpt>
      <trkpt lat="45.39962" lon="4.15281">
        <ele>745</ele>
        <time>2022-09-08T11:14:32Z</time>
      </trkpt>
      <trkpt lat="45.3996" lon="4.15248">
        <ele>746</ele>
        <time>2022-09-08T11:14:36Z</time>
      </trkpt>
      <trkpt lat="45.39938" lon="4.15112">
        <ele>748</ele>
        <time>2022-09-08T11:14:54Z</time>
      </trkpt>
      <trkpt lat="45.39922" lon="4.15037">
        <ele>749</ele>
        <time>2022-09-08T11:15:04Z</time>
      </trkpt>
      <trkpt lat="45.39888" lon="4.14928">
        <ele>748</ele>
        <time>2022-09-08T11:15:19Z</time>
      </trkpt>
      <trkpt lat="45.39884" lon="4.14894">
        <ele>748</ele>
        <time>2022-09-08T11:15:23Z</time>
      </trkpt>
      <trkpt lat="45.39886" lon="4.14863">
        <ele>748</ele>
        <time>2022-09-08T11:15:27Z</time>
      </trkpt>
      <trkpt lat="45.39906" lon="4.14797">
        <ele>746</ele>
        <time>2022-09-08T11:15:36Z</time>
      </trkpt>
      <trkpt lat="45.39925" lon="4.14744">
        <ele>745</ele>
        <time>2022-09-08T11:15:43Z</time>
      </trkpt>
      <trkpt lat="45.3994" lon="4.14716">
        <ele>745</ele>
        <time>2022-09-08T11:15:48Z</time>
      </trkpt>
      <trkpt lat="45.39956" lon="4.14694">
        <ele>745</ele>
        <time>2022-09-08T11:15:52Z</time>
      </trkpt>
      <trkpt lat="45.39973" lon="4.14676">
        <ele>744</ele>
        <time>2022-09-08T11:15:55Z</time>
      </trkpt>
      <trkpt lat="45.40021" lon="4.1465">
        <ele>743</ele>
        <time>2022-09-08T11:16:04Z</time>
      </trkpt>
      <trkpt lat="45.40064" lon="4.1463">
        <ele>742</ele>
        <time>2022-09-08T11:16:12Z</time>
      </trkpt>
      <trkpt lat="45.40109" lon="4.14614">
        <ele>741</ele>
        <time>2022-09-08T11:16:21Z</time>
      </trkpt>
      <trkpt lat="45.40188" lon="4.14568">
        <ele>740</ele>
        <time>2022-09-08T11:16:36Z</time>
      </trkpt>
      <trkpt lat="45.40289" lon="4.14523">
        <ele>732</ele>
        <time>2022-09-08T11:16:55Z</time>
      </trkpt>
      <trkpt lat="45.40333" lon="4.14512">
        <ele>726</ele>
        <time>2022-09-08T11:17:03Z</time>
      </trkpt>
      <trkpt lat="45.40346" lon="4.14504">
        <ele>725</ele>
        <time>2022-09-08T11:17:05Z</time>
      </trkpt>
      <trkpt lat="45.40373" lon="4.14481">
        <ele>721</ele>
        <time>2022-09-08T11:17:11Z</time>
      </trkpt>
      <trkpt lat="45.40388" lon="4.14465">
        <ele>719</ele>
        <time>2022-09-08T11:17:14Z</time>
      </trkpt>
      <trkpt lat="45.40398" lon="4.14446">
        <ele>718</ele>
        <time>2022-09-08T11:17:17Z</time>
      </trkpt>
      <trkpt lat="45.40403" lon="4.14406">
        <ele>717</ele>
        <time>2022-09-08T11:17:22Z</time>
      </trkpt>
      <trkpt lat="45.40391" lon="4.14282">
        <ele>713</ele>
        <time>2022-09-08T11:17:38Z</time>
      </trkpt>
      <trkpt lat="45.40375" lon="4.14221">
        <ele>711</ele>
        <time>2022-09-08T11:17:46Z</time>
      </trkpt>
      <trkpt lat="45.4036" lon="4.14197">
        <ele>711</ele>
        <time>2022-09-08T11:17:50Z</time>
      </trkpt>
      <trkpt lat="45.40342" lon="4.14181">
        <ele>711</ele>
        <time>2022-09-08T11:17:54Z</time>
      </trkpt>
      <trkpt lat="45.40259" lon="4.14127">
        <ele>707</ele>
        <time>2022-09-08T11:18:10Z</time>
      </trkpt>
      <trkpt lat="45.40238" lon="4.14111">
        <ele>706</ele>
        <time>2022-09-08T11:18:14Z</time>
      </trkpt>
      <trkpt lat="45.40231" lon="4.14102">
        <ele>706</ele>
        <time>2022-09-08T11:18:16Z</time>
      </trkpt>
      <trkpt lat="45.40229" lon="4.14085">
        <ele>704</ele>
        <time>2022-09-08T11:18:18Z</time>
      </trkpt>
      <trkpt lat="45.40233" lon="4.14076">
        <ele>704</ele>
        <time>2022-09-08T11:18:19Z</time>
      </trkpt>
      <trkpt lat="45.40241" lon="4.14068">
        <ele>704</ele>
        <time>2022-09-08T11:18:21Z</time>
      </trkpt>
      <trkpt lat="45.40265" lon="4.1406">
        <ele>704</ele>
        <time>2022-09-08T11:18:26Z</time>
      </trkpt>
      <trkpt lat="45.40332" lon="4.14051">
        <ele>700</ele>
        <time>2022-09-08T11:18:37Z</time>
      </trkpt>
      <trkpt lat="45.40358" lon="4.14043">
        <ele>698</ele>
        <time>2022-09-08T11:18:42Z</time>
      </trkpt>
      <trkpt lat="45.40397" lon="4.14014">
        <ele>694</ele>
        <time>2022-09-08T11:18:50Z</time>
      </trkpt>
      <trkpt lat="45.40407" lon="4.14002">
        <ele>692</ele>
        <time>2022-09-08T11:18:52Z</time>
      </trkpt>
      <trkpt lat="45.40423" lon="4.13975">
        <ele>691</ele>
        <time>2022-09-08T11:18:57Z</time>
      </trkpt>
      <trkpt lat="45.40462" lon="4.1387">
        <ele>694</ele>
        <time>2022-09-08T11:19:12Z</time>
      </trkpt>
      <trkpt lat="45.40473" lon="4.13855">
        <ele>695</ele>
        <time>2022-09-08T11:19:14Z</time>
      </trkpt>
      <trkpt lat="45.40485" lon="4.13845">
        <ele>696</ele>
        <time>2022-09-08T11:19:17Z</time>
      </trkpt>
      <trkpt lat="45.40498" lon="4.13838">
        <ele>697</ele>
        <time>2022-09-08T11:19:19Z</time>
      </trkpt>
      <trkpt lat="45.4052" lon="4.13833">
        <ele>698</ele>
        <time>2022-09-08T11:19:23Z</time>
      </trkpt>
      <trkpt lat="45.40593" lon="4.13844">
        <ele>703</ele>
        <time>2022-09-08T11:19:36Z</time>
      </trkpt>
      <trkpt lat="45.40603" lon="4.13844">
        <ele>704</ele>
        <time>2022-09-08T11:19:38Z</time>
      </trkpt>
      <trkpt lat="45.40613" lon="4.13835">
        <ele>706</ele>
        <time>2022-09-08T11:19:40Z</time>
      </trkpt>
      <trkpt lat="45.40616" lon="4.13827">
        <ele>707</ele>
        <time>2022-09-08T11:19:41Z</time>
      </trkpt>
      <trkpt lat="45.40616" lon="4.13811">
        <ele>707</ele>
        <time>2022-09-08T11:19:43Z</time>
      </trkpt>
      <trkpt lat="45.40575" lon="4.13732">
        <ele>707</ele>
        <time>2022-09-08T11:19:56Z</time>
      </trkpt>
      <trkpt lat="45.40568" lon="4.13702">
        <ele>708</ele>
        <time>2022-09-08T11:20:00Z</time>
      </trkpt>
      <trkpt lat="45.40569" lon="4.13684">
        <ele>709</ele>
        <time>2022-09-08T11:20:02Z</time>
      </trkpt>
      <trkpt lat="45.40627" lon="4.13517">
        <ele>721</ele>
        <time>2022-09-08T11:20:25Z</time>
      </trkpt>
      <trkpt lat="45.40641" lon="4.13463">
        <ele>724</ele>
        <time>2022-09-08T11:20:32Z</time>
      </trkpt>
      <trkpt lat="45.40651" lon="4.13407">
        <ele>726</ele>
        <time>2022-09-08T11:20:39Z</time>
      </trkpt>
      <trkpt lat="45.4066" lon="4.13373">
        <ele>727</ele>
        <time>2022-09-08T11:20:44Z</time>
      </trkpt>
      <trkpt lat="45.40682" lon="4.13312">
        <ele>727</ele>
        <time>2022-09-08T11:20:53Z</time>
      </trkpt>
      <trkpt lat="45.40715" lon="4.13246">
        <ele>727</ele>
        <time>2022-09-08T11:21:03Z</time>
      </trkpt>
      <trkpt lat="45.4073" lon="4.13209">
        <ele>726</ele>
        <time>2022-09-08T11:21:08Z</time>
      </trkpt>
      <trkpt lat="45.40754" lon="4.13123">
        <ele>724</ele>
        <time>2022-09-08T11:21:20Z</time>
      </trkpt>
      <trkpt lat="45.4076" lon="4.13036">
        <ele>722</ele>
        <time>2022-09-08T11:21:31Z</time>
      </trkpt>
      <trkpt lat="45.40758" lon="4.12936">
        <ele>721</ele>
        <time>2022-09-08T11:21:43Z</time>
      </trkpt>
      <trkpt lat="45.40795" lon="4.12946">
        <ele>721</ele>
        <time>2022-09-08T11:21:50Z</time>
      </trkpt>
      <trkpt lat="45.40831" lon="4.12949">
        <ele>720</ele>
        <time>2022-09-08T11:21:56Z</time>
      </trkpt>
      <trkpt lat="45.40868" lon="4.12949">
        <ele>722</ele>
        <time>2022-09-08T11:22:03Z</time>
      </trkpt>
      <trkpt lat="45.40896" lon="4.12954">
        <ele>723</ele>
        <time>2022-09-08T11:22:08Z</time>
      </trkpt>
      <trkpt lat="45.40995" lon="4.13005">
        <ele>724</ele>
        <time>2022-09-08T11:22:26Z</time>
      </trkpt>
      <trkpt lat="45.41058" lon="4.13051">
        <ele>724</ele>
        <time>2022-09-08T11:22:39Z</time>
      </trkpt>
      <trkpt lat="45.41135" lon="4.13094">
        <ele>724</ele>
        <time>2022-09-08T11:22:54Z</time>
      </trkpt>
      <trkpt lat="45.41199" lon="4.13144">
        <ele>722</ele>
        <time>2022-09-08T11:23:07Z</time>
      </trkpt>
      <trkpt lat="45.41219" lon="4.13156">
        <ele>722</ele>
        <time>2022-09-08T11:23:11Z</time>
      </trkpt>
      <trkpt lat="45.41233" lon="4.13158">
        <ele>721</ele>
        <time>2022-09-08T11:23:13Z</time>
      </trkpt>
      <trkpt lat="45.41319" lon="4.13142">
        <ele>719</ele>
        <time>2022-09-08T11:23:29Z</time>
      </trkpt>
      <trkpt lat="45.41409" lon="4.13131">
        <ele>716</ele>
        <time>2022-09-08T11:23:45Z</time>
      </trkpt>
      <trkpt lat="45.4143" lon="4.13137">
        <ele>715</ele>
        <time>2022-09-08T11:23:48Z</time>
      </trkpt>
      <trkpt lat="45.41486" lon="4.13134">
        <ele>714</ele>
        <time>2022-09-08T11:23:58Z</time>
      </trkpt>
      <trkpt lat="45.41526" lon="4.13149">
        <ele>712</ele>
        <time>2022-09-08T11:24:06Z</time>
      </trkpt>
      <trkpt lat="45.41547" lon="4.13154">
        <ele>711</ele>
        <time>2022-09-08T11:24:10Z</time>
      </trkpt>
      <trkpt lat="45.41553" lon="4.13159">
        <ele>711</ele>
        <time>2022-09-08T11:24:11Z</time>
      </trkpt>
      <trkpt lat="45.41558" lon="4.13183">
        <ele>710</ele>
        <time>2022-09-08T11:24:14Z</time>
      </trkpt>
      <trkpt lat="45.41554" lon="4.13239">
        <ele>709</ele>
        <time>2022-09-08T11:24:21Z</time>
      </trkpt>
      <trkpt lat="45.41556" lon="4.13257">
        <ele>708</ele>
        <time>2022-09-08T11:24:23Z</time>
      </trkpt>
      <trkpt lat="45.41561" lon="4.13273">
        <ele>707</ele>
        <time>2022-09-08T11:24:25Z</time>
      </trkpt>
      <trkpt lat="45.41575" lon="4.133">
        <ele>705</ele>
        <time>2022-09-08T11:24:30Z</time>
      </trkpt>
      <trkpt lat="45.416" lon="4.13319">
        <ele>702</ele>
        <time>2022-09-08T11:24:35Z</time>
      </trkpt>
      <trkpt lat="45.41643" lon="4.13331">
        <ele>699</ele>
        <time>2022-09-08T11:24:42Z</time>
      </trkpt>
      <trkpt lat="45.41677" lon="4.13349">
        <ele>698</ele>
        <time>2022-09-08T11:24:49Z</time>
      </trkpt>
      <trkpt lat="45.41695" lon="4.13366">
        <ele>698</ele>
        <time>2022-09-08T11:24:53Z</time>
      </trkpt>
      <trkpt lat="45.41708" lon="4.13383">
        <ele>698</ele>
        <time>2022-09-08T11:24:56Z</time>
      </trkpt>
      <trkpt lat="45.41723" lon="4.13411">
        <ele>699</ele>
        <time>2022-09-08T11:25:00Z</time>
      </trkpt>
      <trkpt lat="45.41732" lon="4.13443">
        <ele>698</ele>
        <time>2022-09-08T11:25:05Z</time>
      </trkpt>
      <trkpt lat="45.41768" lon="4.13652">
        <ele>696</ele>
        <time>2022-09-08T11:25:31Z</time>
      </trkpt>
      <trkpt lat="45.41776" lon="4.13739">
        <ele>694</ele>
        <time>2022-09-08T11:25:42Z</time>
      </trkpt>
      <trkpt lat="45.41839" lon="4.13861">
        <ele>688</ele>
        <time>2022-09-08T11:26:01Z</time>
      </trkpt>
      <trkpt lat="45.4186" lon="4.13919">
        <ele>686</ele>
        <time>2022-09-08T11:26:10Z</time>
      </trkpt>
      <trkpt lat="45.41883" lon="4.14048">
        <ele>684</ele>
        <time>2022-09-08T11:26:26Z</time>
      </trkpt>
      <trkpt lat="45.41898" lon="4.14193">
        <ele>684</ele>
        <time>2022-09-08T11:26:44Z</time>
      </trkpt>
      <trkpt lat="45.41912" lon="4.14244">
        <ele>684</ele>
        <time>2022-09-08T11:26:51Z</time>
      </trkpt>
      <trkpt lat="45.41948" lon="4.14334">
        <ele>684</ele>
        <time>2022-09-08T11:27:04Z</time>
      </trkpt>
      <trkpt lat="45.41963" lon="4.14366">
        <ele>684</ele>
        <time>2022-09-08T11:27:09Z</time>
      </trkpt>
      <trkpt lat="45.4199" lon="4.14409">
        <ele>685</ele>
        <time>2022-09-08T11:27:16Z</time>
      </trkpt>
      <trkpt lat="45.42043" lon="4.1448">
        <ele>684</ele>
        <time>2022-09-08T11:27:29Z</time>
      </trkpt>
      <trkpt lat="45.42123" lon="4.14594">
        <ele>681</ele>
        <time>2022-09-08T11:27:49Z</time>
      </trkpt>
      <trkpt lat="45.42167" lon="4.14643">
        <ele>679</ele>
        <time>2022-09-08T11:27:59Z</time>
      </trkpt>
      <trkpt lat="45.42253" lon="4.14768">
        <ele>677</ele>
        <time>2022-09-08T11:28:21Z</time>
      </trkpt>
      <trkpt lat="45.42267" lon="4.14791">
        <ele>678</ele>
        <time>2022-09-08T11:28:25Z</time>
      </trkpt>
      <trkpt lat="45.42312" lon="4.14894">
        <ele>679</ele>
        <time>2022-09-08T11:28:40Z</time>
      </trkpt>
      <trkpt lat="45.42327" lon="4.14942">
        <ele>679</ele>
        <time>2022-09-08T11:28:47Z</time>
      </trkpt>
      <trkpt lat="45.42381" lon="4.15264">
        <ele>684</ele>
        <time>2022-09-08T11:29:28Z</time>
      </trkpt>
      <trkpt lat="45.42411" lon="4.15383">
        <ele>686</ele>
        <time>2022-09-08T11:29:44Z</time>
      </trkpt>
      <trkpt lat="45.42495" lon="4.15804">
        <ele>676</ele>
        <time>2022-09-08T11:30:38Z</time>
      </trkpt>
      <trkpt lat="45.42533" lon="4.15917">
        <ele>673</ele>
        <time>2022-09-08T11:30:54Z</time>
      </trkpt>
      <trkpt lat="45.42544" lon="4.15946">
        <ele>672</ele>
        <time>2022-09-08T11:30:58Z</time>
      </trkpt>
      <trkpt lat="45.42555" lon="4.15966">
        <ele>672</ele>
        <time>2022-09-08T11:31:01Z</time>
      </trkpt>
      <trkpt lat="45.42631" lon="4.16046">
        <ele>672</ele>
        <time>2022-09-08T11:31:18Z</time>
      </trkpt>
      <trkpt lat="45.42674" lon="4.16065">
        <ele>672</ele>
        <time>2022-09-08T11:31:26Z</time>
      </trkpt>
      <trkpt lat="45.42713" lon="4.16076">
        <ele>672</ele>
        <time>2022-09-08T11:31:33Z</time>
      </trkpt>
      <trkpt lat="45.42763" lon="4.16099">
        <ele>673</ele>
        <time>2022-09-08T11:31:43Z</time>
      </trkpt>
      <trkpt lat="45.42874" lon="4.16173">
        <ele>671</ele>
        <time>2022-09-08T11:32:04Z</time>
      </trkpt>
      <trkpt lat="45.42887" lon="4.16177">
        <ele>671</ele>
        <time>2022-09-08T11:32:07Z</time>
      </trkpt>
      <trkpt lat="45.42954" lon="4.16169">
        <ele>670</ele>
        <time>2022-09-08T11:32:19Z</time>
      </trkpt>
      <trkpt lat="45.42967" lon="4.16173">
        <ele>670</ele>
        <time>2022-09-08T11:32:21Z</time>
      </trkpt>
      <trkpt lat="45.42981" lon="4.16182">
        <ele>669</ele>
        <time>2022-09-08T11:32:24Z</time>
      </trkpt>
      <trkpt lat="45.43018" lon="4.16215">
        <ele>669</ele>
        <time>2022-09-08T11:32:32Z</time>
      </trkpt>
      <trkpt lat="45.43022" lon="4.16224">
        <ele>669</ele>
        <time>2022-09-08T11:32:33Z</time>
      </trkpt>
      <trkpt lat="45.43031" lon="4.1622">
        <ele>669</ele>
        <time>2022-09-08T11:32:35Z</time>
      </trkpt>
      <trkpt lat="45.4311" lon="4.16208">
        <ele>669</ele>
        <time>2022-09-08T11:32:49Z</time>
      </trkpt>
      <trkpt lat="45.4313" lon="4.16198">
        <ele>671</ele>
        <time>2022-09-08T11:32:52Z</time>
      </trkpt>
      <trkpt lat="45.43142" lon="4.16186">
        <ele>671</ele>
        <time>2022-09-08T11:32:55Z</time>
      </trkpt>
      <trkpt lat="45.43191" lon="4.16097">
        <ele>671</ele>
        <time>2022-09-08T11:33:09Z</time>
      </trkpt>
      <trkpt lat="45.43224" lon="4.1602">
        <ele>673</ele>
        <time>2022-09-08T11:33:20Z</time>
      </trkpt>
      <trkpt lat="45.43243" lon="4.1594">
        <ele>671</ele>
        <time>2022-09-08T11:33:31Z</time>
      </trkpt>
      <trkpt lat="45.43284" lon="4.15853">
        <ele>668</ele>
        <time>2022-09-08T11:33:44Z</time>
      </trkpt>
      <trkpt lat="45.43292" lon="4.1584">
        <ele>668</ele>
        <time>2022-09-08T11:33:46Z</time>
      </trkpt>
      <trkpt lat="45.43301" lon="4.15831">
        <ele>668</ele>
        <time>2022-09-08T11:33:48Z</time>
      </trkpt>
      <trkpt lat="45.43346" lon="4.15797">
        <ele>667</ele>
        <time>2022-09-08T11:33:57Z</time>
      </trkpt>
      <trkpt lat="45.43364" lon="4.15796">
        <ele>666</ele>
        <time>2022-09-08T11:34:01Z</time>
      </trkpt>
      <trkpt lat="45.43372" lon="4.158">
        <ele>666</ele>
        <time>2022-09-08T11:34:02Z</time>
      </trkpt>
      <trkpt lat="45.4338" lon="4.15809">
        <ele>666</ele>
        <time>2022-09-08T11:34:04Z</time>
      </trkpt>
      <trkpt lat="45.43385" lon="4.1582">
        <ele>666</ele>
        <time>2022-09-08T11:34:05Z</time>
      </trkpt>
      <trkpt lat="45.43392" lon="4.15855">
        <ele>667</ele>
        <time>2022-09-08T11:34:10Z</time>
      </trkpt>
      <trkpt lat="45.43404" lon="4.15883">
        <ele>667</ele>
        <time>2022-09-08T11:34:14Z</time>
      </trkpt>
      <trkpt lat="45.43414" lon="4.15896">
        <ele>666</ele>
        <time>2022-09-08T11:34:17Z</time>
      </trkpt>
      <trkpt lat="45.43432" lon="4.15909">
        <ele>664</ele>
        <time>2022-09-08T11:34:20Z</time>
      </trkpt>
      <trkpt lat="45.43469" lon="4.15944">
        <ele>662</ele>
        <time>2022-09-08T11:34:28Z</time>
      </trkpt>
      <trkpt lat="45.43499" lon="4.15984">
        <ele>663</ele>
        <time>2022-09-08T11:34:35Z</time>
      </trkpt>
      <trkpt lat="45.43509" lon="4.15992">
        <ele>664</ele>
        <time>2022-09-08T11:34:37Z</time>
      </trkpt>
      <trkpt lat="45.43518" lon="4.15995">
        <ele>663</ele>
        <time>2022-09-08T11:34:39Z</time>
      </trkpt>
      <trkpt lat="45.43529" lon="4.15997">
        <ele>663</ele>
        <time>2022-09-08T11:34:41Z</time>
      </trkpt>
      <trkpt lat="45.4354" lon="4.15995">
        <ele>662</ele>
        <time>2022-09-08T11:34:43Z</time>
      </trkpt>
      <trkpt lat="45.43635" lon="4.15939">
        <ele>655</ele>
        <time>2022-09-08T11:35:01Z</time>
      </trkpt>
      <trkpt lat="45.43693" lon="4.15887">
        <ele>652</ele>
        <time>2022-09-08T11:35:13Z</time>
      </trkpt>
      <trkpt lat="45.43731" lon="4.15849">
        <ele>651</ele>
        <time>2022-09-08T11:35:22Z</time>
      </trkpt>
      <trkpt lat="45.43789" lon="4.15783">
        <ele>649</ele>
        <time>2022-09-08T11:35:35Z</time>
      </trkpt>
      <trkpt lat="45.43823" lon="4.15731">
        <ele>649</ele>
        <time>2022-09-08T11:35:44Z</time>
      </trkpt>
      <trkpt lat="45.43849" lon="4.15712">
        <ele>648</ele>
        <time>2022-09-08T11:35:49Z</time>
      </trkpt>
      <trkpt lat="45.43878" lon="4.15704">
        <ele>646</ele>
        <time>2022-09-08T11:35:54Z</time>
      </trkpt>
      <trkpt lat="45.439" lon="4.15685">
        <ele>646</ele>
        <time>2022-09-08T11:35:59Z</time>
      </trkpt>
      <trkpt lat="45.43904" lon="4.15676">
        <ele>646.5</ele>
        <extensions>
          <visugpx:TrkExtension xmlns:visugpx="https://www.visugpx.com/editgpx/">
            <visugpx:node>7</visugpx:node>
            </visugpx:TrkExtension>
        </extensions>
      </trkpt>
      <trkpt lat="45.43904" lon="4.15676">
        <ele>646.5</ele>
      </trkpt>
      <trkpt lat="45.43915" lon="4.15653">
        <ele>646</ele>
      </trkpt>
      <trkpt lat="45.43925" lon="4.15626">
        <ele>645.4</ele>
      </trkpt>
      <trkpt lat="45.43933" lon="4.15615">
        <ele>645.1</ele>
      </trkpt>
      <trkpt lat="45.4394" lon="4.15608">
        <ele>644.9</ele>
      </trkpt>
      <trkpt lat="45.4395" lon="4.15603">
        <ele>644.6</ele>
      </trkpt>
      <trkpt lat="45.43962" lon="4.15601">
        <ele>644.2</ele>
      </trkpt>
      <trkpt lat="45.44002" lon="4.15598">
        <ele>643.5</ele>
      </trkpt>
      <trkpt lat="45.44025" lon="4.15598">
        <ele>643.5</ele>
      </trkpt>
      <trkpt lat="45.44053" lon="4.15596">
        <ele>643.5</ele>
      </trkpt>
      <trkpt lat="45.44083" lon="4.15588">
        <ele>643</ele>
      </trkpt>
      <trkpt lat="45.44105" lon="4.15579">
        <ele>642.1</ele>
      </trkpt>
      <trkpt lat="45.44111" lon="4.15575">
        <ele>641.7</ele>
      </trkpt>
      <trkpt lat="45.44124" lon="4.15562">
        <ele>641.1</ele>
      </trkpt>
      <trkpt lat="45.44133" lon="4.15549">
        <ele>640.8</ele>
      </trkpt>
      <trkpt lat="45.44139" lon="4.15533">
        <ele>640.2</ele>
      </trkpt>
      <trkpt lat="45.44147" lon="4.15526">
        <ele>639.9</ele>
      </trkpt>
      <trkpt lat="45.44168" lon="4.15512">
        <ele>639.5</ele>
      </trkpt>
      <trkpt lat="45.4419" lon="4.15503">
        <ele>639.9</ele>
      </trkpt>
      <trkpt lat="45.44199" lon="4.155">
        <ele>640</ele>
      </trkpt>
      <trkpt lat="45.44213" lon="4.15498">
        <ele>640</ele>
      </trkpt>
      <trkpt lat="45.44221" lon="4.15496">
        <ele>640</ele>
      </trkpt>
      <trkpt lat="45.44227" lon="4.15491">
        <ele>640</ele>
      </trkpt>
      <trkpt lat="45.44246" lon="4.15479">
        <ele>640</ele>
      </trkpt>
      <trkpt lat="45.44254" lon="4.15478">
        <ele>640</ele>
      </trkpt>
      <trkpt lat="45.44261" lon="4.15486">
        <ele>640</ele>
      </trkpt>
      <trkpt lat="45.44271" lon="4.15499">
        <ele>640</ele>
      </trkpt>
      <trkpt lat="45.44284" lon="4.15506">
        <ele>639.6</ele>
      </trkpt>
      <trkpt lat="45.44298" lon="4.15508">
        <ele>639.2</ele>
      </trkpt>
      <trkpt lat="45.44309" lon="4.15509">
        <ele>639.1</ele>
      </trkpt>
      <trkpt lat="45.44357" lon="4.15497">
        <ele>639.9</ele>
      </trkpt>
      <trkpt lat="45.44368" lon="4.15494">
        <ele>639.5</ele>
      </trkpt>
      <trkpt lat="45.44383" lon="4.15484">
        <ele>638.6</ele>
      </trkpt>
      <trkpt lat="45.44389" lon="4.15482">
        <ele>638.3</ele>
      </trkpt>
      <trkpt lat="45.44394" lon="4.15481">
        <ele>638.2</ele>
      </trkpt>
      <trkpt lat="45.44406" lon="4.15478">
        <ele>637.7</ele>
      </trkpt>
      <trkpt lat="45.44427" lon="4.1548">
        <ele>636.7</ele>
      </trkpt>
      <trkpt lat="45.44442" lon="4.15481">
        <ele>635.5</ele>
      </trkpt>
      <trkpt lat="45.44488" lon="4.15483">
        <ele>633.2</ele>
      </trkpt>
      <trkpt lat="45.44506" lon="4.15483">
        <ele>632.5</ele>
      </trkpt>
      <trkpt lat="45.44525" lon="4.15478">
        <ele>631.3</ele>
      </trkpt>
      <trkpt lat="45.44548" lon="4.15471">
        <ele>630.9</ele>
      </trkpt>
      <trkpt lat="45.44565" lon="4.15464">
        <ele>630.5</ele>
      </trkpt>
      <trkpt lat="45.446" lon="4.15443">
        <ele>630</ele>
      </trkpt>
      <trkpt lat="45.44624" lon="4.15422">
        <ele>629.4</ele>
      </trkpt>
      <trkpt lat="45.44634" lon="4.15411">
        <ele>629.7</ele>
      </trkpt>
      <trkpt lat="45.44641" lon="4.15397">
        <ele>629.1</ele>
      </trkpt>
      <trkpt lat="45.44645" lon="4.15387">
        <ele>628.6</ele>
      </trkpt>
      <trkpt lat="45.44649" lon="4.15365">
        <ele>628</ele>
      </trkpt>
      <trkpt lat="45.44652" lon="4.15333">
        <ele>626.9</ele>
      </trkpt>
      <trkpt lat="45.44656" lon="4.15312">
        <ele>625.6</ele>
      </trkpt>
      <trkpt lat="45.44665" lon="4.15291">
        <ele>624.6</ele>
      </trkpt>
      <trkpt lat="45.44695" lon="4.15241">
        <ele>620.8</ele>
      </trkpt>
      <trkpt lat="45.44718" lon="4.15208">
        <ele>617.5</ele>
      </trkpt>
      <trkpt lat="45.44727" lon="4.152">
        <ele>616.5</ele>
      </trkpt>
      <trkpt lat="45.44749" lon="4.1519">
        <ele>616</ele>
      </trkpt>
      <trkpt lat="45.44853" lon="4.15164">
        <ele>605.4</ele>
      </trkpt>
      <trkpt lat="45.44881" lon="4.15156">
        <ele>602.5</ele>
      </trkpt>
      <trkpt lat="45.44901" lon="4.15142">
        <ele>600.2</ele>
      </trkpt>
      <trkpt lat="45.44922" lon="4.15116">
        <ele>597.8</ele>
      </trkpt>
      <trkpt lat="45.44933" lon="4.15106">
        <ele>597</ele>
      </trkpt>
      <trkpt lat="45.44944" lon="4.15102">
        <ele>597</ele>
      </trkpt>
      <trkpt lat="45.44956" lon="4.15099">
        <ele>595.3</ele>
      </trkpt>
      <trkpt lat="45.44971" lon="4.15101">
        <ele>594</ele>
      </trkpt>
      <trkpt lat="45.45012" lon="4.15109">
        <ele>591.2</ele>
      </trkpt>
      <trkpt lat="45.45032" lon="4.1511">
        <ele>589.4</ele>
      </trkpt>
      <trkpt lat="45.45042" lon="4.15109">
        <ele>588.5</ele>
      </trkpt>
      <trkpt lat="45.45048" lon="4.15108">
        <ele>587.8</ele>
      </trkpt>
      <trkpt lat="45.45064" lon="4.15105">
        <ele>586.9</ele>
      </trkpt>
      <trkpt lat="45.45086" lon="4.15096">
        <ele>584.8</ele>
      </trkpt>
      <trkpt lat="45.4515" lon="4.15066">
        <ele>577.8</ele>
      </trkpt>
      <trkpt lat="45.45172" lon="4.15061">
        <ele>576.1</ele>
      </trkpt>
      <trkpt lat="45.45213" lon="4.15065">
        <ele>572</ele>
      </trkpt>
      <trkpt lat="45.45225" lon="4.15061">
        <ele>570.9</ele>
      </trkpt>
      <trkpt lat="45.45232" lon="4.15056">
        <ele>571.4</ele>
      </trkpt>
      <trkpt lat="45.45239" lon="4.15047">
        <ele>571.1</ele>
      </trkpt>
      <trkpt lat="45.45243" lon="4.15034">
        <ele>569.5</ele>
      </trkpt>
      <trkpt lat="45.45246" lon="4.15019">
        <ele>567.8</ele>
      </trkpt>
      <trkpt lat="45.45245" lon="4.14964">
        <ele>563</ele>
      </trkpt>
      <trkpt lat="45.45248" lon="4.14954">
        <ele>562.5</ele>
      </trkpt>
      <trkpt lat="45.45248" lon="4.14951">
        <ele>562.3</ele>
      </trkpt>
      <trkpt lat="45.45254" lon="4.14936">
        <ele>561</ele>
      </trkpt>
      <trkpt lat="45.45263" lon="4.14924">
        <ele>559.9</ele>
      </trkpt>
      <trkpt lat="45.45274" lon="4.14914">
        <ele>559.2</ele>
      </trkpt>
      <trkpt lat="45.45312" lon="4.14892">
        <ele>555.5</ele>
      </trkpt>
      <trkpt lat="45.45388" lon="4.14859">
        <ele>548.7</ele>
      </trkpt>
      <trkpt lat="45.45402" lon="4.14851">
        <ele>548.5</ele>
      </trkpt>
      <trkpt lat="45.45408" lon="4.14845">
        <ele>548.1</ele>
      </trkpt>
      <trkpt lat="45.45433" lon="4.1481">
        <ele>546.6</ele>
      </trkpt>
      <trkpt lat="45.45441" lon="4.14802">
        <ele>547.8</ele>
      </trkpt>
      <trkpt lat="45.45454" lon="4.14789">
        <ele>548.4</ele>
      </trkpt>
      <trkpt lat="45.45466" lon="4.14781">
        <ele>549.3</ele>
      </trkpt>
      <trkpt lat="45.45476" lon="4.14778">
        <ele>550.4</ele>
      </trkpt>
      <trkpt lat="45.45488" lon="4.14777">
        <ele>551.7</ele>
      </trkpt>
      <trkpt lat="45.45505" lon="4.14779">
        <ele>553.4</ele>
      </trkpt>
      <trkpt lat="45.45531" lon="4.14788">
        <ele>554.7</ele>
      </trkpt>
      <trkpt lat="45.45547" lon="4.14796">
        <ele>556.1</ele>
      </trkpt>
      <trkpt lat="45.45555" lon="4.14805">
        <ele>556</ele>
      </trkpt>
      <trkpt lat="45.45561" lon="4.14814">
        <ele>556.9</ele>
      </trkpt>
      <trkpt lat="45.45566" lon="4.14828">
        <ele>557.3</ele>
      </trkpt>
      <trkpt lat="45.4557" lon="4.14848">
        <ele>558.2</ele>
      </trkpt>
      <trkpt lat="45.45573" lon="4.14901">
        <ele>559.2</ele>
      </trkpt>
      <trkpt lat="45.45577" lon="4.14918">
        <ele>559.9</ele>
      </trkpt>
      <trkpt lat="45.45583" lon="4.14933">
        <ele>561.9</ele>
      </trkpt>
      <trkpt lat="45.45592" lon="4.1495">
        <ele>563.5</ele>
      </trkpt>
      <trkpt lat="45.45607" lon="4.14968">
        <ele>564.6</ele>
      </trkpt>
      <trkpt lat="45.45631" lon="4.15006">
        <ele>563.2</ele>
      </trkpt>
      <trkpt lat="45.4566" lon="4.15058">
        <ele>569.1</ele>
      </trkpt>
      <trkpt lat="45.45671" lon="4.15082">
        <ele>572.1</ele>
      </trkpt>
      <trkpt lat="45.4569" lon="4.15132">
        <ele>576.3</ele>
      </trkpt>
      <trkpt lat="45.45698" lon="4.15146">
        <ele>577.6</ele>
      </trkpt>
      <trkpt lat="45.45707" lon="4.15156">
        <ele>577.8</ele>
      </trkpt>
      <trkpt lat="45.45719" lon="4.15164">
        <ele>578.8</ele>
      </trkpt>
      <trkpt lat="45.45736" lon="4.15168">
        <ele>580.2</ele>
      </trkpt>
      <trkpt lat="45.45805" lon="4.15177">
        <ele>585.5</ele>
      </trkpt>
      <trkpt lat="45.45827" lon="4.15184">
        <ele>586.5</ele>
      </trkpt>
      <trkpt lat="45.45849" lon="4.15205">
        <ele>587.5</ele>
      </trkpt>
      <trkpt lat="45.45879" lon="4.15241">
        <ele>589.3</ele>
      </trkpt>
      <trkpt lat="45.45887" lon="4.15249">
        <ele>589.9</ele>
      </trkpt>
      <trkpt lat="45.45883" lon="4.15251">
        <ele>589.6</ele>
      </trkpt>
      <trkpt lat="45.45877" lon="4.15252">
        <ele>589.3</ele>
      </trkpt>
      <trkpt lat="45.45869" lon="4.15251">
        <ele>588.7</ele>
      </trkpt>
      <trkpt lat="45.45867" lon="4.15265">
        <ele>589.8</ele>
      </trkpt>
      <trkpt lat="45.45856" lon="4.15316">
        <ele>594.9</ele>
      </trkpt>
      <trkpt lat="45.45854" lon="4.15324">
        <ele>595.8</ele>
      </trkpt>
      <trkpt lat="45.45847" lon="4.15333">
        <ele>597</ele>
      </trkpt>
      <trkpt lat="45.45803" lon="4.15377">
        <ele>600.7</ele>
        <extensions>
          <visugpx:TrkExtension xmlns:visugpx="https://www.visugpx.com/editgpx/">
            <visugpx:node>10</visugpx:node>
            </visugpx:TrkExtension>
        </extensions>
      </trkpt>
      <trkpt lat="45.45847" lon="4.15333">
        <ele>597</ele>
      </trkpt>
      <trkpt lat="45.45854" lon="4.15324">
        <ele>595.8</ele>
      </trkpt>
      <trkpt lat="45.45856" lon="4.15316">
        <ele>594.9</ele>
      </trkpt>
      <trkpt lat="45.45867" lon="4.15265">
        <ele>589.8</ele>
      </trkpt>
      <trkpt lat="45.45869" lon="4.15251">
        <ele>588.7</ele>
      </trkpt>
      <trkpt lat="45.45877" lon="4.15252">
        <ele>589.3</ele>
      </trkpt>
      <trkpt lat="45.45883" lon="4.15251">
        <ele>589.6</ele>
      </trkpt>
      <trkpt lat="45.45887" lon="4.15249">
        <ele>589.9</ele>
      </trkpt>
      <trkpt lat="45.45896" lon="4.15255">
        <ele>590.4</ele>
      </trkpt>
      <trkpt lat="45.45928" lon="4.15271">
        <ele>591.4</ele>
      </trkpt>
      <trkpt lat="45.45941" lon="4.15273">
        <ele>591.9</ele>
      </trkpt>
      <trkpt lat="45.45946" lon="4.15272">
        <ele>592</ele>
      </trkpt>
      <trkpt lat="45.4595" lon="4.15269">
        <ele>592</ele>
      </trkpt>
      <trkpt lat="45.45954" lon="4.15276">
        <ele>592</ele>
      </trkpt>
      <trkpt lat="45.45958" lon="4.15281">
        <ele>592</ele>
      </trkpt>
      <trkpt lat="45.45977" lon="4.1529">
        <ele>592</ele>
      </trkpt>
      <trkpt lat="45.46006" lon="4.15305">
        <ele>592</ele>
      </trkpt>
      <trkpt lat="45.46028" lon="4.15313">
        <ele>592</ele>
      </trkpt>
      <trkpt lat="45.46046" lon="4.15317">
        <ele>592.7</ele>
      </trkpt>
      <trkpt lat="45.46057" lon="4.15323">
        <ele>593</ele>
      </trkpt>
      <trkpt lat="45.46137" lon="4.1539">
        <ele>594.1</ele>
      </trkpt>
      <trkpt lat="45.4616" lon="4.15415">
        <ele>595.2</ele>
      </trkpt>
      <trkpt lat="45.46179" lon="4.15449">
        <ele>595.9</ele>
      </trkpt>
      <trkpt lat="45.46186" lon="4.15462">
        <ele>595.6</ele>
      </trkpt>
      <trkpt lat="45.46202" lon="4.15498">
        <ele>594.1</ele>
      </trkpt>
      <trkpt lat="45.4621" lon="4.15528">
        <ele>592.4</ele>
      </trkpt>
      <trkpt lat="45.46225" lon="4.15634">
        <ele>586.3</ele>
      </trkpt>
      <trkpt lat="45.46234" lon="4.15678">
        <ele>584.2</ele>
      </trkpt>
      <trkpt lat="45.46246" lon="4.15711">
        <ele>582.5</ele>
      </trkpt>
      <trkpt lat="45.46267" lon="4.1575">
        <ele>579.4</ele>
      </trkpt>
      <trkpt lat="45.46302" lon="4.15804">
        <ele>575.2</ele>
      </trkpt>
      <trkpt lat="45.46321" lon="4.15852">
        <ele>572.5</ele>
      </trkpt>
      <trkpt lat="45.46349" lon="4.15943">
        <ele>568.2</ele>
      </trkpt>
      <trkpt lat="45.46365" lon="4.16002">
        <ele>566.3</ele>
      </trkpt>
      <trkpt lat="45.46372" lon="4.16037">
        <ele>564.5</ele>
      </trkpt>
      <trkpt lat="45.4638" lon="4.16094">
        <ele>562.3</ele>
      </trkpt>
      <trkpt lat="45.46387" lon="4.16115">
        <ele>562.4</ele>
      </trkpt>
      <trkpt lat="45.46409" lon="4.16174">
        <ele>561.9</ele>
      </trkpt>
      <trkpt lat="45.4641" lon="4.16177">
        <ele>561.9</ele>
      </trkpt>
      <trkpt lat="45.46437" lon="4.16238">
        <ele>559.7</ele>
      </trkpt>
      <trkpt lat="45.46455" lon="4.16264">
        <ele>558.5</ele>
      </trkpt>
      <trkpt lat="45.46525" lon="4.16321">
        <ele>550.6</ele>
      </trkpt>
      <trkpt lat="45.46537" lon="4.16331">
        <ele>548.9</ele>
      </trkpt>
      <trkpt lat="45.46632" lon="4.16412">
        <ele>537.3</ele>
      </trkpt>
      <trkpt lat="45.46654" lon="4.16436">
        <ele>536</ele>
      </trkpt>
      <trkpt lat="45.46673" lon="4.16468">
        <ele>535</ele>
      </trkpt>
      <trkpt lat="45.46679" lon="4.16495">
        <ele>534.1</ele>
      </trkpt>
      <trkpt lat="45.46689" lon="4.16585">
        <ele>532.4</ele>
      </trkpt>
      <trkpt lat="45.46693" lon="4.16639">
        <ele>531.8</ele>
      </trkpt>
      <trkpt lat="45.46694" lon="4.16675">
        <ele>531</ele>
      </trkpt>
      <trkpt lat="45.46688" lon="4.16772">
        <ele>529.7</ele>
      </trkpt>
      <trkpt lat="45.46689" lon="4.16876">
        <ele>527.8</ele>
      </trkpt>
      <trkpt lat="45.4669" lon="4.16907">
        <ele>527.7</ele>
      </trkpt>
      <trkpt lat="45.46696" lon="4.16936">
        <ele>527.4</ele>
      </trkpt>
      <trkpt lat="45.46713" lon="4.16994">
        <ele>526.5</ele>
      </trkpt>
      <trkpt lat="45.46718" lon="4.1702">
        <ele>527.1</ele>
      </trkpt>
      <trkpt lat="45.46724" lon="4.17113">
        <ele>526.3</ele>
      </trkpt>
      <trkpt lat="45.4673" lon="4.17155">
        <ele>525.7</ele>
      </trkpt>
      <trkpt lat="45.46766" lon="4.17294">
        <ele>521.5</ele>
      </trkpt>
      <trkpt lat="45.46769" lon="4.17329">
        <ele>521.1</ele>
      </trkpt>
      <trkpt lat="45.46767" lon="4.17376">
        <ele>520.6</ele>
      </trkpt>
      <trkpt lat="45.46774" lon="4.17413">
        <ele>518.5</ele>
      </trkpt>
      <trkpt lat="45.46789" lon="4.17461">
        <ele>516.2</ele>
      </trkpt>
      <trkpt lat="45.46803" lon="4.1749">
        <ele>513.8</ele>
      </trkpt>
      <trkpt lat="45.46834" lon="4.17539">
        <ele>510.1</ele>
      </trkpt>
      <trkpt lat="45.46933" lon="4.17665">
        <ele>498.1</ele>
      </trkpt>
      <trkpt lat="45.46959" lon="4.17694">
        <ele>496</ele>
      </trkpt>
      <trkpt lat="45.46977" lon="4.1771">
        <ele>494.9</ele>
      </trkpt>
      <trkpt lat="45.46991" lon="4.17715">
        <ele>494.5</ele>
      </trkpt>
      <trkpt lat="45.47005" lon="4.17721">
        <ele>494.1</ele>
      </trkpt>
      <trkpt lat="45.47046" lon="4.17743">
        <ele>493.3</ele>
      </trkpt>
      <trkpt lat="45.4707" lon="4.17763">
        <ele>492.7</ele>
      </trkpt>
      <trkpt lat="45.47096" lon="4.17791">
        <ele>491.3</ele>
      </trkpt>
      <trkpt lat="45.47121" lon="4.17828">
        <ele>489.8</ele>
      </trkpt>
      <trkpt lat="45.47154" lon="4.17883">
        <ele>486.7</ele>
      </trkpt>
      <trkpt lat="45.47162" lon="4.17903">
        <ele>485.8</ele>
      </trkpt>
      <trkpt lat="45.47164" lon="4.17907">
        <ele>485.4</ele>
      </trkpt>
      <trkpt lat="45.47181" lon="4.17939">
        <ele>483.9</ele>
      </trkpt>
      <trkpt lat="45.47182" lon="4.17941">
        <ele>483.8</ele>
      </trkpt>
      <trkpt lat="45.47207" lon="4.17977">
        <ele>482.1</ele>
      </trkpt>
      <trkpt lat="45.47257" lon="4.18039">
        <ele>480</ele>
      </trkpt>
      <trkpt lat="45.4726" lon="4.18036">
        <ele>479.4</ele>
        <extensions>
          <visugpx:TrkExtension xmlns:visugpx="https://www.visugpx.com/editgpx/">
            <visugpx:node>8</visugpx:node>
            </visugpx:TrkExtension>
        </extensions>
      </trkpt>
      <trkpt lat="45.47309" lon="4.18093">
        <ele>476</ele>
        <time>2022-09-08T11:48:58Z</time>
      </trkpt>
      <trkpt lat="45.4735" lon="4.18141">
        <ele>472</ele>
        <time>2022-09-08T11:49:07Z</time>
      </trkpt>
      <trkpt lat="45.47367" lon="4.18164">
        <ele>470</ele>
        <time>2022-09-08T11:49:11Z</time>
      </trkpt>
      <trkpt lat="45.47453" lon="4.18312">
        <ele>463</ele>
        <time>2022-09-08T11:49:35Z</time>
      </trkpt>
      <trkpt lat="45.47487" lon="4.18359">
        <ele>461</ele>
        <time>2022-09-08T11:49:44Z</time>
      </trkpt>
      <trkpt lat="45.47534" lon="4.18417">
        <ele>461</ele>
        <time>2022-09-08T11:49:55Z</time>
      </trkpt>
      <trkpt lat="45.47577" lon="4.18465">
        <ele>462</ele>
        <time>2022-09-08T11:50:05Z</time>
      </trkpt>
      <trkpt lat="45.47604" lon="4.18501">
        <ele>462</ele>
        <time>2022-09-08T11:50:11Z</time>
      </trkpt>
      <trkpt lat="45.47723" lon="4.18705">
        <ele>455</ele>
        <time>2022-09-08T11:50:44Z</time>
      </trkpt>
      <trkpt lat="45.47865" lon="4.18881">
        <ele>452</ele>
        <time>2022-09-08T11:51:18Z</time>
      </trkpt>
      <trkpt lat="45.47896" lon="4.18914">
        <ele>453</ele>
        <time>2022-09-08T11:51:25Z</time>
      </trkpt>
      <trkpt lat="45.47949" lon="4.18963">
        <ele>451</ele>
        <time>2022-09-08T11:51:36Z</time>
      </trkpt>
      <trkpt lat="45.48046" lon="4.19068">
        <ele>445</ele>
        <time>2022-09-08T11:51:58Z</time>
      </trkpt>
      <trkpt lat="45.48105" lon="4.19144">
        <ele>442</ele>
        <time>2022-09-08T11:52:12Z</time>
      </trkpt>
      <trkpt lat="45.48124" lon="4.19178">
        <ele>439</ele>
        <time>2022-09-08T11:52:17Z</time>
      </trkpt>
      <trkpt lat="45.48145" lon="4.19231">
        <ele>436</ele>
        <time>2022-09-08T11:52:25Z</time>
      </trkpt>
      <trkpt lat="45.48151" lon="4.19255">
        <ele>435</ele>
        <time>2022-09-08T11:52:28Z</time>
      </trkpt>
      <trkpt lat="45.48158" lon="4.19315">
        <ele>431</ele>
        <time>2022-09-08T11:52:36Z</time>
      </trkpt>
      <trkpt lat="45.48162" lon="4.19329">
        <ele>430</ele>
        <time>2022-09-08T11:52:37Z</time>
      </trkpt>
      <trkpt lat="45.48168" lon="4.19337">
        <ele>429</ele>
        <time>2022-09-08T11:52:39Z</time>
      </trkpt>
      <trkpt lat="45.48179" lon="4.19338">
        <ele>428</ele>
        <time>2022-09-08T11:52:41Z</time>
      </trkpt>
      <trkpt lat="45.48228" lon="4.19316">
        <ele>427</ele>
        <time>2022-09-08T11:52:50Z</time>
      </trkpt>
      <trkpt lat="45.48296" lon="4.19296">
        <ele>424</ele>
        <time>2022-09-08T11:53:02Z</time>
      </trkpt>
      <trkpt lat="45.48421" lon="4.19264">
        <ele>419</ele>
        <time>2022-09-08T11:53:25Z</time>
      </trkpt>
      <trkpt lat="45.48453" lon="4.19252">
        <ele>417</ele>
        <time>2022-09-08T11:53:31Z</time>
      </trkpt>
      <trkpt lat="45.48479" lon="4.19224">
        <ele>415</ele>
        <time>2022-09-08T11:53:37Z</time>
      </trkpt>
      <trkpt lat="45.48501" lon="4.19188">
        <ele>414</ele>
        <time>2022-09-08T11:53:43Z</time>
      </trkpt>
      <trkpt lat="45.48538" lon="4.1915">
        <ele>415</ele>
        <time>2022-09-08T11:53:51Z</time>
      </trkpt>
      <trkpt lat="45.48573" lon="4.19141">
        <ele>414</ele>
        <time>2022-09-08T11:53:57Z</time>
      </trkpt>
      <trkpt lat="45.48604" lon="4.19124">
        <ele>415</ele>
        <time>2022-09-08T11:54:03Z</time>
      </trkpt>
      <trkpt lat="45.48662" lon="4.1908">
        <ele>414</ele>
        <time>2022-09-08T11:54:15Z</time>
      </trkpt>
      <trkpt lat="45.48724" lon="4.19022">
        <ele>414</ele>
        <time>2022-09-08T11:54:28Z</time>
      </trkpt>
      <trkpt lat="45.4875" lon="4.18989">
        <ele>413</ele>
        <time>2022-09-08T11:54:34Z</time>
      </trkpt>
      <trkpt lat="45.48868" lon="4.18813">
        <ele>415</ele>
        <time>2022-09-08T11:55:04Z</time>
      </trkpt>
      <trkpt lat="45.48889" lon="4.18765">
        <ele>415</ele>
        <time>2022-09-08T11:55:11Z</time>
      </trkpt>
      <trkpt lat="45.48948" lon="4.186">
        <ele>413</ele>
        <time>2022-09-08T11:55:35Z</time>
      </trkpt>
      <trkpt lat="45.49008" lon="4.18506">
        <ele>412</ele>
        <time>2022-09-08T11:55:50Z</time>
      </trkpt>
      <trkpt lat="45.49037" lon="4.18473">
        <ele>410</ele>
        <time>2022-09-08T11:55:57Z</time>
      </trkpt>
      <trkpt lat="45.4908" lon="4.18433">
        <ele>408</ele>
        <time>2022-09-08T11:56:06Z</time>
      </trkpt>
      <trkpt lat="45.49128" lon="4.18394">
        <ele>407</ele>
        <time>2022-09-08T11:56:16Z</time>
      </trkpt>
      <trkpt lat="45.49146" lon="4.18383">
        <ele>406</ele>
        <time>2022-09-08T11:56:19Z</time>
      </trkpt>
      <trkpt lat="45.49159" lon="4.18382">
        <ele>406</ele>
        <time>2022-09-08T11:56:22Z</time>
      </trkpt>
      <trkpt lat="45.49184" lon="4.18391">
        <ele>406</ele>
        <time>2022-09-08T11:56:26Z</time>
      </trkpt>
      <trkpt lat="45.49211" lon="4.18406">
        <ele>407</ele>
        <time>2022-09-08T11:56:32Z</time>
      </trkpt>
      <trkpt lat="45.49215" lon="4.18379">
        <ele>406</ele>
        <time>2022-09-08T11:56:35Z</time>
      </trkpt>
      <trkpt lat="45.4923" lon="4.18136">
        <ele>403</ele>
        <time>2022-09-08T11:57:05Z</time>
      </trkpt>
      <trkpt lat="45.49228" lon="4.18061">
        <ele>401</ele>
        <time>2022-09-08T11:57:15Z</time>
      </trkpt>
      <trkpt lat="45.49236" lon="4.18028">
        <ele>401</ele>
        <time>2022-09-08T11:57:19Z</time>
      </trkpt>
      <trkpt lat="45.4927" lon="4.17944">
        <ele>400</ele>
        <time>2022-09-08T11:57:31Z</time>
      </trkpt>
      <trkpt lat="45.49278" lon="4.17909">
        <ele>400</ele>
        <time>2022-09-08T11:57:36Z</time>
      </trkpt>
      <trkpt lat="45.49298" lon="4.17757">
        <ele>400</ele>
        <time>2022-09-08T11:57:55Z</time>
      </trkpt>
      <trkpt lat="45.49307" lon="4.17738">
        <ele>400</ele>
        <time>2022-09-08T11:57:58Z</time>
      </trkpt>
      <trkpt lat="45.49361" lon="4.17665">
        <ele>400</ele>
        <time>2022-09-08T11:58:11Z</time>
      </trkpt>
      <trkpt lat="45.49385" lon="4.17626">
        <ele>400</ele>
        <time>2022-09-08T11:58:18Z</time>
      </trkpt>
      <trkpt lat="45.49405" lon="4.17586">
        <ele>400</ele>
        <time>2022-09-08T11:58:24Z</time>
      </trkpt>
      <trkpt lat="45.49502" lon="4.17332">
        <ele>399</ele>
        <time>2022-09-08T11:59:00Z</time>
      </trkpt>
      <trkpt lat="45.49518" lon="4.173">
        <ele>398</ele>
        <time>2022-09-08T11:59:05Z</time>
      </trkpt>
      <trkpt lat="45.49542" lon="4.17277">
        <ele>397</ele>
        <time>2022-09-08T11:59:10Z</time>
      </trkpt>
      <trkpt lat="45.49547" lon="4.1728">
        <ele>397</ele>
        <time>2022-09-08T11:59:11Z</time>
      </trkpt>
      <trkpt lat="45.49542" lon="4.17277">
        <ele>397</ele>
        <time>2022-09-08T11:59:12Z</time>
      </trkpt>
      <trkpt lat="45.49539" lon="4.17263">
        <ele>398</ele>
        <time>2022-09-08T11:59:14Z</time>
      </trkpt>
      <trkpt lat="45.49552" lon="4.17173">
        <ele>398</ele>
        <time>2022-09-08T11:59:25Z</time>
      </trkpt>
      <trkpt lat="45.49561" lon="4.17141">
        <ele>398</ele>
        <time>2022-09-08T11:59:29Z</time>
      </trkpt>
      <trkpt lat="45.49589" lon="4.17061">
        <ele>398</ele>
        <time>2022-09-08T11:59:41Z</time>
      </trkpt>
      <trkpt lat="45.49659" lon="4.16938">
        <ele>399</ele>
        <time>2022-09-08T12:00:00Z</time>
      </trkpt>
      <trkpt lat="45.49674" lon="4.16896">
        <ele>399</ele>
        <time>2022-09-08T12:00:06Z</time>
      </trkpt>
      <trkpt lat="45.49695" lon="4.16828">
        <ele>400</ele>
        <time>2022-09-08T12:00:15Z</time>
      </trkpt>
      <trkpt lat="45.49703" lon="4.16787">
        <ele>400</ele>
        <time>2022-09-08T12:00:21Z</time>
      </trkpt>
      <trkpt lat="45.49706" lon="4.16753">
        <ele>400</ele>
        <time>2022-09-08T12:00:25Z</time>
      </trkpt>
      <trkpt lat="45.4978" lon="4.1652">
        <ele>398</ele>
        <time>2022-09-08T12:00:57Z</time>
      </trkpt>
      <trkpt lat="45.49797" lon="4.16442">
        <ele>398</ele>
        <time>2022-09-08T12:01:07Z</time>
      </trkpt>
      <trkpt lat="45.49803" lon="4.16403">
        <ele>398</ele>
        <time>2022-09-08T12:01:12Z</time>
      </trkpt>
      <trkpt lat="45.49811" lon="4.16379">
        <ele>398</ele>
        <time>2022-09-08T12:01:15Z</time>
      </trkpt>
      <trkpt lat="45.49823" lon="4.16364">
        <ele>397</ele>
        <time>2022-09-08T12:01:18Z</time>
      </trkpt>
      <trkpt lat="45.49892" lon="4.16327">
        <ele>396</ele>
        <time>2022-09-08T12:01:31Z</time>
      </trkpt>
      <trkpt lat="45.49944" lon="4.16287">
        <ele>395</ele>
        <time>2022-09-08T12:01:42Z</time>
      </trkpt>
      <trkpt lat="45.49956" lon="4.16281">
        <ele>395</ele>
        <time>2022-09-08T12:01:44Z</time>
      </trkpt>
      <trkpt lat="45.50012" lon="4.16266">
        <ele>395</ele>
        <time>2022-09-08T12:01:54Z</time>
      </trkpt>
      <trkpt lat="45.50033" lon="4.16266">
        <ele>395</ele>
        <time>2022-09-08T12:01:58Z</time>
      </trkpt>
      <trkpt lat="45.50041" lon="4.16276">
        <ele>395</ele>
        <time>2022-09-08T12:02:00Z</time>
      </trkpt>
      <trkpt lat="45.50046" lon="4.16279">
        <ele>395</ele>
        <time>2022-09-08T12:02:01Z</time>
      </trkpt>
      <trkpt lat="45.50051" lon="4.16278">
        <ele>395</ele>
        <time>2022-09-08T12:02:02Z</time>
      </trkpt>
      <trkpt lat="45.50061" lon="4.16271">
        <ele>395</ele>
        <time>2022-09-08T12:02:04Z</time>
      </trkpt>
      <trkpt lat="45.50072" lon="4.16248">
        <ele>395</ele>
        <time>2022-09-08T12:02:07Z</time>
      </trkpt>
      <trkpt lat="45.50079" lon="4.16241">
        <ele>395</ele>
        <time>2022-09-08T12:02:09Z</time>
      </trkpt>
      <trkpt lat="45.50103" lon="4.16234">
        <ele>395</ele>
        <time>2022-09-08T12:02:13Z</time>
      </trkpt>
      <trkpt lat="45.50112" lon="4.16226">
        <ele>395</ele>
        <time>2022-09-08T12:02:15Z</time>
      </trkpt>
      <trkpt lat="45.50115" lon="4.162">
        <ele>396</ele>
        <time>2022-09-08T12:02:18Z</time>
      </trkpt>
      <trkpt lat="45.50109" lon="4.16143">
        <ele>397</ele>
        <time>2022-09-08T12:02:26Z</time>
      </trkpt>
      <trkpt lat="45.50029" lon="4.15064">
        <ele>418</ele>
        <time>2022-09-08T12:04:41Z</time>
      </trkpt>
      <trkpt lat="45.50004" lon="4.1477">
        <ele>422</ele>
        <time>2022-09-08T12:05:18Z</time>
      </trkpt>
      <trkpt lat="45.50002" lon="4.14715">
        <ele>424</ele>
        <time>2022-09-08T12:05:25Z</time>
      </trkpt>
      <trkpt lat="45.50011" lon="4.14666">
        <ele>426</ele>
        <time>2022-09-08T12:05:31Z</time>
      </trkpt>
      <trkpt lat="45.50135" lon="4.14316">
        <ele>442</ele>
        <time>2022-09-08T12:06:20Z</time>
      </trkpt>
      <trkpt lat="45.50155" lon="4.14267">
        <ele>445</ele>
        <time>2022-09-08T12:06:27Z</time>
      </trkpt>
      <trkpt lat="45.50177" lon="4.14225">
        <ele>447</ele>
        <time>2022-09-08T12:06:33Z</time>
      </trkpt>
      <trkpt lat="45.50206" lon="4.14154">
        <ele>452</ele>
        <time>2022-09-08T12:06:44Z</time>
      </trkpt>
      <trkpt lat="45.50225" lon="4.14119">
        <ele>453</ele>
        <time>2022-09-08T12:06:49Z</time>
      </trkpt>
      <trkpt lat="45.50234" lon="4.14105">
        <ele>453</ele>
        <time>2022-09-08T12:06:52Z</time>
      </trkpt>
      <trkpt lat="45.50248" lon="4.1409">
        <ele>452</ele>
        <time>2022-09-08T12:06:55Z</time>
      </trkpt>
      <trkpt lat="45.5026" lon="4.14083">
        <ele>452</ele>
        <time>2022-09-08T12:06:57Z</time>
      </trkpt>
      <trkpt lat="45.50299" lon="4.14086">
        <ele>453</ele>
        <time>2022-09-08T12:07:04Z</time>
      </trkpt>
      <trkpt lat="45.50318" lon="4.14085">
        <ele>453</ele>
        <time>2022-09-08T12:07:07Z</time>
      </trkpt>
      <trkpt lat="45.50332" lon="4.14078">
        <ele>455</ele>
        <time>2022-09-08T12:07:10Z</time>
      </trkpt>
      <trkpt lat="45.50344" lon="4.14067">
        <ele>455</ele>
        <time>2022-09-08T12:07:13Z</time>
      </trkpt>
      <trkpt lat="45.50381" lon="4.14021">
        <ele>459</ele>
        <time>2022-09-08T12:07:21Z</time>
      </trkpt>
      <trkpt lat="45.50574" lon="4.13755">
        <ele>473</ele>
        <time>2022-09-08T12:08:09Z</time>
      </trkpt>
      <trkpt lat="45.50598" lon="4.13712">
        <ele>473</ele>
        <time>2022-09-08T12:08:16Z</time>
      </trkpt>
      <trkpt lat="45.50708" lon="4.13441">
        <ele>483</ele>
        <time>2022-09-08T12:08:55Z</time>
      </trkpt>
      <trkpt lat="45.50713" lon="4.13406">
        <ele>485</ele>
        <time>2022-09-08T12:08:59Z</time>
      </trkpt>
      <trkpt lat="45.50715" lon="4.13324">
        <ele>485</ele>
        <time>2022-09-08T12:09:10Z</time>
      </trkpt>
      <trkpt lat="45.50706" lon="4.1328">
        <ele>486</ele>
        <time>2022-09-08T12:09:15Z</time>
      </trkpt>
      <trkpt lat="45.50685" lon="4.13236">
        <ele>487</ele>
        <time>2022-09-08T12:09:22Z</time>
      </trkpt>
      <trkpt lat="45.50665" lon="4.13206">
        <ele>488</ele>
        <time>2022-09-08T12:09:27Z</time>
      </trkpt>
      <trkpt lat="45.50643" lon="4.1318">
        <ele>488</ele>
        <time>2022-09-08T12:09:32Z</time>
      </trkpt>
      <trkpt lat="45.50608" lon="4.13154">
        <ele>492</ele>
        <time>2022-09-08T12:09:39Z</time>
      </trkpt>
      <trkpt lat="45.50493" lon="4.13108">
        <ele>501</ele>
        <time>2022-09-08T12:10:00Z</time>
      </trkpt>
      <trkpt lat="45.50483" lon="4.13096">
        <ele>502</ele>
        <time>2022-09-08T12:10:03Z</time>
      </trkpt>
      <trkpt lat="45.50479" lon="4.1307">
        <ele>502</ele>
        <time>2022-09-08T12:10:06Z</time>
      </trkpt>
      <trkpt lat="45.50484" lon="4.13045">
        <ele>502</ele>
        <time>2022-09-08T12:10:09Z</time>
      </trkpt>
      <trkpt lat="45.50494" lon="4.13018">
        <ele>502</ele>
        <time>2022-09-08T12:10:13Z</time>
      </trkpt>
      <trkpt lat="45.50493" lon="4.12961">
        <ele>504</ele>
        <time>2022-09-08T12:10:20Z</time>
      </trkpt>
      <trkpt lat="45.50475" lon="4.12718">
        <ele>513</ele>
        <time>2022-09-08T12:10:51Z</time>
      </trkpt>
      <trkpt lat="45.50425" lon="4.12345">
        <ele>522</ele>
        <time>2022-09-08T12:11:38Z</time>
      </trkpt>
      <trkpt lat="45.50426" lon="4.12307">
        <ele>524</ele>
        <time>2022-09-08T12:11:43Z</time>
      </trkpt>
      <trkpt lat="45.50431" lon="4.12288">
        <ele>524</ele>
        <time>2022-09-08T12:11:45Z</time>
      </trkpt>
      <trkpt lat="45.50476" lon="4.12208">
        <ele>527</ele>
        <time>2022-09-08T12:11:58Z</time>
      </trkpt>
      <trkpt lat="45.50483" lon="4.12182">
        <ele>528</ele>
        <time>2022-09-08T12:12:02Z</time>
      </trkpt>
      <trkpt lat="45.50487" lon="4.12155">
        <ele>529</ele>
        <time>2022-09-08T12:12:05Z</time>
      </trkpt>
      <trkpt lat="45.50482" lon="4.12083">
        <ele>533</ele>
        <time>2022-09-08T12:12:14Z</time>
      </trkpt>
      <trkpt lat="45.50483" lon="4.12039">
        <ele>536</ele>
        <time>2022-09-08T12:12:20Z</time>
      </trkpt>
      <trkpt lat="45.50516" lon="4.11793">
        <ele>544</ele>
        <time>2022-09-08T12:12:51Z</time>
      </trkpt>
      <trkpt lat="45.50548" lon="4.11677">
        <ele>546</ele>
        <time>2022-09-08T12:13:06Z</time>
      </trkpt>
      <trkpt lat="45.50584" lon="4.11589">
        <ele>549</ele>
        <time>2022-09-08T12:13:19Z</time>
      </trkpt>
      <trkpt lat="45.50615" lon="4.11536">
        <ele>549</ele>
        <time>2022-09-08T12:13:28Z</time>
      </trkpt>
      <trkpt lat="45.5065" lon="4.1149">
        <ele>550</ele>
        <time>2022-09-08T12:13:36Z</time>
      </trkpt>
      <trkpt lat="45.50686" lon="4.11452">
        <ele>552</ele>
        <time>2022-09-08T12:13:44Z</time>
      </trkpt>
      <trkpt lat="45.50721" lon="4.11407">
        <ele>555</ele>
        <time>2022-09-08T12:13:53Z</time>
      </trkpt>
      <trkpt lat="45.5075" lon="4.11387">
        <ele>556</ele>
        <time>2022-09-08T12:13:58Z</time>
      </trkpt>
      <trkpt lat="45.50769" lon="4.11385">
        <ele>557</ele>
        <time>2022-09-08T12:14:02Z</time>
      </trkpt>
      <trkpt lat="45.50815" lon="4.11398">
        <ele>557</ele>
        <time>2022-09-08T12:14:10Z</time>
      </trkpt>
      <trkpt lat="45.50861" lon="4.11402">
        <ele>558</ele>
        <time>2022-09-08T12:14:18Z</time>
      </trkpt>
      <trkpt lat="45.50912" lon="4.1137">
        <ele>561</ele>
        <time>2022-09-08T12:14:28Z</time>
      </trkpt>
      <trkpt lat="45.50959" lon="4.11321">
        <ele>561</ele>
        <time>2022-09-08T12:14:38Z</time>
      </trkpt>
      <trkpt lat="45.50995" lon="4.11241">
        <ele>564</ele>
        <time>2022-09-08T12:14:50Z</time>
      </trkpt>
      <trkpt lat="45.51016" lon="4.11184">
        <ele>566</ele>
        <time>2022-09-08T12:14:58Z</time>
      </trkpt>
      <trkpt lat="45.51044" lon="4.1113">
        <ele>568</ele>
        <time>2022-09-08T12:15:07Z</time>
      </trkpt>
      <trkpt lat="45.51104" lon="4.11062">
        <ele>569</ele>
        <time>2022-09-08T12:15:20Z</time>
      </trkpt>
      <trkpt lat="45.51122" lon="4.11031">
        <ele>570</ele>
        <time>2022-09-08T12:15:25Z</time>
      </trkpt>
      <trkpt lat="45.51149" lon="4.10972">
        <ele>572</ele>
        <time>2022-09-08T12:15:34Z</time>
      </trkpt>
      <trkpt lat="45.51164" lon="4.10914">
        <ele>573</ele>
        <time>2022-09-08T12:15:42Z</time>
      </trkpt>
      <trkpt lat="45.51173" lon="4.10745">
        <ele>575</ele>
        <time>2022-09-08T12:16:03Z</time>
      </trkpt>
      <trkpt lat="45.51207" lon="4.10642">
        <ele>580</ele>
        <time>2022-09-08T12:16:17Z</time>
      </trkpt>
      <trkpt lat="45.5122" lon="4.10579">
        <ele>582</ele>
        <time>2022-09-08T12:16:25Z</time>
      </trkpt>
      <trkpt lat="45.51273" lon="4.10428">
        <ele>589</ele>
        <time>2022-09-08T12:16:46Z</time>
      </trkpt>
      <trkpt lat="45.51303" lon="4.10335">
        <ele>590</ele>
        <time>2022-09-08T12:16:59Z</time>
      </trkpt>
      <trkpt lat="45.513" lon="4.10331">
        <ele>591</ele>
        <time>2022-09-08T12:17:00Z</time>
      </trkpt>
      <trkpt lat="45.51266" lon="4.1022">
        <ele>601</ele>
        <time>2022-09-08T12:17:15Z</time>
      </trkpt>
      <trkpt lat="45.51249" lon="4.10175">
        <ele>606</ele>
        <time>2022-09-08T12:17:21Z</time>
      </trkpt>
      <trkpt lat="45.51195" lon="4.10066">
        <ele>611</ele>
        <time>2022-09-08T12:17:38Z</time>
      </trkpt>
      <trkpt lat="45.51174" lon="4.10009">
        <ele>614</ele>
        <time>2022-09-08T12:17:46Z</time>
      </trkpt>
      <trkpt lat="45.5115" lon="4.09969">
        <ele>613</ele>
        <time>2022-09-08T12:17:53Z</time>
      </trkpt>
      <trkpt lat="45.51146" lon="4.09948">
        <ele>613</ele>
        <time>2022-09-08T12:17:55Z</time>
      </trkpt>
      <trkpt lat="45.51227" lon="4.09753">
        <ele>618</ele>
        <time>2022-09-08T12:18:24Z</time>
      </trkpt>
      <trkpt lat="45.51249" lon="4.09685">
        <ele>620</ele>
        <time>2022-09-08T12:18:33Z</time>
      </trkpt>
      <trkpt lat="45.51262" lon="4.09664">
        <ele>620</ele>
        <time>2022-09-08T12:18:36Z</time>
      </trkpt>
      <trkpt lat="45.51323" lon="4.09593">
        <ele>622</ele>
        <time>2022-09-08T12:18:50Z</time>
      </trkpt>
      <trkpt lat="45.51334" lon="4.09573">
        <ele>622</ele>
        <time>2022-09-08T12:18:54Z</time>
      </trkpt>
      <trkpt lat="45.51359" lon="4.09421">
        <ele>624</ele>
        <time>2022-09-08T12:19:13Z</time>
      </trkpt>
      <trkpt lat="45.5138" lon="4.09328">
        <ele>622</ele>
        <time>2022-09-08T12:19:25Z</time>
      </trkpt>
      <trkpt lat="45.51388" lon="4.09317">
        <ele>621</ele>
        <time>2022-09-08T12:19:27Z</time>
      </trkpt>
      <trkpt lat="45.51391" lon="4.0928">
        <ele>621</ele>
        <time>2022-09-08T12:19:32Z</time>
      </trkpt>
      <trkpt lat="45.51429" lon="4.09093">
        <ele>625</ele>
        <time>2022-09-08T12:19:56Z</time>
      </trkpt>
      <trkpt lat="45.5145" lon="4.09052">
        <ele>625</ele>
        <time>2022-09-08T12:20:02Z</time>
      </trkpt>
      <trkpt lat="45.51492" lon="4.08992">
        <ele>627</ele>
        <time>2022-09-08T12:20:13Z</time>
      </trkpt>
      <trkpt lat="45.51509" lon="4.08948">
        <ele>629</ele>
        <time>2022-09-08T12:20:19Z</time>
      </trkpt>
      <trkpt lat="45.5154" lon="4.08758">
        <ele>633</ele>
        <time>2022-09-08T12:20:44Z</time>
      </trkpt>
      <trkpt lat="45.51577" lon="4.08609">
        <ele>638</ele>
        <time>2022-09-08T12:21:03Z</time>
      </trkpt>
      <trkpt lat="45.51595" lon="4.08553">
        <ele>638</ele>
        <time>2022-09-08T12:21:11Z</time>
      </trkpt>
      <trkpt lat="45.51614" lon="4.08498">
        <ele>637</ele>
        <time>2022-09-08T12:21:19Z</time>
      </trkpt>
      <trkpt lat="45.51622" lon="4.08485">
        <ele>636</ele>
        <time>2022-09-08T12:21:21Z</time>
      </trkpt>
      <trkpt lat="45.51669" lon="4.08367">
        <ele>635</ele>
        <time>2022-09-08T12:21:38Z</time>
      </trkpt>
      <trkpt lat="45.51709" lon="4.08298">
        <ele>637</ele>
        <time>2022-09-08T12:21:49Z</time>
      </trkpt>
      <trkpt lat="45.51763" lon="4.08232">
        <ele>639</ele>
        <time>2022-09-08T12:22:02Z</time>
      </trkpt>
      <trkpt lat="45.51823" lon="4.08181">
        <ele>640</ele>
        <time>2022-09-08T12:22:14Z</time>
      </trkpt>
      <trkpt lat="45.52004" lon="4.08047">
        <ele>637</ele>
        <time>2022-09-08T12:22:50Z</time>
      </trkpt>
      <trkpt lat="45.52061" lon="4.07998">
        <ele>639</ele>
        <time>2022-09-08T12:23:02Z</time>
      </trkpt>
      <trkpt lat="45.52093" lon="4.07956">
        <ele>639</ele>
        <time>2022-09-08T12:23:10Z</time>
      </trkpt>
      <trkpt lat="45.52211" lon="4.07787">
        <ele>639</ele>
        <time>2022-09-08T12:23:40Z</time>
      </trkpt>
      <trkpt lat="45.52235" lon="4.07759">
        <ele>640</ele>
        <time>2022-09-08T12:23:45Z</time>
      </trkpt>
      <trkpt lat="45.52294" lon="4.07712">
        <ele>640</ele>
        <time>2022-09-08T12:23:57Z</time>
      </trkpt>
      <trkpt lat="45.52332" lon="4.07678">
        <ele>639</ele>
        <time>2022-09-08T12:24:05Z</time>
      </trkpt>
      <trkpt lat="45.52359" lon="4.07633">
        <ele>638</ele>
        <time>2022-09-08T12:24:13Z</time>
      </trkpt>
      <trkpt lat="45.52372" lon="4.07595">
        <ele>638</ele>
        <time>2022-09-08T12:24:18Z</time>
      </trkpt>
      <trkpt lat="45.52385" lon="4.07541">
        <ele>639</ele>
        <time>2022-09-08T12:24:25Z</time>
      </trkpt>
      <trkpt lat="45.52409" lon="4.07402">
        <ele>639</ele>
        <time>2022-09-08T12:24:43Z</time>
      </trkpt>
      <trkpt lat="45.52437" lon="4.07279">
        <ele>638</ele>
        <time>2022-09-08T12:24:59Z</time>
      </trkpt>
      <trkpt lat="45.52441" lon="4.07243">
        <ele>637</ele>
        <time>2022-09-08T12:25:03Z</time>
      </trkpt>
      <trkpt lat="45.5244" lon="4.07069">
        <ele>638</ele>
        <time>2022-09-08T12:25:25Z</time>
      </trkpt>
      <trkpt lat="45.52446" lon="4.07028">
        <ele>638</ele>
        <time>2022-09-08T12:25:30Z</time>
      </trkpt>
      <trkpt lat="45.52476" lon="4.06951">
        <ele>639</ele>
        <time>2022-09-08T12:25:41Z</time>
      </trkpt>
      <trkpt lat="45.52492" lon="4.06857">
        <ele>642</ele>
        <time>2022-09-08T12:25:53Z</time>
      </trkpt>
      <trkpt lat="45.52502" lon="4.0682">
        <ele>642</ele>
        <time>2022-09-08T12:25:58Z</time>
      </trkpt>
      <trkpt lat="45.5252" lon="4.06779">
        <ele>642</ele>
        <time>2022-09-08T12:26:04Z</time>
      </trkpt>
      <trkpt lat="45.52547" lon="4.06736">
        <ele>642</ele>
        <time>2022-09-08T12:26:12Z</time>
      </trkpt>
      <trkpt lat="45.52545" lon="4.06724">
        <ele>642</ele>
        <time>2022-09-08T12:26:13Z</time>
      </trkpt>
      <trkpt lat="45.52514" lon="4.06669">
        <ele>643</ele>
        <time>2022-09-08T12:26:22Z</time>
      </trkpt>
      <trkpt lat="45.5248" lon="4.06621">
        <ele>644</ele>
        <time>2022-09-08T12:26:30Z</time>
      </trkpt>
      <trkpt lat="45.52384" lon="4.0647">
        <ele>644</ele>
        <time>2022-09-08T12:26:56Z</time>
      </trkpt>
      <trkpt lat="45.52362" lon="4.06448">
        <ele>644</ele>
        <time>2022-09-08T12:27:01Z</time>
      </trkpt>
      <trkpt lat="45.52315" lon="4.06418">
        <ele>642</ele>
        <time>2022-09-08T12:27:10Z</time>
      </trkpt>
      <trkpt lat="45.52276" lon="4.06398">
        <ele>641</ele>
        <time>2022-09-08T12:27:17Z</time>
      </trkpt>
      <trkpt lat="45.5224" lon="4.06384">
        <ele>639</ele>
        <time>2022-09-08T12:27:24Z</time>
      </trkpt>
      <trkpt lat="45.52212" lon="4.06376">
        <ele>638</ele>
        <time>2022-09-08T12:27:29Z</time>
      </trkpt>
      <trkpt lat="45.5204" lon="4.06351">
        <ele>635</ele>
        <time>2022-09-08T12:28:00Z</time>
      </trkpt>
      <trkpt lat="45.51988" lon="4.06341">
        <ele>635</ele>
        <time>2022-09-08T12:28:09Z</time>
      </trkpt>
      <trkpt lat="45.51953" lon="4.06329">
        <ele>636</ele>
        <time>2022-09-08T12:28:15Z</time>
      </trkpt>
      <trkpt lat="45.51891" lon="4.06302">
        <ele>638</ele>
        <time>2022-09-08T12:28:27Z</time>
      </trkpt>
      <trkpt lat="45.51857" lon="4.06283">
        <ele>639</ele>
        <time>2022-09-08T12:28:33Z</time>
      </trkpt>
      <trkpt lat="45.51747" lon="4.062">
        <ele>646</ele>
        <time>2022-09-08T12:28:56Z</time>
      </trkpt>
      <trkpt lat="45.5154" lon="4.06033">
        <ele>651</ele>
        <time>2022-09-08T12:29:38Z</time>
      </trkpt>
      <trkpt lat="45.5151" lon="4.05998">
        <ele>652</ele>
        <time>2022-09-08T12:29:45Z</time>
      </trkpt>
      <trkpt lat="45.51494" lon="4.05972">
        <ele>651</ele>
        <time>2022-09-08T12:29:49Z</time>
      </trkpt>
      <trkpt lat="45.51478" lon="4.05937">
        <ele>649</ele>
        <time>2022-09-08T12:29:54Z</time>
      </trkpt>
      <trkpt lat="45.51459" lon="4.05867">
        <ele>648</ele>
        <time>2022-09-08T12:30:04Z</time>
      </trkpt>
      <trkpt lat="45.51413" lon="4.0565">
        <ele>649</ele>
        <time>2022-09-08T12:30:32Z</time>
      </trkpt>
      <trkpt lat="45.51387" lon="4.05587">
        <ele>651</ele>
        <time>2022-09-08T12:30:41Z</time>
      </trkpt>
      <trkpt lat="45.51377" lon="4.05571">
        <ele>651</ele>
        <time>2022-09-08T12:30:44Z</time>
      </trkpt>
      <trkpt lat="45.51362" lon="4.05555">
        <ele>652</ele>
        <time>2022-09-08T12:30:47Z</time>
      </trkpt>
      <trkpt lat="45.51338" lon="4.05535">
        <ele>652</ele>
        <time>2022-09-08T12:30:52Z</time>
      </trkpt>
      <trkpt lat="45.51257" lon="4.05497">
        <ele>652</ele>
        <time>2022-09-08T12:31:07Z</time>
      </trkpt>
      <trkpt lat="45.51216" lon="4.05474">
        <ele>651</ele>
        <time>2022-09-08T12:31:15Z</time>
      </trkpt>
      <trkpt lat="45.51187" lon="4.05439">
        <ele>652</ele>
        <time>2022-09-08T12:31:22Z</time>
      </trkpt>
      <trkpt lat="45.51179" lon="4.05426">
        <ele>653</ele>
        <time>2022-09-08T12:31:24Z</time>
      </trkpt>
      <trkpt lat="45.51163" lon="4.05386">
        <ele>654</ele>
        <time>2022-09-08T12:31:30Z</time>
      </trkpt>
      <trkpt lat="45.51148" lon="4.05338">
        <ele>654</ele>
        <time>2022-09-08T12:31:36Z</time>
      </trkpt>
      <trkpt lat="45.5113" lon="4.05256">
        <ele>654</ele>
        <time>2022-09-08T12:31:47Z</time>
      </trkpt>
      <trkpt lat="45.51125" lon="4.05215">
        <ele>653</ele>
        <time>2022-09-08T12:31:52Z</time>
      </trkpt>
      <trkpt lat="45.51128" lon="4.05148">
        <ele>650</ele>
        <time>2022-09-08T12:32:00Z</time>
      </trkpt>
      <trkpt lat="45.51133" lon="4.05126">
        <ele>649</ele>
        <time>2022-09-08T12:32:03Z</time>
      </trkpt>
      <trkpt lat="45.51139" lon="4.05118">
        <ele>648</ele>
        <time>2022-09-08T12:32:05Z</time>
      </trkpt>
      <trkpt lat="45.51236" lon="4.05025">
        <ele>652</ele>
        <time>2022-09-08T12:32:26Z</time>
      </trkpt>
      <trkpt lat="45.51252" lon="4.05006">
        <ele>652</ele>
        <time>2022-09-08T12:32:29Z</time>
      </trkpt>
      <trkpt lat="45.51274" lon="4.04965">
        <ele>654</ele>
        <time>2022-09-08T12:32:36Z</time>
      </trkpt>
      <trkpt lat="45.51282" lon="4.04942">
        <ele>654</ele>
        <time>2022-09-08T12:32:39Z</time>
      </trkpt>
      <trkpt lat="45.51288" lon="4.04907">
        <ele>654</ele>
        <time>2022-09-08T12:32:43Z</time>
      </trkpt>
      <trkpt lat="45.51288" lon="4.04871">
        <ele>655</ele>
        <time>2022-09-08T12:32:48Z</time>
      </trkpt>
      <trkpt lat="45.51283" lon="4.04839">
        <ele>654</ele>
        <time>2022-09-08T12:32:52Z</time>
      </trkpt>
      <trkpt lat="45.51269" lon="4.04801">
        <ele>652</ele>
        <time>2022-09-08T12:32:57Z</time>
      </trkpt>
      <trkpt lat="45.51245" lon="4.04766">
        <ele>649</ele>
        <time>2022-09-08T12:33:03Z</time>
      </trkpt>
      <trkpt lat="45.51225" lon="4.0475">
        <ele>650</ele>
        <time>2022-09-08T12:33:08Z</time>
      </trkpt>
      <trkpt lat="45.51204" lon="4.04742">
        <ele>652</ele>
        <time>2022-09-08T12:33:11Z</time>
      </trkpt>
      <trkpt lat="45.51179" lon="4.04741">
        <ele>653</ele>
        <time>2022-09-08T12:33:16Z</time>
      </trkpt>
      <trkpt lat="45.51156" lon="4.04746">
        <ele>656</ele>
        <time>2022-09-08T12:33:20Z</time>
      </trkpt>
      <trkpt lat="45.51136" lon="4.04756">
        <ele>659</ele>
        <time>2022-09-08T12:33:24Z</time>
      </trkpt>
      <trkpt lat="45.5112" lon="4.04767">
        <ele>661</ele>
        <time>2022-09-08T12:33:27Z</time>
      </trkpt>
      <trkpt lat="45.51068" lon="4.04811">
        <ele>664</ele>
        <time>2022-09-08T12:33:38Z</time>
      </trkpt>
      <trkpt lat="45.51057" lon="4.04779">
        <ele>668</ele>
        <time>2022-09-08T12:33:42Z</time>
      </trkpt>
      <trkpt lat="45.51033" lon="4.04654">
        <ele>679</ele>
        <time>2022-09-08T12:33:58Z</time>
      </trkpt>
      <trkpt lat="45.51024" lon="4.04588">
        <ele>684</ele>
        <time>2022-09-08T12:34:07Z</time>
      </trkpt>
      <trkpt lat="45.51026" lon="4.04426">
        <ele>696</ele>
        <time>2022-09-08T12:34:27Z</time>
      </trkpt>
      <trkpt lat="45.51015" lon="4.04392">
        <ele>699</ele>
        <time>2022-09-08T12:34:32Z</time>
      </trkpt>
      <trkpt lat="45.50991" lon="4.04373">
        <ele>704</ele>
        <time>2022-09-08T12:34:36Z</time>
      </trkpt>
      <trkpt lat="45.50958" lon="4.04334">
        <ele>708</ele>
        <time>2022-09-08T12:34:44Z</time>
      </trkpt>
      <trkpt lat="45.50941" lon="4.04321">
        <ele>710</ele>
        <time>2022-09-08T12:34:47Z</time>
      </trkpt>
      <trkpt lat="45.50921" lon="4.04312">
        <ele>712</ele>
        <time>2022-09-08T12:34:51Z</time>
      </trkpt>
      <trkpt lat="45.50905" lon="4.04313">
        <ele>713</ele>
        <time>2022-09-08T12:34:54Z</time>
      </trkpt>
      <trkpt lat="45.50891" lon="4.04305">
        <ele>713</ele>
        <time>2022-09-08T12:34:57Z</time>
      </trkpt>
      <trkpt lat="45.50861" lon="4.04201">
        <ele>716</ele>
        <time>2022-09-08T12:35:11Z</time>
      </trkpt>
      <trkpt lat="45.50857" lon="4.04166">
        <ele>717</ele>
        <time>2022-09-08T12:35:15Z</time>
      </trkpt>
      <trkpt lat="45.50846" lon="4.04125">
        <ele>719</ele>
        <time>2022-09-08T12:35:21Z</time>
      </trkpt>
      <trkpt lat="45.50834" lon="4.041">
        <ele>721</ele>
        <time>2022-09-08T12:35:24Z</time>
      </trkpt>
      <trkpt lat="45.50812" lon="4.04078">
        <ele>723</ele>
        <time>2022-09-08T12:35:29Z</time>
      </trkpt>
      <trkpt lat="45.50768" lon="4.0406">
        <ele>727</ele>
        <time>2022-09-08T12:35:37Z</time>
      </trkpt>
      <trkpt lat="45.50738" lon="4.0404">
        <ele>730</ele>
        <time>2022-09-08T12:35:43Z</time>
      </trkpt>
      <trkpt lat="45.50622" lon="4.03923">
        <ele>741</ele>
        <time>2022-09-08T12:36:09Z</time>
      </trkpt>
      <trkpt lat="45.5061" lon="4.03909">
        <ele>741</ele>
        <time>2022-09-08T12:36:11Z</time>
      </trkpt>
      <trkpt lat="45.50579" lon="4.03858">
        <ele>745</ele>
        <time>2022-09-08T12:36:20Z</time>
      </trkpt>
      <trkpt lat="45.50569" lon="4.03848">
        <ele>747</ele>
        <time>2022-09-08T12:36:22Z</time>
      </trkpt>
      <trkpt lat="45.50555" lon="4.03841">
        <ele>749</ele>
        <time>2022-09-08T12:36:24Z</time>
      </trkpt>
      <trkpt lat="45.50534" lon="4.03843">
        <ele>749</ele>
        <time>2022-09-08T12:36:28Z</time>
      </trkpt>
      <trkpt lat="45.50496" lon="4.03872">
        <ele>749</ele>
        <time>2022-09-08T12:36:36Z</time>
      </trkpt>
      <trkpt lat="45.50401" lon="4.03916">
        <ele>758</ele>
        <time>2022-09-08T12:36:54Z</time>
      </trkpt>
      <trkpt lat="45.50371" lon="4.03946">
        <ele>756</ele>
        <time>2022-09-08T12:37:00Z</time>
      </trkpt>
      <trkpt lat="45.50352" lon="4.03953">
        <ele>757</ele>
        <time>2022-09-08T12:37:04Z</time>
      </trkpt>
      <trkpt lat="45.50331" lon="4.03955">
        <ele>757</ele>
        <time>2022-09-08T12:37:07Z</time>
      </trkpt>
      <trkpt lat="45.50316" lon="4.03966">
        <ele>757</ele>
        <time>2022-09-08T12:37:10Z</time>
      </trkpt>
      <trkpt lat="45.50181" lon="4.04016">
        <ele>752</ele>
        <time>2022-09-08T12:37:35Z</time>
      </trkpt>
      <trkpt lat="45.5016" lon="4.04028">
        <ele>753</ele>
        <time>2022-09-08T12:37:39Z</time>
      </trkpt>
      <trkpt lat="45.50148" lon="4.04046">
        <ele>754</ele>
        <time>2022-09-08T12:37:42Z</time>
      </trkpt>
      <trkpt lat="45.50119" lon="4.04117">
        <ele>757</ele>
        <time>2022-09-08T12:37:53Z</time>
      </trkpt>
      <trkpt lat="45.50108" lon="4.0415">
        <ele>759</ele>
        <time>2022-09-08T12:37:57Z</time>
      </trkpt>
      <trkpt lat="45.50078" lon="4.04282">
        <ele>760</ele>
        <time>2022-09-08T12:38:14Z</time>
      </trkpt>
      <trkpt lat="45.50059" lon="4.04328">
        <ele>761</ele>
        <time>2022-09-08T12:38:21Z</time>
      </trkpt>
      <trkpt lat="45.50024" lon="4.044">
        <ele>764</ele>
        <time>2022-09-08T12:38:32Z</time>
      </trkpt>
      <trkpt lat="45.5" lon="4.0442">
        <ele>765</ele>
        <time>2022-09-08T12:38:37Z</time>
      </trkpt>
      <trkpt lat="45.49995" lon="4.0442">
        <ele>765</ele>
        <time>2022-09-08T12:38:38Z</time>
      </trkpt>
      <trkpt lat="45.49943" lon="4.04379">
        <ele>767</ele>
        <time>2022-09-08T12:38:48Z</time>
      </trkpt>
      <trkpt lat="45.49918" lon="4.04342">
        <ele>770</ele>
        <time>2022-09-08T12:38:55Z</time>
      </trkpt>
      <trkpt lat="45.49901" lon="4.04303">
        <ele>771</ele>
        <time>2022-09-08T12:39:01Z</time>
      </trkpt>
      <trkpt lat="45.49876" lon="4.04272">
        <ele>772</ele>
        <time>2022-09-08T12:39:07Z</time>
      </trkpt>
      <trkpt lat="45.49818" lon="4.04232">
        <ele>775</ele>
        <time>2022-09-08T12:39:18Z</time>
      </trkpt>
      <trkpt lat="45.49716" lon="4.04156">
        <ele>778</ele>
        <time>2022-09-08T12:39:38Z</time>
      </trkpt>
      <trkpt lat="45.49701" lon="4.04135">
        <ele>779</ele>
        <time>2022-09-08T12:39:42Z</time>
      </trkpt>
      <trkpt lat="45.49671" lon="4.04072">
        <ele>782</ele>
        <time>2022-09-08T12:39:52Z</time>
      </trkpt>
      <trkpt lat="45.4966" lon="4.04055">
        <ele>783</ele>
        <time>2022-09-08T12:39:55Z</time>
      </trkpt>
      <trkpt lat="45.49647" lon="4.04044">
        <ele>784</ele>
        <time>2022-09-08T12:39:57Z</time>
      </trkpt>
      <trkpt lat="45.49637" lon="4.0404">
        <ele>784</ele>
        <time>2022-09-08T12:39:59Z</time>
      </trkpt>
      <trkpt lat="45.49624" lon="4.04038">
        <ele>785</ele>
        <time>2022-09-08T12:40:01Z</time>
      </trkpt>
      <trkpt lat="45.49602" lon="4.04041">
        <ele>784</ele>
        <time>2022-09-08T12:40:05Z</time>
      </trkpt>
      <trkpt lat="45.49594" lon="4.04044">
        <ele>784</ele>
        <time>2022-09-08T12:40:07Z</time>
      </trkpt>
      <trkpt lat="45.49584" lon="4.04052">
        <ele>783</ele>
        <time>2022-09-08T12:40:09Z</time>
      </trkpt>
      <trkpt lat="45.49563" lon="4.04083">
        <ele>786</ele>
        <time>2022-09-08T12:40:14Z</time>
      </trkpt>
      <trkpt lat="45.49526" lon="4.04159">
        <ele>786</ele>
        <time>2022-09-08T12:40:26Z</time>
      </trkpt>
      <trkpt lat="45.4951" lon="4.04182">
        <ele>786</ele>
        <time>2022-09-08T12:40:30Z</time>
      </trkpt>
      <trkpt lat="45.49493" lon="4.04197">
        <ele>787</ele>
        <time>2022-09-08T12:40:33Z</time>
      </trkpt>
      <trkpt lat="45.49467" lon="4.0421">
        <ele>789</ele>
        <time>2022-09-08T12:40:38Z</time>
      </trkpt>
      <trkpt lat="45.49146" lon="4.04276">
        <ele>789</ele>
        <time>2022-09-08T12:41:36Z</time>
      </trkpt>
      <trkpt lat="45.49112" lon="4.04276">
        <ele>788</ele>
        <time>2022-09-08T12:41:42Z</time>
      </trkpt>
      <trkpt lat="45.49092" lon="4.04271">
        <ele>789</ele>
        <time>2022-09-08T12:41:46Z</time>
      </trkpt>
      <trkpt lat="45.4907" lon="4.04261">
        <ele>790</ele>
        <time>2022-09-08T12:41:50Z</time>
      </trkpt>
      <trkpt lat="45.49054" lon="4.04248">
        <ele>790</ele>
        <time>2022-09-08T12:41:53Z</time>
      </trkpt>
      <trkpt lat="45.49037" lon="4.0423">
        <ele>791</ele>
        <time>2022-09-08T12:41:57Z</time>
      </trkpt>
      <trkpt lat="45.49022" lon="4.04209">
        <ele>791</ele>
        <time>2022-09-08T12:42:01Z</time>
      </trkpt>
      <trkpt lat="45.4901" lon="4.04186">
        <ele>791</ele>
        <time>2022-09-08T12:42:04Z</time>
      </trkpt>
      <trkpt lat="45.49003" lon="4.04166">
        <ele>791</ele>
        <time>2022-09-08T12:42:07Z</time>
      </trkpt>
      <trkpt lat="45.48992" lon="4.0412">
        <ele>790</ele>
        <time>2022-09-08T12:42:13Z</time>
      </trkpt>
      <trkpt lat="45.4899" lon="4.04068">
        <ele>790</ele>
        <time>2022-09-08T12:42:19Z</time>
      </trkpt>
      <trkpt lat="45.49009" lon="4.03962">
        <ele>789</ele>
        <time>2022-09-08T12:42:33Z</time>
      </trkpt>
      <trkpt lat="45.4901" lon="4.03938">
        <ele>788</ele>
        <time>2022-09-08T12:42:36Z</time>
      </trkpt>
      <trkpt lat="45.49" lon="4.03893">
        <ele>786</ele>
        <time>2022-09-08T12:42:42Z</time>
      </trkpt>
      <trkpt lat="45.48983" lon="4.03867">
        <ele>789</ele>
        <time>2022-09-08T12:42:46Z</time>
      </trkpt>
      <trkpt lat="45.48963" lon="4.03854">
        <ele>792</ele>
        <time>2022-09-08T12:42:50Z</time>
      </trkpt>
      <trkpt lat="45.48936" lon="4.0385">
        <ele>795</ele>
        <time>2022-09-08T12:42:55Z</time>
      </trkpt>
      <trkpt lat="45.48925" lon="4.03852">
        <ele>796</ele>
        <time>2022-09-08T12:42:57Z</time>
      </trkpt>
      <trkpt lat="45.4891" lon="4.03859">
        <ele>795</ele>
        <time>2022-09-08T12:43:00Z</time>
      </trkpt>
      <trkpt lat="45.48813" lon="4.03912">
        <ele>784</ele>
        <time>2022-09-08T12:43:18Z</time>
      </trkpt>
      <trkpt lat="45.48796" lon="4.03917">
        <ele>781</ele>
        <time>2022-09-08T12:43:22Z</time>
      </trkpt>
      <trkpt lat="45.48781" lon="4.03917">
        <ele>780</ele>
        <time>2022-09-08T12:43:24Z</time>
      </trkpt>
      <trkpt lat="45.48757" lon="4.0391">
        <ele>781</ele>
        <time>2022-09-08T12:43:29Z</time>
      </trkpt>
      <trkpt lat="45.48741" lon="4.03908">
        <ele>783</ele>
        <time>2022-09-08T12:43:31Z</time>
      </trkpt>
      <trkpt lat="45.48722" lon="4.03912">
        <ele>788</ele>
        <time>2022-09-08T12:43:35Z</time>
      </trkpt>
      <trkpt lat="45.48708" lon="4.03922">
        <ele>790</ele>
        <time>2022-09-08T12:43:38Z</time>
      </trkpt>
      <trkpt lat="45.48667" lon="4.0397">
        <ele>789</ele>
        <time>2022-09-08T12:43:47Z</time>
      </trkpt>
      <trkpt lat="45.48654" lon="4.03982">
        <ele>788</ele>
        <time>2022-09-08T12:43:50Z</time>
      </trkpt>
      <trkpt lat="45.48633" lon="4.0399">
        <ele>789</ele>
        <time>2022-09-08T12:43:54Z</time>
      </trkpt>
      <trkpt lat="45.48576" lon="4.03996">
        <ele>794</ele>
        <time>2022-09-08T12:44:04Z</time>
      </trkpt>
      <trkpt lat="45.48539" lon="4.04004">
        <ele>800</ele>
        <time>2022-09-08T12:44:11Z</time>
      </trkpt>
      <trkpt lat="45.48507" lon="4.04019">
        <ele>803</ele>
        <time>2022-09-08T12:44:17Z</time>
      </trkpt>
      <trkpt lat="45.48492" lon="4.04033">
        <ele>804</ele>
        <time>2022-09-08T12:44:20Z</time>
      </trkpt>
      <trkpt lat="45.48482" lon="4.04052">
        <ele>803</ele>
        <time>2022-09-08T12:44:23Z</time>
      </trkpt>
      <trkpt lat="45.4847" lon="4.04079">
        <ele>801</ele>
        <time>2022-09-08T12:44:27Z</time>
      </trkpt>
      <trkpt lat="45.48447" lon="4.04151">
        <ele>802</ele>
        <time>2022-09-08T12:44:37Z</time>
      </trkpt>
      <trkpt lat="45.48426" lon="4.04183">
        <ele>804</ele>
        <time>2022-09-08T12:44:42Z</time>
      </trkpt>
      <trkpt lat="45.48412" lon="4.04193">
        <ele>806</ele>
        <time>2022-09-08T12:44:45Z</time>
      </trkpt>
      <trkpt lat="45.48396" lon="4.04199">
        <ele>807</ele>
        <time>2022-09-08T12:44:48Z</time>
      </trkpt>
      <trkpt lat="45.48347" lon="4.04202">
        <ele>811</ele>
        <time>2022-09-08T12:44:56Z</time>
      </trkpt>
      <trkpt lat="45.48326" lon="4.04214">
        <ele>812</ele>
        <time>2022-09-08T12:45:00Z</time>
      </trkpt>
      <trkpt lat="45.48317" lon="4.04227">
        <ele>812</ele>
        <time>2022-09-08T12:45:03Z</time>
      </trkpt>
      <trkpt lat="45.48292" lon="4.04292">
        <ele>811</ele>
        <time>2022-09-08T12:45:12Z</time>
      </trkpt>
      <trkpt lat="45.48279" lon="4.04311">
        <ele>813</ele>
        <time>2022-09-08T12:45:15Z</time>
      </trkpt>
      <trkpt lat="45.48258" lon="4.0433">
        <ele>816</ele>
        <time>2022-09-08T12:45:20Z</time>
      </trkpt>
      <trkpt lat="45.48207" lon="4.04368">
        <ele>817</ele>
        <time>2022-09-08T12:45:30Z</time>
      </trkpt>
      <trkpt lat="45.4816" lon="4.04393">
        <ele>820</ele>
        <time>2022-09-08T12:45:39Z</time>
      </trkpt>
      <trkpt lat="45.48147" lon="4.04409">
        <ele>820</ele>
        <time>2022-09-08T12:45:42Z</time>
      </trkpt>
      <trkpt lat="45.48137" lon="4.04433">
        <ele>819</ele>
        <time>2022-09-08T12:45:45Z</time>
      </trkpt>
      <trkpt lat="45.48131" lon="4.0446">
        <ele>818</ele>
        <time>2022-09-08T12:45:49Z</time>
      </trkpt>
      <trkpt lat="45.48128" lon="4.0452">
        <ele>814</ele>
        <time>2022-09-08T12:45:56Z</time>
      </trkpt>
      <trkpt lat="45.48123" lon="4.04551">
        <ele>813</ele>
        <time>2022-09-08T12:46:00Z</time>
      </trkpt>
      <trkpt lat="45.48116" lon="4.04583">
        <ele>813</ele>
        <time>2022-09-08T12:46:05Z</time>
      </trkpt>
      <trkpt lat="45.48105" lon="4.04618">
        <ele>815</ele>
        <time>2022-09-08T12:46:09Z</time>
      </trkpt>
      <trkpt lat="45.48073" lon="4.04676">
        <ele>818</ele>
        <time>2022-09-08T12:46:19Z</time>
      </trkpt>
      <trkpt lat="45.47996" lon="4.04791">
        <ele>819</ele>
        <time>2022-09-08T12:46:38Z</time>
      </trkpt>
      <trkpt lat="45.4797" lon="4.04824">
        <ele>817</ele>
        <time>2022-09-08T12:46:45Z</time>
      </trkpt>
      <trkpt lat="45.47959" lon="4.04834">
        <ele>816</ele>
        <time>2022-09-08T12:46:47Z</time>
      </trkpt>
      <trkpt lat="45.47945" lon="4.0484">
        <ele>816</ele>
        <time>2022-09-08T12:46:50Z</time>
      </trkpt>
      <trkpt lat="45.47935" lon="4.04841">
        <ele>816</ele>
        <time>2022-09-08T12:46:51Z</time>
      </trkpt>
      <trkpt lat="45.47916" lon="4.04837">
        <ele>817</ele>
        <time>2022-09-08T12:46:55Z</time>
      </trkpt>
      <trkpt lat="45.47904" lon="4.04829">
        <ele>817</ele>
        <time>2022-09-08T12:46:57Z</time>
      </trkpt>
      <trkpt lat="45.47901" lon="4.04848">
        <ele>816</ele>
        <time>2022-09-08T12:47:00Z</time>
      </trkpt>
      <trkpt lat="45.47901" lon="4.04955">
        <ele>813</ele>
        <time>2022-09-08T12:47:13Z</time>
      </trkpt>
      <trkpt lat="45.47889" lon="4.0497">
        <ele>813</ele>
        <time>2022-09-08T12:47:16Z</time>
      </trkpt>
      <trkpt lat="45.47874" lon="4.04996">
        <ele>812</ele>
        <time>2022-09-08T12:47:20Z</time>
      </trkpt>
      <trkpt lat="45.47872" lon="4.05013">
        <ele>812</ele>
        <time>2022-09-08T12:47:22Z</time>
      </trkpt>
      <trkpt lat="45.47905" lon="4.05069">
        <ele>810</ele>
        <time>2022-09-08T12:47:31Z</time>
      </trkpt>
      <trkpt lat="45.47967" lon="4.05303">
        <ele>794</ele>
        <time>2022-09-08T12:48:02Z</time>
      </trkpt>
      <trkpt lat="45.47993" lon="4.0542">
        <ele>790</ele>
        <time>2022-09-08T12:48:18Z</time>
      </trkpt>
      <trkpt lat="45.48004" lon="4.05455">
        <ele>790</ele>
        <time>2022-09-08T12:48:23Z</time>
      </trkpt>
      <trkpt lat="45.48018" lon="4.05459">
        <ele>789</ele>
        <time>2022-09-08T12:48:25Z</time>
      </trkpt>
      <trkpt lat="45.48046" lon="4.05457">
        <ele>788</ele>
        <time>2022-09-08T12:48:30Z</time>
      </trkpt>
      <trkpt lat="45.48068" lon="4.05462">
        <ele>788</ele>
        <time>2022-09-08T12:48:34Z</time>
      </trkpt>
      <trkpt lat="45.48101" lon="4.05478">
        <ele>785</ele>
        <time>2022-09-08T12:48:40Z</time>
      </trkpt>
      <trkpt lat="45.48113" lon="4.05499">
        <ele>785</ele>
        <time>2022-09-08T12:48:44Z</time>
      </trkpt>
      <trkpt lat="45.48118" lon="4.05532">
        <ele>782</ele>
        <time>2022-09-08T12:48:48Z</time>
      </trkpt>
      <trkpt lat="45.48118" lon="4.05575">
        <ele>779</ele>
        <time>2022-09-08T12:48:53Z</time>
      </trkpt>
      <trkpt lat="45.48109" lon="4.05609">
        <ele>776</ele>
        <time>2022-09-08T12:48:58Z</time>
      </trkpt>
      <trkpt lat="45.48096" lon="4.05638">
        <ele>773</ele>
        <time>2022-09-08T12:49:02Z</time>
      </trkpt>
      <trkpt lat="45.4806" lon="4.05698">
        <ele>765</ele>
        <time>2022-09-08T12:49:12Z</time>
      </trkpt>
      <trkpt lat="45.48044" lon="4.05709">
        <ele>762</ele>
        <time>2022-09-08T12:49:15Z</time>
      </trkpt>
      <trkpt lat="45.47978" lon="4.05692">
        <ele>762</ele>
        <time>2022-09-08T12:49:27Z</time>
      </trkpt>
      <trkpt lat="45.47943" lon="4.05686">
        <ele>762</ele>
        <time>2022-09-08T12:49:33Z</time>
      </trkpt>
      <trkpt lat="45.47927" lon="4.0569">
        <ele>762</ele>
        <time>2022-09-08T12:49:36Z</time>
      </trkpt>
      <trkpt lat="45.47918" lon="4.05705">
        <ele>762</ele>
        <time>2022-09-08T12:49:39Z</time>
      </trkpt>
      <trkpt lat="45.4793" lon="4.05767">
        <ele>763</ele>
        <time>2022-09-08T12:49:47Z</time>
      </trkpt>
      <trkpt lat="45.47956" lon="4.0582">
        <ele>759</ele>
        <time>2022-09-08T12:49:55Z</time>
      </trkpt>
      <trkpt lat="45.47965" lon="4.05852">
        <ele>757</ele>
        <time>2022-09-08T12:49:59Z</time>
      </trkpt>
      <trkpt lat="45.47977" lon="4.05954">
        <ele>755</ele>
        <time>2022-09-08T12:50:12Z</time>
      </trkpt>
      <trkpt lat="45.47975" lon="4.05976">
        <ele>756</ele>
        <time>2022-09-08T12:50:15Z</time>
      </trkpt>
      <trkpt lat="45.47964" lon="4.06029">
        <ele>759</ele>
        <time>2022-09-08T12:50:22Z</time>
      </trkpt>
      <trkpt lat="45.47918" lon="4.06151">
        <ele>761</ele>
        <time>2022-09-08T12:50:39Z</time>
      </trkpt>
      <trkpt lat="45.47895" lon="4.06233">
        <ele>758</ele>
        <time>2022-09-08T12:50:50Z</time>
      </trkpt>
      <trkpt lat="45.47854" lon="4.06342">
        <ele>758</ele>
        <time>2022-09-08T12:51:05Z</time>
      </trkpt>
      <trkpt lat="45.47835" lon="4.06382">
        <ele>758</ele>
        <time>2022-09-08T12:51:11Z</time>
      </trkpt>
      <trkpt lat="45.47825" lon="4.0641">
        <ele>755</ele>
        <time>2022-09-08T12:51:15Z</time>
      </trkpt>
      <trkpt lat="45.47818" lon="4.06438">
        <ele>753</ele>
        <time>2022-09-08T12:51:19Z</time>
      </trkpt>
      <trkpt lat="45.47819" lon="4.06462">
        <ele>751</ele>
        <time>2022-09-08T12:51:22Z</time>
      </trkpt>
      <trkpt lat="45.47837" lon="4.06526">
        <ele>747</ele>
        <time>2022-09-08T12:51:31Z</time>
      </trkpt>
      <trkpt lat="45.47893" lon="4.06611">
        <ele>741</ele>
        <time>2022-09-08T12:51:45Z</time>
      </trkpt>
      <trkpt lat="45.47918" lon="4.06653">
        <ele>740</ele>
        <time>2022-09-08T12:51:52Z</time>
      </trkpt>
      <trkpt lat="45.47929" lon="4.06689">
        <ele>736</ele>
        <time>2022-09-08T12:51:57Z</time>
      </trkpt>
      <trkpt lat="45.47938" lon="4.06708">
        <ele>733</ele>
        <time>2022-09-08T12:52:00Z</time>
      </trkpt>
      <trkpt lat="45.47978" lon="4.06754">
        <ele>729</ele>
        <time>2022-09-08T12:52:09Z</time>
      </trkpt>
      <trkpt lat="45.48015" lon="4.06806">
        <ele>723</ele>
        <time>2022-09-08T12:52:18Z</time>
      </trkpt>
      <trkpt lat="45.48034" lon="4.06825">
        <ele>721</ele>
        <time>2022-09-08T12:52:22Z</time>
      </trkpt>
      <trkpt lat="45.48102" lon="4.0688">
        <ele>720</ele>
        <time>2022-09-08T12:52:36Z</time>
      </trkpt>
      <trkpt lat="45.48113" lon="4.06892">
        <ele>720</ele>
        <time>2022-09-08T12:52:39Z</time>
      </trkpt>
      <trkpt lat="45.48154" lon="4.07011">
        <ele>725</ele>
        <time>2022-09-08T12:52:55Z</time>
      </trkpt>
      <trkpt lat="45.48205" lon="4.07101">
        <ele>729</ele>
        <time>2022-09-08T12:53:10Z</time>
      </trkpt>
      <trkpt lat="45.48263" lon="4.07181">
        <ele>730</ele>
        <time>2022-09-08T12:53:24Z</time>
      </trkpt>
      <trkpt lat="45.48282" lon="4.07195">
        <ele>730</ele>
        <time>2022-09-08T12:53:28Z</time>
      </trkpt>
      <trkpt lat="45.48299" lon="4.07203">
        <ele>731</ele>
        <time>2022-09-08T12:53:31Z</time>
      </trkpt>
      <trkpt lat="45.48407" lon="4.07186">
        <ele>724</ele>
        <time>2022-09-08T12:53:50Z</time>
      </trkpt>
      <trkpt lat="45.48438" lon="4.07193">
        <ele>720</ele>
        <time>2022-09-08T12:53:56Z</time>
      </trkpt>
      <trkpt lat="45.48469" lon="4.07234">
        <ele>719</ele>
        <time>2022-09-08T12:54:03Z</time>
      </trkpt>
      <trkpt lat="45.48483" lon="4.07267">
        <ele>718</ele>
        <time>2022-09-08T12:54:08Z</time>
      </trkpt>
      <trkpt lat="45.48543" lon="4.07467">
        <ele>701</ele>
        <time>2022-09-08T12:54:35Z</time>
      </trkpt>
      <trkpt lat="45.48557" lon="4.07487">
        <ele>698</ele>
        <time>2022-09-08T12:54:39Z</time>
      </trkpt>
      <trkpt lat="45.48596" lon="4.07521">
        <ele>690</ele>
        <time>2022-09-08T12:54:47Z</time>
      </trkpt>
      <trkpt lat="45.48606" lon="4.07554">
        <ele>686</ele>
        <time>2022-09-08T12:54:51Z</time>
      </trkpt>
      <trkpt lat="45.48612" lon="4.07604">
        <ele>682</ele>
        <time>2022-09-08T12:54:58Z</time>
      </trkpt>
      <trkpt lat="45.48608" lon="4.0763">
        <ele>681</ele>
        <time>2022-09-08T12:55:01Z</time>
      </trkpt>
      <trkpt lat="45.48576" lon="4.07744">
        <ele>678</ele>
        <time>2022-09-08T12:55:16Z</time>
      </trkpt>
      <trkpt lat="45.48553" lon="4.0777">
        <ele>676</ele>
        <time>2022-09-08T12:55:22Z</time>
      </trkpt>
      <trkpt lat="45.48523" lon="4.07777">
        <ele>675</ele>
        <time>2022-09-08T12:55:27Z</time>
      </trkpt>
      <trkpt lat="45.48489" lon="4.07812">
        <ele>672</ele>
        <time>2022-09-08T12:55:35Z</time>
      </trkpt>
      <trkpt lat="45.48476" lon="4.07836">
        <ele>670</ele>
        <time>2022-09-08T12:55:38Z</time>
      </trkpt>
      <trkpt lat="45.48466" lon="4.07874">
        <ele>667</ele>
        <time>2022-09-08T12:55:43Z</time>
      </trkpt>
      <trkpt lat="45.48512" lon="4.07883">
        <ele>662</ele>
        <time>2022-09-08T12:55:52Z</time>
      </trkpt>
      <trkpt lat="45.48522" lon="4.07979">
        <ele>654</ele>
        <time>2022-09-08T12:56:04Z</time>
      </trkpt>
      <trkpt lat="45.48529" lon="4.08013">
        <ele>651</ele>
        <time>2022-09-08T12:56:08Z</time>
      </trkpt>
      <trkpt lat="45.4862" lon="4.08109">
        <ele>642</ele>
        <time>2022-09-08T12:56:28Z</time>
      </trkpt>
      <trkpt lat="45.48629" lon="4.08127">
        <ele>641</ele>
        <time>2022-09-08T12:56:31Z</time>
      </trkpt>
      <trkpt lat="45.48635" lon="4.08132">
        <ele>641</ele>
        <time>2022-09-08T12:56:32Z</time>
      </trkpt>
      <trkpt lat="45.48667" lon="4.08239">
        <ele>635</ele>
        <time>2022-09-08T12:56:47Z</time>
      </trkpt>
      <trkpt lat="45.48703" lon="4.08341">
        <ele>630</ele>
        <time>2022-09-08T12:57:01Z</time>
      </trkpt>
      <trkpt lat="45.48732" lon="4.08409">
        <ele>628</ele>
        <time>2022-09-08T12:57:11Z</time>
      </trkpt>
      <trkpt lat="45.48759" lon="4.08445">
        <ele>628</ele>
        <time>2022-09-08T12:57:18Z</time>
      </trkpt>
      <trkpt lat="45.48775" lon="4.08499">
        <ele>627</ele>
        <time>2022-09-08T12:57:25Z</time>
      </trkpt>
      <trkpt lat="45.48798" lon="4.08649">
        <ele>628</ele>
        <time>2022-09-08T12:57:44Z</time>
      </trkpt>
      <trkpt lat="45.48807" lon="4.08694">
        <ele>629</ele>
        <time>2022-09-08T12:57:50Z</time>
      </trkpt>
      <trkpt lat="45.48794" lon="4.08711">
        <ele>628</ele>
        <time>2022-09-08T12:57:53Z</time>
      </trkpt>
      <trkpt lat="45.48766" lon="4.08724">
        <ele>626</ele>
        <time>2022-09-08T12:57:58Z</time>
      </trkpt>
      <trkpt lat="45.48724" lon="4.08733">
        <ele>623</ele>
        <time>2022-09-08T12:58:06Z</time>
      </trkpt>
      <trkpt lat="45.48696" lon="4.0875">
        <ele>620</ele>
        <time>2022-09-08T12:58:11Z</time>
      </trkpt>
      <trkpt lat="45.48671" lon="4.08781">
        <ele>618</ele>
        <time>2022-09-08T12:58:17Z</time>
      </trkpt>
      <trkpt lat="45.48652" lon="4.08837">
        <ele>616</ele>
        <time>2022-09-08T12:58:25Z</time>
      </trkpt>
      <trkpt lat="45.48623" lon="4.09002">
        <ele>605</ele>
        <time>2022-09-08T12:58:46Z</time>
      </trkpt>
      <trkpt lat="45.48627" lon="4.09049">
        <ele>603</ele>
        <time>2022-09-08T12:58:52Z</time>
      </trkpt>
      <trkpt lat="45.48644" lon="4.09093">
        <ele>602</ele>
        <time>2022-09-08T12:58:58Z</time>
      </trkpt>
      <trkpt lat="45.48749" lon="4.09223">
        <ele>594</ele>
        <time>2022-09-08T12:59:23Z</time>
      </trkpt>
      <trkpt lat="45.48769" lon="4.09273">
        <ele>592</ele>
        <time>2022-09-08T12:59:30Z</time>
      </trkpt>
      <trkpt lat="45.48856" lon="4.09753">
        <ele>582</ele>
        <time>2022-09-08T13:00:32Z</time>
      </trkpt>
      <trkpt lat="45.48863" lon="4.09817">
        <ele>580</ele>
        <time>2022-09-08T13:00:40Z</time>
      </trkpt>
      <trkpt lat="45.48857" lon="4.09868">
        <ele>579</ele>
        <time>2022-09-08T13:00:47Z</time>
      </trkpt>
      <trkpt lat="45.4884" lon="4.09923">
        <ele>580</ele>
        <time>2022-09-08T13:00:54Z</time>
      </trkpt>
      <trkpt lat="45.48803" lon="4.09968">
        <ele>579</ele>
        <time>2022-09-08T13:01:03Z</time>
      </trkpt>
      <trkpt lat="45.48763" lon="4.10005">
        <ele>580</ele>
        <time>2022-09-08T13:01:11Z</time>
      </trkpt>
      <trkpt lat="45.4875" lon="4.10023">
        <ele>580</ele>
        <time>2022-09-08T13:01:14Z</time>
      </trkpt>
      <trkpt lat="45.48674" lon="4.10273">
        <ele>576</ele>
        <time>2022-09-08T13:01:48Z</time>
      </trkpt>
      <trkpt lat="45.48653" lon="4.10363">
        <ele>572</ele>
        <time>2022-09-08T13:02:00Z</time>
      </trkpt>
      <trkpt lat="45.48625" lon="4.10672">
        <ele>547</ele>
        <time>2022-09-08T13:02:39Z</time>
      </trkpt>
      <trkpt lat="45.48608" lon="4.10822">
        <ele>541</ele>
        <time>2022-09-08T13:02:58Z</time>
      </trkpt>
      <trkpt lat="45.48606" lon="4.10943">
        <ele>540</ele>
        <time>2022-09-08T13:03:13Z</time>
      </trkpt>
      <trkpt lat="45.48596" lon="4.10982">
        <ele>538</ele>
        <time>2022-09-08T13:03:18Z</time>
      </trkpt>
      <trkpt lat="45.48573" lon="4.11005">
        <ele>535</ele>
        <time>2022-09-08T13:03:23Z</time>
      </trkpt>
      <trkpt lat="45.48518" lon="4.11028">
        <ele>527</ele>
        <time>2022-09-08T13:03:34Z</time>
      </trkpt>
      <trkpt lat="45.48504" lon="4.11036">
        <ele>525</ele>
        <time>2022-09-08T13:03:36Z</time>
      </trkpt>
      <trkpt lat="45.48489" lon="4.11051">
        <ele>522</ele>
        <time>2022-09-08T13:03:39Z</time>
      </trkpt>
      <trkpt lat="45.48484" lon="4.1106">
        <ele>520</ele>
        <time>2022-09-08T13:03:41Z</time>
      </trkpt>
      <trkpt lat="45.48476" lon="4.11092">
        <ele>518</ele>
        <time>2022-09-08T13:03:45Z</time>
      </trkpt>
      <trkpt lat="45.48475" lon="4.11111">
        <ele>516</ele>
        <time>2022-09-08T13:03:47Z</time>
      </trkpt>
      <trkpt lat="45.4848" lon="4.11128">
        <ele>517</ele>
        <time>2022-09-08T13:03:50Z</time>
      </trkpt>
      <trkpt lat="45.48528" lon="4.11212">
        <ele>519</ele>
        <time>2022-09-08T13:04:03Z</time>
      </trkpt>
      <trkpt lat="45.48558" lon="4.11257">
        <ele>518</ele>
        <time>2022-09-08T13:04:11Z</time>
      </trkpt>
      <trkpt lat="45.48571" lon="4.11306">
        <ele>515</ele>
        <time>2022-09-08T13:04:18Z</time>
      </trkpt>
      <trkpt lat="45.48567" lon="4.11358">
        <ele>510</ele>
        <time>2022-09-08T13:04:24Z</time>
      </trkpt>
      <trkpt lat="45.48554" lon="4.11393">
        <ele>506</ele>
        <time>2022-09-08T13:04:29Z</time>
      </trkpt>
      <trkpt lat="45.48537" lon="4.11426">
        <ele>501</ele>
        <time>2022-09-08T13:04:34Z</time>
      </trkpt>
      <trkpt lat="45.4853" lon="4.11455">
        <ele>497</ele>
        <time>2022-09-08T13:04:38Z</time>
      </trkpt>
      <trkpt lat="45.48524" lon="4.11489">
        <ele>494</ele>
        <time>2022-09-08T13:04:42Z</time>
      </trkpt>
      <trkpt lat="45.48529" lon="4.1152">
        <ele>492</ele>
        <time>2022-09-08T13:04:46Z</time>
      </trkpt>
      <trkpt lat="45.48538" lon="4.11551">
        <ele>491</ele>
        <time>2022-09-08T13:04:51Z</time>
      </trkpt>
      <trkpt lat="45.4859" lon="4.11679">
        <ele>486</ele>
        <time>2022-09-08T13:05:09Z</time>
      </trkpt>
      <trkpt lat="45.48619" lon="4.11728">
        <ele>486</ele>
        <time>2022-09-08T13:05:17Z</time>
      </trkpt>
      <trkpt lat="45.48627" lon="4.1177">
        <ele>483</ele>
        <time>2022-09-08T13:05:22Z</time>
      </trkpt>
      <trkpt lat="45.48626" lon="4.11836">
        <ele>476</ele>
        <time>2022-09-08T13:05:31Z</time>
      </trkpt>
      <trkpt lat="45.48642" lon="4.11901">
        <ele>472</ele>
        <time>2022-09-08T13:05:39Z</time>
      </trkpt>
      <trkpt lat="45.48703" lon="4.12012">
        <ele>468</ele>
        <time>2022-09-08T13:05:57Z</time>
      </trkpt>
      <trkpt lat="45.4873" lon="4.12052">
        <ele>464</ele>
        <time>2022-09-08T13:06:04Z</time>
      </trkpt>
      <trkpt lat="45.48809" lon="4.12099">
        <ele>464</ele>
        <time>2022-09-08T13:06:19Z</time>
      </trkpt>
      <trkpt lat="45.48846" lon="4.12135">
        <ele>458</ele>
        <time>2022-09-08T13:06:27Z</time>
      </trkpt>
      <trkpt lat="45.48914" lon="4.12172">
        <ele>454</ele>
        <time>2022-09-08T13:06:40Z</time>
      </trkpt>
      <trkpt lat="45.48946" lon="4.12205">
        <ele>450</ele>
        <time>2022-09-08T13:06:47Z</time>
      </trkpt>
      <trkpt lat="45.48967" lon="4.12256">
        <ele>449</ele>
        <time>2022-09-08T13:06:54Z</time>
      </trkpt>
      <trkpt lat="45.4898" lon="4.12308">
        <ele>447</ele>
        <time>2022-09-08T13:07:01Z</time>
      </trkpt>
      <trkpt lat="45.49025" lon="4.12459">
        <ele>436</ele>
        <time>2022-09-08T13:07:22Z</time>
      </trkpt>
      <trkpt lat="45.49027" lon="4.12482">
        <ele>436</ele>
        <time>2022-09-08T13:07:25Z</time>
      </trkpt>
      <trkpt lat="45.49023" lon="4.12552">
        <ele>434</ele>
        <time>2022-09-08T13:07:33Z</time>
      </trkpt>
      <trkpt lat="45.49027" lon="4.12566">
        <ele>434</ele>
        <time>2022-09-08T13:07:35Z</time>
      </trkpt>
      <trkpt lat="45.4904" lon="4.12587">
        <ele>436</ele>
        <time>2022-09-08T13:07:39Z</time>
      </trkpt>
      <trkpt lat="45.49043" lon="4.12599">
        <ele>437</ele>
        <time>2022-09-08T13:07:40Z</time>
      </trkpt>
      <trkpt lat="45.49042" lon="4.12794">
        <ele>442</ele>
        <time>2022-09-08T13:08:05Z</time>
      </trkpt>
      <trkpt lat="45.49045" lon="4.12829">
        <ele>441</ele>
        <time>2022-09-08T13:08:09Z</time>
      </trkpt>
      <trkpt lat="45.49064" lon="4.12935">
        <ele>436</ele>
        <time>2022-09-08T13:08:23Z</time>
      </trkpt>
      <trkpt lat="45.4906" lon="4.12949">
        <ele>436</ele>
        <time>2022-09-08T13:08:25Z</time>
      </trkpt>
      <trkpt lat="45.49039" lon="4.12995">
        <ele>434</ele>
        <time>2022-09-08T13:08:31Z</time>
      </trkpt>
      <trkpt lat="45.49028" lon="4.13058">
        <ele>435</ele>
        <time>2022-09-08T13:08:39Z</time>
      </trkpt>
      <trkpt lat="45.49033" lon="4.13175">
        <ele>435</ele>
        <time>2022-09-08T13:08:54Z</time>
      </trkpt>
      <trkpt lat="45.49029" lon="4.13328">
        <ele>434</ele>
        <time>2022-09-08T13:09:13Z</time>
      </trkpt>
      <trkpt lat="45.49034" lon="4.13363">
        <ele>434</ele>
        <time>2022-09-08T13:09:18Z</time>
      </trkpt>
      <trkpt lat="45.49094" lon="4.13513">
        <ele>428</ele>
        <time>2022-09-08T13:09:39Z</time>
      </trkpt>
      <trkpt lat="45.49141" lon="4.13746">
        <ele>425</ele>
        <time>2022-09-08T13:10:09Z</time>
      </trkpt>
      <trkpt lat="45.49152" lon="4.13769">
        <ele>424</ele>
        <time>2022-09-08T13:10:13Z</time>
      </trkpt>
      <trkpt lat="45.49198" lon="4.1382">
        <ele>425</ele>
        <time>2022-09-08T13:10:23Z</time>
      </trkpt>
      <trkpt lat="45.49214" lon="4.13846">
        <ele>425</ele>
        <time>2022-09-08T13:10:28Z</time>
      </trkpt>
      <trkpt lat="45.49227" lon="4.13887">
        <ele>424</ele>
        <time>2022-09-08T13:10:33Z</time>
      </trkpt>
      <trkpt lat="45.4924" lon="4.13949">
        <ele>422</ele>
        <time>2022-09-08T13:10:41Z</time>
      </trkpt>
      <trkpt lat="45.49319" lon="4.14034">
        <ele>424</ele>
        <time>2022-09-08T13:10:59Z</time>
      </trkpt>
      <trkpt lat="45.49378" lon="4.14092">
        <ele>428</ele>
        <time>2022-09-08T13:11:12Z</time>
      </trkpt>
      <trkpt lat="45.49471" lon="4.14254">
        <ele>422</ele>
        <time>2022-09-08T13:11:38Z</time>
      </trkpt>
      <trkpt lat="45.49519" lon="4.144">
        <ele>421</ele>
        <time>2022-09-08T13:11:58Z</time>
      </trkpt>
      <trkpt lat="45.49539" lon="4.14492">
        <ele>421</ele>
        <time>2022-09-08T13:12:10Z</time>
      </trkpt>
      <trkpt lat="45.49528" lon="4.14438">
        <ele>421</ele>
        <time>2022-09-08T13:12:17Z</time>
      </trkpt>
      <trkpt lat="45.49524" lon="4.14447">
        <ele>420</ele>
        <time>2022-09-08T13:12:18Z</time>
      </trkpt>
      <trkpt lat="45.49518" lon="4.14516">
        <ele>417</ele>
        <time>2022-09-08T13:12:27Z</time>
      </trkpt>
      <trkpt lat="45.4951" lon="4.14557">
        <ele>415</ele>
        <time>2022-09-08T13:12:32Z</time>
      </trkpt>
      <trkpt lat="45.49509" lon="4.14608">
        <ele>413</ele>
        <time>2022-09-08T13:12:39Z</time>
      </trkpt>
      <trkpt lat="45.49521" lon="4.14653">
        <ele>412</ele>
        <time>2022-09-08T13:12:45Z</time>
      </trkpt>
      <trkpt lat="45.49565" lon="4.1473">
        <ele>411</ele>
        <time>2022-09-08T13:12:57Z</time>
      </trkpt>
      <trkpt lat="45.49583" lon="4.14835">
        <ele>407</ele>
        <time>2022-09-08T13:13:10Z</time>
      </trkpt>
      <trkpt lat="45.49574" lon="4.14916">
        <ele>406</ele>
        <time>2022-09-08T13:13:21Z</time>
      </trkpt>
      <trkpt lat="45.49575" lon="4.14953">
        <ele>406</ele>
        <time>2022-09-08T13:13:25Z</time>
      </trkpt>
      <trkpt lat="45.4963" lon="4.15179">
        <ele>405</ele>
        <time>2022-09-08T13:13:55Z</time>
      </trkpt>
      <trkpt lat="45.49617" lon="4.15232">
        <ele>404</ele>
        <time>2022-09-08T13:14:02Z</time>
      </trkpt>
      <trkpt lat="45.49619" lon="4.15246">
        <ele>404</ele>
        <time>2022-09-08T13:14:04Z</time>
      </trkpt>
      <trkpt lat="45.49645" lon="4.15337">
        <ele>402</ele>
        <time>2022-09-08T13:14:16Z</time>
      </trkpt>
      <trkpt lat="45.49651" lon="4.15367">
        <ele>402</ele>
        <time>2022-09-08T13:14:20Z</time>
      </trkpt>
      <trkpt lat="45.4963" lon="4.15428">
        <ele>405</ele>
        <time>2022-09-08T13:14:29Z</time>
      </trkpt>
      <trkpt lat="45.49634" lon="4.15463">
        <ele>404</ele>
        <time>2022-09-08T13:14:33Z</time>
      </trkpt>
      <trkpt lat="45.4963" lon="4.15513">
        <ele>405</ele>
        <time>2022-09-08T13:14:39Z</time>
      </trkpt>
      <trkpt lat="45.49624" lon="4.15552">
        <ele>405</ele>
        <time>2022-09-08T13:14:44Z</time>
      </trkpt>
      <trkpt lat="45.49628" lon="4.15632">
        <ele>406</ele>
        <time>2022-09-08T13:14:54Z</time>
      </trkpt>
      <trkpt lat="45.49636" lon="4.1568">
        <ele>406</ele>
        <time>2022-09-08T13:15:00Z</time>
      </trkpt>
      <trkpt lat="45.49649" lon="4.15716">
        <ele>405</ele>
        <time>2022-09-08T13:15:05Z</time>
      </trkpt>
      <trkpt lat="45.49663" lon="4.15745">
        <ele>404</ele>
        <time>2022-09-08T13:15:10Z</time>
      </trkpt>
      <trkpt lat="45.49672" lon="4.15775">
        <ele>403</ele>
        <time>2022-09-08T13:15:14Z</time>
      </trkpt>
      <trkpt lat="45.49693" lon="4.15925">
        <ele>402</ele>
        <time>2022-09-08T13:15:33Z</time>
      </trkpt>
      <trkpt lat="45.49687" lon="4.16052">
        <ele>400</ele>
        <time>2022-09-08T13:15:49Z</time>
      </trkpt>
      <trkpt lat="45.49665" lon="4.16287">
        <ele>401</ele>
        <time>2022-09-08T13:16:18Z</time>
      </trkpt>
      <trkpt lat="45.49665" lon="4.16307">
        <ele>401</ele>
        <time>2022-09-08T13:16:21Z</time>
      </trkpt>
      <trkpt lat="45.49678" lon="4.16444">
        <ele>400</ele>
        <time>2022-09-08T13:16:38Z</time>
      </trkpt>
      <trkpt lat="45.49688" lon="4.16464">
        <ele>399</ele>
        <time>2022-09-08T13:16:41Z</time>
      </trkpt>
      <trkpt lat="45.49703" lon="4.16536">
        <ele>398</ele>
        <time>2022-09-08T13:16:51Z</time>
      </trkpt>
      <trkpt lat="45.49715" lon="4.16573">
        <ele>398</ele>
        <time>2022-09-08T13:16:56Z</time>
      </trkpt>
      <trkpt lat="45.49721" lon="4.16582">
        <ele>398</ele>
        <time>2022-09-08T13:16:57Z</time>
      </trkpt>
      <trkpt lat="45.49726" lon="4.16585">
        <ele>398</ele>
        <time>2022-09-08T13:16:58Z</time>
      </trkpt>
      <trkpt lat="45.49772" lon="4.16584">
        <ele>398</ele>
        <time>2022-09-08T13:17:06Z</time>
      </trkpt>
      <trkpt lat="45.49784" lon="4.16589">
        <ele>398</ele>
        <time>2022-09-08T13:17:09Z</time>
      </trkpt>
      <trkpt lat="45.49796" lon="4.16602">
        <ele>398</ele>
        <time>2022-09-08T13:17:11Z</time>
      </trkpt>
      <trkpt lat="45.49818" lon="4.16648">
        <ele>398</ele>
        <time>2022-09-08T13:17:18Z</time>
      </trkpt>
      <trkpt lat="45.49833" lon="4.16698">
        <ele>398</ele>
        <time>2022-09-08T13:17:25Z</time>
      </trkpt>
      <trkpt lat="45.49832" lon="4.16737">
        <ele>399</ele>
        <time>2022-09-08T13:17:30Z</time>
      </trkpt>
      <trkpt lat="45.49821" lon="4.16791">
        <ele>399</ele>
        <time>2022-09-08T13:17:37Z</time>
      </trkpt>
      <trkpt lat="45.49822" lon="4.16795">
        <ele>399</ele>
        <time>2022-09-08T13:17:37Z</time>
      </trkpt>
      <trkpt lat="45.49808" lon="4.16825">
        <ele>398</ele>
        <time>2022-09-08T13:17:42Z</time>
      </trkpt>
      <trkpt lat="45.49793" lon="4.1685">
        <ele>398</ele>
        <time>2022-09-08T13:17:46Z</time>
      </trkpt>
      <trkpt lat="45.49837" lon="4.16875">
        <ele>396</ele>
        <time>2022-09-08T13:17:54Z</time>
      </trkpt>
      <trkpt lat="45.49842" lon="4.16883">
        <ele>396</ele>
        <time>2022-09-08T13:17:56Z</time>
      </trkpt>
      <trkpt lat="45.49842" lon="4.16904">
        <ele>395</ele>
        <time>2022-09-08T13:17:58Z</time>
      </trkpt>
      <trkpt lat="45.49851" lon="4.16976">
        <ele>396</ele>
        <time>2022-09-08T13:18:07Z</time>
      </trkpt>
      <trkpt lat="45.49862" lon="4.17029">
        <ele>396</ele>
        <time>2022-09-08T13:18:14Z</time>
      </trkpt>
      <trkpt lat="45.49864" lon="4.1705">
        <ele>396</ele>
        <time>2022-09-08T13:18:17Z</time>
      </trkpt>
      <trkpt lat="45.49864" lon="4.17127">
        <ele>395</ele>
        <time>2022-09-08T13:18:27Z</time>
      </trkpt>
      <trkpt lat="45.49852" lon="4.17133">
        <ele>395</ele>
        <time>2022-09-08T13:18:29Z</time>
      </trkpt>
      <trkpt lat="45.49776" lon="4.17155">
        <ele>396</ele>
        <time>2022-09-08T13:18:43Z</time>
      </trkpt>
      <trkpt lat="45.49675" lon="4.17188">
        <ele>398</ele>
        <time>2022-09-08T13:19:01Z</time>
      </trkpt>
      <trkpt lat="45.49552" lon="4.17224">
        <ele>398</ele>
        <time>2022-09-08T13:19:23Z</time>
      </trkpt>
      <trkpt lat="45.49544" lon="4.17222">
        <ele>398</ele>
        <time>2022-09-08T13:19:25Z</time>
      </trkpt>
      <trkpt lat="45.49539" lon="4.17263">
        <ele>398</ele>
        <time>2022-09-08T13:19:30Z</time>
      </trkpt>
      <trkpt lat="45.49542" lon="4.17277">
        <ele>397</ele>
        <time>2022-09-08T13:19:32Z</time>
      </trkpt>
      <trkpt lat="45.49547" lon="4.1728">
        <ele>397</ele>
        <time>2022-09-08T13:19:33Z</time>
      </trkpt>
      <trkpt lat="45.49552" lon="4.17301">
        <ele>397</ele>
        <time>2022-09-08T13:19:36Z</time>
      </trkpt>
      <trkpt lat="45.49581" lon="4.1749">
        <ele>397</ele>
        <time>2022-09-08T13:20:00Z</time>
      </trkpt>
      <trkpt lat="45.49584" lon="4.17633">
        <ele>398</ele>
        <time>2022-09-08T13:20:18Z</time>
      </trkpt>
      <trkpt lat="45.49579" lon="4.1774">
        <ele>398</ele>
        <time>2022-09-08T13:20:31Z</time>
      </trkpt>
      <trkpt lat="45.49505" lon="4.17958">
        <ele>402</ele>
        <time>2022-09-08T13:21:01Z</time>
      </trkpt>
      <trkpt lat="45.49499" lon="4.17999">
        <ele>402</ele>
        <time>2022-09-08T13:21:06Z</time>
      </trkpt>
      <trkpt lat="45.49502" lon="4.18052">
        <ele>404</ele>
        <time>2022-09-08T13:21:13Z</time>
      </trkpt>
      <trkpt lat="45.49511" lon="4.1809">
        <ele>405</ele>
        <time>2022-09-08T13:21:18Z</time>
      </trkpt>
      <trkpt lat="45.49549" lon="4.18138">
        <ele>407</ele>
        <time>2022-09-08T13:21:27Z</time>
      </trkpt>
      <trkpt lat="45.49575" lon="4.18187">
        <ele>409</ele>
        <time>2022-09-08T13:21:35Z</time>
      </trkpt>
      <trkpt lat="45.49625" lon="4.18331">
        <ele>412</ele>
        <time>2022-09-08T13:21:55Z</time>
      </trkpt>
      <trkpt lat="45.49698" lon="4.18492">
        <ele>414</ele>
        <time>2022-09-08T13:22:19Z</time>
      </trkpt>
      <trkpt lat="45.49712" lon="4.18507">
        <ele>414</ele>
        <time>2022-09-08T13:22:22Z</time>
      </trkpt>
      <trkpt lat="45.49785" lon="4.18566">
        <ele>413</ele>
        <time>2022-09-08T13:22:37Z</time>
      </trkpt>
      <trkpt lat="45.49804" lon="4.18588">
        <ele>412</ele>
        <time>2022-09-08T13:22:41Z</time>
      </trkpt>
      <trkpt lat="45.49804" lon="4.18594">
        <ele>412</ele>
        <time>2022-09-08T13:22:42Z</time>
      </trkpt>
      <trkpt lat="45.49809" lon="4.18607">
        <ele>412</ele>
        <time>2022-09-08T13:22:44Z</time>
      </trkpt>
      <trkpt lat="45.49839" lon="4.18664">
        <ele>412</ele>
        <time>2022-09-08T13:22:53Z</time>
      </trkpt>
      <trkpt lat="45.49828" lon="4.1869">
        <ele>413</ele>
        <time>2022-09-08T13:22:56Z</time>
      </trkpt>
      <trkpt lat="45.49846" lon="4.18678">
        <ele>412</ele>
        <time>2022-09-08T13:23:00Z</time>
      </trkpt>
      <trkpt lat="45.50004" lon="4.18977">
        <ele>411</ele>
        <time>2022-09-08T13:23:47Z</time>
      </trkpt>
      <trkpt lat="45.50237" lon="4.19432">
        <ele>405</ele>
        <time>2022-09-08T13:24:57Z</time>
      </trkpt>
      <trkpt lat="45.50251" lon="4.19472">
        <ele>403</ele>
        <time>2022-09-08T13:25:02Z</time>
      </trkpt>
      <trkpt lat="45.50253" lon="4.19516">
        <ele>401</ele>
        <time>2022-09-08T13:25:08Z</time>
      </trkpt>
      <trkpt lat="45.50244" lon="4.19552">
        <ele>400</ele>
        <time>2022-09-08T13:25:13Z</time>
      </trkpt>
      <trkpt lat="45.50235" lon="4.1957">
        <ele>399</ele>
        <time>2022-09-08T13:25:16Z</time>
      </trkpt>
      <trkpt lat="45.50217" lon="4.19595">
        <ele>399</ele>
        <time>2022-09-08T13:25:20Z</time>
      </trkpt>
      <trkpt lat="45.50095" lon="4.19715">
        <ele>397</ele>
        <time>2022-09-08T13:25:46Z</time>
      </trkpt>
      <trkpt lat="45.50058" lon="4.19743">
        <ele>396</ele>
        <time>2022-09-08T13:25:54Z</time>
      </trkpt>
      <trkpt lat="45.50042" lon="4.19763">
        <ele>395</ele>
        <time>2022-09-08T13:25:58Z</time>
      </trkpt>
      <trkpt lat="45.50032" lon="4.19808">
        <ele>394</ele>
        <time>2022-09-08T13:26:03Z</time>
      </trkpt>
      <trkpt lat="45.50022" lon="4.19885">
        <ele>391</ele>
        <time>2022-09-08T13:26:13Z</time>
      </trkpt>
      <trkpt lat="45.50001" lon="4.20127">
        <ele>387</ele>
        <time>2022-09-08T13:26:44Z</time>
      </trkpt>
      <trkpt lat="45.49992" lon="4.20304">
        <ele>386</ele>
        <time>2022-09-08T13:27:06Z</time>
      </trkpt>
      <trkpt lat="45.49999" lon="4.20646">
        <ele>385</ele>
        <time>2022-09-08T13:27:48Z</time>
      </trkpt>
      <trkpt lat="45.50004" lon="4.20724">
        <ele>384</ele>
        <time>2022-09-08T13:27:58Z</time>
      </trkpt>
      <trkpt lat="45.50016" lon="4.20795">
        <ele>382</ele>
        <time>2022-09-08T13:28:07Z</time>
      </trkpt>
      <trkpt lat="45.50017" lon="4.20845">
        <ele>381</ele>
        <time>2022-09-08T13:28:14Z</time>
      </trkpt>
      <trkpt lat="45.50005" lon="4.20964">
        <ele>383</ele>
        <time>2022-09-08T13:28:29Z</time>
      </trkpt>
      <trkpt lat="45.49922" lon="4.21578">
        <ele>384</ele>
        <time>2022-09-08T13:29:47Z</time>
      </trkpt>
      <trkpt lat="45.49896" lon="4.21871">
        <ele>384</ele>
        <time>2022-09-08T13:30:23Z</time>
      </trkpt>
      <trkpt lat="45.49865" lon="4.22157">
        <ele>385</ele>
        <time>2022-09-08T13:30:59Z</time>
      </trkpt>
      <trkpt lat="45.49841" lon="4.22355">
        <ele>386</ele>
        <time>2022-09-08T13:31:25Z</time>
      </trkpt>
      <trkpt lat="45.49824" lon="4.2247">
        <ele>385</ele>
        <time>2022-09-08T13:31:39Z</time>
      </trkpt>
      <trkpt lat="45.49821" lon="4.2257">
        <ele>384</ele>
        <time>2022-09-08T13:31:52Z</time>
      </trkpt>
      <trkpt lat="45.49822" lon="4.22623">
        <ele>386</ele>
        <time>2022-09-08T13:31:58Z</time>
      </trkpt>
      <trkpt lat="45.49834" lon="4.22753">
        <ele>386</ele>
        <time>2022-09-08T13:32:15Z</time>
      </trkpt>
      <trkpt lat="45.49845" lon="4.22998">
        <ele>387</ele>
        <time>2022-09-08T13:32:45Z</time>
      </trkpt>
      <trkpt lat="45.49835" lon="4.23132">
        <ele>389</ele>
        <time>2022-09-08T13:33:02Z</time>
      </trkpt>
      <trkpt lat="45.49837" lon="4.23187">
        <ele>389</ele>
        <time>2022-09-08T13:33:09Z</time>
      </trkpt>
      <trkpt lat="45.49846" lon="4.23295">
        <ele>389</ele>
        <time>2022-09-08T13:33:22Z</time>
      </trkpt>
      <trkpt lat="45.49885" lon="4.23572">
        <ele>390</ele>
        <time>2022-09-08T13:33:58Z</time>
      </trkpt>
      <trkpt lat="45.49898" lon="4.23628">
        <ele>390</ele>
        <time>2022-09-08T13:34:05Z</time>
      </trkpt>
      <trkpt lat="45.4991" lon="4.23666">
        <ele>390</ele>
        <time>2022-09-08T13:34:10Z</time>
      </trkpt>
      <trkpt lat="45.4995" lon="4.23769">
        <ele>390</ele>
        <time>2022-09-08T13:34:25Z</time>
      </trkpt>
      <trkpt lat="45.4996" lon="4.23811">
        <ele>390</ele>
        <time>2022-09-08T13:34:31Z</time>
      </trkpt>
      <trkpt lat="45.49975" lon="4.23913">
        <ele>390</ele>
        <time>2022-09-08T13:34:44Z</time>
      </trkpt>
      <trkpt lat="45.49993" lon="4.24008">
        <ele>390</ele>
        <time>2022-09-08T13:34:56Z</time>
      </trkpt>
      <trkpt lat="45.49992" lon="4.24023">
        <ele>390</ele>
        <time>2022-09-08T13:34:58Z</time>
      </trkpt>
      <trkpt lat="45.49939" lon="4.24051">
        <ele>391</ele>
        <time>2022-09-08T13:35:08Z</time>
      </trkpt>
      <trkpt lat="45.49906" lon="4.24077">
        <ele>391</ele>
        <time>2022-09-08T13:35:14Z</time>
      </trkpt>
      <trkpt lat="45.49894" lon="4.24094">
        <ele>392</ele>
        <time>2022-09-08T13:35:17Z</time>
      </trkpt>
      <trkpt lat="45.49881" lon="4.24181">
        <ele>392</ele>
        <time>2022-09-08T13:35:29Z</time>
      </trkpt>
      <trkpt lat="45.49882" lon="4.24228">
        <ele>392</ele>
        <time>2022-09-08T13:35:34Z</time>
      </trkpt>
      <trkpt lat="45.49886" lon="4.24268">
        <ele>391</ele>
        <time>2022-09-08T13:35:39Z</time>
      </trkpt>
      <trkpt lat="45.49876" lon="4.24271">
        <ele>391</ele>
        <time>2022-09-08T13:35:41Z</time>
      </trkpt>
      <trkpt lat="45.49786" lon="4.24333">
        <ele>393</ele>
        <time>2022-09-08T13:35:59Z</time>
      </trkpt>
      <trkpt lat="45.49715" lon="4.24392">
        <ele>394</ele>
        <time>2022-09-08T13:36:14Z</time>
      </trkpt>
      <trkpt lat="45.49575" lon="4.24451">
        <ele>393</ele>
        <time>2022-09-08T13:36:40Z</time>
      </trkpt>
      <trkpt lat="45.49563" lon="4.24452">
        <ele>393</ele>
        <time>2022-09-08T13:36:42Z</time>
      </trkpt>
      <trkpt lat="45.49564" lon="4.24467">
        <ele>393</ele>
        <time>2022-09-08T13:36:44Z</time>
      </trkpt>
      <trkpt lat="45.49563" lon="4.24452">
        <ele>393</ele>
        <time>2022-09-08T13:36:46Z</time>
      </trkpt>
      <trkpt lat="45.49549" lon="4.24454">
        <ele>393</ele>
        <time>2022-09-08T13:36:48Z</time>
      </trkpt>
      <trkpt lat="45.49529" lon="4.2445">
        <ele>393</ele>
        <time>2022-09-08T13:36:52Z</time>
      </trkpt>
      <trkpt lat="45.4937" lon="4.24377">
        <ele>393</ele>
        <time>2022-09-08T13:37:21Z</time>
      </trkpt>
      <trkpt lat="45.49122" lon="4.24346">
        <ele>395</ele>
        <time>2022-09-08T13:38:06Z</time>
      </trkpt>
      <trkpt lat="45.49007" lon="4.24348">
        <ele>399</ele>
        <time>2022-09-08T13:38:26Z</time>
      </trkpt>
      <trkpt lat="45.48932" lon="4.24346">
        <ele>403</ele>
        <time>2022-09-08T13:38:39Z</time>
      </trkpt>
      <trkpt lat="45.48805" lon="4.24335">
        <ele>408</ele>
        <time>2022-09-08T13:39:02Z</time>
      </trkpt>
      <trkpt lat="45.48748" lon="4.24323">
        <ele>412</ele>
        <time>2022-09-08T13:39:12Z</time>
      </trkpt>
      <trkpt lat="45.48705" lon="4.2431">
        <ele>415</ele>
        <time>2022-09-08T13:39:20Z</time>
      </trkpt>
      <trkpt lat="45.48682" lon="4.24299">
        <ele>417</ele>
        <time>2022-09-08T13:39:24Z</time>
      </trkpt>
      <trkpt lat="45.48633" lon="4.24267">
        <ele>420</ele>
        <time>2022-09-08T13:39:34Z</time>
      </trkpt>
      <trkpt lat="45.48605" lon="4.24252">
        <ele>422</ele>
        <time>2022-09-08T13:39:39Z</time>
      </trkpt>
      <trkpt lat="45.4856" lon="4.24235">
        <ele>424</ele>
        <time>2022-09-08T13:39:48Z</time>
      </trkpt>
      <trkpt lat="45.48361" lon="4.24194">
        <ele>429</ele>
        <time>2022-09-08T13:40:23Z</time>
      </trkpt>
      <trkpt lat="45.48198" lon="4.24145">
        <ele>434</ele>
        <time>2022-09-08T13:40:53Z</time>
      </trkpt>
      <trkpt lat="45.48183" lon="4.24131">
        <ele>435</ele>
        <time>2022-09-08T13:40:56Z</time>
      </trkpt>
      <trkpt lat="45.48153" lon="4.24094">
        <ele>436</ele>
        <time>2022-09-08T13:41:03Z</time>
      </trkpt>
      <trkpt lat="45.48137" lon="4.24084">
        <ele>437</ele>
        <time>2022-09-08T13:41:06Z</time>
      </trkpt>
      <trkpt lat="45.48093" lon="4.24067">
        <ele>439</ele>
        <time>2022-09-08T13:41:15Z</time>
      </trkpt>
      <trkpt lat="45.48061" lon="4.24058">
        <ele>439</ele>
        <time>2022-09-08T13:41:20Z</time>
      </trkpt>
      <trkpt lat="45.48001" lon="4.24071">
        <ele>439</ele>
        <time>2022-09-08T13:41:31Z</time>
      </trkpt>
      <trkpt lat="45.47941" lon="4.24094">
        <ele>440</ele>
        <time>2022-09-08T13:41:42Z</time>
      </trkpt>
      <trkpt lat="45.47888" lon="4.24125">
        <ele>441</ele>
        <time>2022-09-08T13:41:52Z</time>
      </trkpt>
      <trkpt lat="45.47866" lon="4.24146">
        <ele>441</ele>
        <time>2022-09-08T13:41:57Z</time>
      </trkpt>
      <trkpt lat="45.47837" lon="4.24181">
        <ele>441</ele>
        <time>2022-09-08T13:42:04Z</time>
      </trkpt>
      <trkpt lat="45.47821" lon="4.24191">
        <ele>442</ele>
        <time>2022-09-08T13:42:07Z</time>
      </trkpt>
      <trkpt lat="45.47806" lon="4.24197">
        <ele>443</ele>
        <time>2022-09-08T13:42:10Z</time>
      </trkpt>
      <trkpt lat="45.47697" lon="4.24197">
        <ele>451</ele>
        <time>2022-09-08T13:42:29Z</time>
      </trkpt>
      <trkpt lat="45.47635" lon="4.242">
        <ele>454</ele>
        <time>2022-09-08T13:42:40Z</time>
      </trkpt>
      <trkpt lat="45.47447" lon="4.24241">
        <ele>457</ele>
        <time>2022-09-08T13:43:14Z</time>
      </trkpt>
      <trkpt lat="45.47427" lon="4.24239">
        <ele>458</ele>
        <time>2022-09-08T13:43:18Z</time>
      </trkpt>
      <trkpt lat="45.4741" lon="4.24233">
        <ele>460</ele>
        <time>2022-09-08T13:43:21Z</time>
      </trkpt>
      <trkpt lat="45.47392" lon="4.24219">
        <ele>462</ele>
        <time>2022-09-08T13:43:24Z</time>
      </trkpt>
      <trkpt lat="45.47389" lon="4.24226">
        <ele>461</ele>
        <time>2022-09-08T13:43:25Z</time>
      </trkpt>
      <trkpt lat="45.47366" lon="4.24242">
        <ele>460</ele>
        <time>2022-09-08T13:43:30Z</time>
      </trkpt>
      <trkpt lat="45.47162" lon="4.2436">
        <ele>448</ele>
        <time>2022-09-08T13:44:09Z</time>
      </trkpt>
      <trkpt lat="45.4714" lon="4.24367">
        <ele>446</ele>
        <time>2022-09-08T13:44:13Z</time>
      </trkpt>
      <trkpt lat="45.47123" lon="4.24367">
        <ele>445</ele>
        <time>2022-09-08T13:44:16Z</time>
      </trkpt>
      <trkpt lat="45.47106" lon="4.2436">
        <ele>445</ele>
        <time>2022-09-08T13:44:19Z</time>
      </trkpt>
      <trkpt lat="45.47088" lon="4.2434">
        <ele>446</ele>
        <time>2022-09-08T13:44:23Z</time>
      </trkpt>
      <trkpt lat="45.47027" lon="4.24246">
        <ele>442</ele>
        <time>2022-09-08T13:44:39Z</time>
      </trkpt>
      <trkpt lat="45.46915" lon="4.2419">
        <ele>429</ele>
        <time>2022-09-08T13:45:00Z</time>
      </trkpt>
      <trkpt lat="45.46872" lon="4.24144">
        <ele>429</ele>
        <time>2022-09-08T13:45:10Z</time>
      </trkpt>
      <trkpt lat="45.46839" lon="4.24116">
        <ele>424</ele>
        <time>2022-09-08T13:45:17Z</time>
      </trkpt>
      <trkpt lat="45.46824" lon="4.24098">
        <ele>425</ele>
        <time>2022-09-08T13:45:20Z</time>
      </trkpt>
      <trkpt lat="45.46809" lon="4.24065">
        <ele>429</ele>
        <time>2022-09-08T13:45:25Z</time>
      </trkpt>
      <trkpt lat="45.46798" lon="4.24055">
        <ele>431</ele>
        <time>2022-09-08T13:45:28Z</time>
      </trkpt>
      <trkpt lat="45.46788" lon="4.24058">
        <ele>431</ele>
        <time>2022-09-08T13:45:29Z</time>
      </trkpt>
      <trkpt lat="45.4678" lon="4.24066">
        <ele>431</ele>
        <time>2022-09-08T13:45:31Z</time>
      </trkpt>
      <trkpt lat="45.46776" lon="4.24083">
        <ele>431</ele>
        <time>2022-09-08T13:45:33Z</time>
      </trkpt>
      <trkpt lat="45.46779" lon="4.24105">
        <ele>432</ele>
        <time>2022-09-08T13:45:36Z</time>
      </trkpt>
      <trkpt lat="45.46809" lon="4.24223">
        <ele>430</ele>
        <time>2022-09-08T13:45:52Z</time>
      </trkpt>
      <trkpt lat="45.46822" lon="4.24246">
        <ele>427</ele>
        <time>2022-09-08T13:45:55Z</time>
      </trkpt>
      <trkpt lat="45.46861" lon="4.24303">
        <ele>422</ele>
        <time>2022-09-08T13:46:05Z</time>
      </trkpt>
      <trkpt lat="45.46882" lon="4.24382">
        <ele>418</ele>
        <time>2022-09-08T13:46:16Z</time>
      </trkpt>
      <trkpt lat="45.46885" lon="4.24396">
        <ele>417</ele>
        <time>2022-09-08T13:46:18Z</time>
      </trkpt>
      <trkpt lat="45.46885" lon="4.24411">
        <ele>417</ele>
        <time>2022-09-08T13:46:20Z</time>
      </trkpt>
      <trkpt lat="45.4688" lon="4.24428">
        <ele>417</ele>
        <time>2022-09-08T13:46:22Z</time>
      </trkpt>
      <trkpt lat="45.46873" lon="4.24438">
        <ele>418</ele>
        <time>2022-09-08T13:46:24Z</time>
      </trkpt>
      <trkpt lat="45.46863" lon="4.24446">
        <ele>419</ele>
        <time>2022-09-08T13:46:26Z</time>
      </trkpt>
      <trkpt lat="45.46837" lon="4.24458">
        <ele>421</ele>
        <time>2022-09-08T13:46:31Z</time>
      </trkpt>
      <trkpt lat="45.46825" lon="4.24468">
        <ele>422</ele>
        <time>2022-09-08T13:46:33Z</time>
      </trkpt>
      <trkpt lat="45.46818" lon="4.24481">
        <ele>423</ele>
        <time>2022-09-08T13:46:35Z</time>
      </trkpt>
      <trkpt lat="45.46813" lon="4.24493">
        <ele>424</ele>
        <time>2022-09-08T13:46:37Z</time>
      </trkpt>
      <trkpt lat="45.46814" lon="4.24518">
        <ele>423</ele>
        <time>2022-09-08T13:46:40Z</time>
      </trkpt>
      <trkpt lat="45.46824" lon="4.2457">
        <ele>420</ele>
        <time>2022-09-08T13:46:47Z</time>
      </trkpt>
      <trkpt lat="45.46821" lon="4.24588">
        <ele>420</ele>
        <time>2022-09-08T13:46:49Z</time>
      </trkpt>
      <trkpt lat="45.46815" lon="4.24605">
        <ele>417</ele>
        <time>2022-09-08T13:46:51Z</time>
      </trkpt>
      <trkpt lat="45.4676" lon="4.24693">
        <ele>415</ele>
        <time>2022-09-08T13:47:06Z</time>
      </trkpt>
      <trkpt lat="45.46715" lon="4.24743">
        <ele>412</ele>
        <time>2022-09-08T13:47:16Z</time>
      </trkpt>
      <trkpt lat="45.46701" lon="4.24767">
        <ele>412</ele>
        <time>2022-09-08T13:47:20Z</time>
      </trkpt>
      <trkpt lat="45.46693" lon="4.24792">
        <ele>413</ele>
        <time>2022-09-08T13:47:24Z</time>
      </trkpt>
      <trkpt lat="45.4669" lon="4.24821">
        <ele>413</ele>
        <time>2022-09-08T13:47:27Z</time>
      </trkpt>
      <trkpt lat="45.46693" lon="4.24847">
        <ele>413</ele>
        <time>2022-09-08T13:47:31Z</time>
      </trkpt>
      <trkpt lat="45.46701" lon="4.24876">
        <ele>414</ele>
        <time>2022-09-08T13:47:34Z</time>
      </trkpt>
      <trkpt lat="45.46715" lon="4.24899">
        <ele>415</ele>
        <time>2022-09-08T13:47:38Z</time>
      </trkpt>
      <trkpt lat="45.46748" lon="4.24934">
        <ele>420</ele>
        <time>2022-09-08T13:47:46Z</time>
      </trkpt>
      <trkpt lat="45.46734" lon="4.24936">
        <ele>421</ele>
        <time>2022-09-08T13:47:48Z</time>
      </trkpt>
      <trkpt lat="45.46729" lon="4.2494">
        <ele>423</ele>
        <time>2022-09-08T13:47:49Z</time>
      </trkpt>
      <trkpt lat="45.4673" lon="4.24944">
        <ele>424</ele>
        <time>2022-09-08T13:47:50Z</time>
      </trkpt>
      <trkpt lat="45.46737" lon="4.24951">
        <ele>426</ele>
        <time>2022-09-08T13:47:51Z</time>
      </trkpt>
      <trkpt lat="45.46743" lon="4.24981">
        <ele>435</ele>
        <time>2022-09-08T13:47:55Z</time>
      </trkpt>
      <trkpt lat="45.4676" lon="4.24997">
        <ele>441</ele>
        <time>2022-09-08T13:47:59Z</time>
      </trkpt>
      <trkpt lat="45.46745" lon="4.25019">
        <ele>446</ele>
        <time>2022-09-08T13:48:02Z</time>
      </trkpt>
      <trkpt lat="45.46752" lon="4.25035">
        <ele>450</ele>
        <time>2022-09-08T13:48:05Z</time>
      </trkpt>
      <trkpt lat="45.46742" lon="4.25056">
        <ele>454</ele>
        <time>2022-09-08T13:48:08Z</time>
      </trkpt>
      <trkpt lat="45.46733" lon="4.25063">
        <ele>455</ele>
        <time>2022-09-08T13:48:10Z</time>
      </trkpt>
      <trkpt lat="45.46702" lon="4.25102">
        <ele>457</ele>
        <time>2022-09-08T13:48:17Z</time>
      </trkpt>
      <trkpt lat="45.46688" lon="4.25128">
        <ele>459</ele>
        <time>2022-09-08T13:48:21Z</time>
      </trkpt>
      <trkpt lat="45.46665" lon="4.25157">
        <ele>460</ele>
        <time>2022-09-08T13:48:27Z</time>
      </trkpt>
      <trkpt lat="45.46661" lon="4.25169">
        <ele>461</ele>
        <time>2022-09-08T13:48:28Z</time>
      </trkpt>
      <trkpt lat="45.46664" lon="4.25184">
        <ele>461</ele>
        <time>2022-09-08T13:48:30Z</time>
      </trkpt>
      <trkpt lat="45.4667" lon="4.25199">
        <ele>462</ele>
        <time>2022-09-08T13:48:32Z</time>
      </trkpt>
      <trkpt lat="45.4668" lon="4.25213">
        <ele>464</ele>
        <time>2022-09-08T13:48:35Z</time>
      </trkpt>
      <trkpt lat="45.46693" lon="4.25223">
        <ele>466</ele>
        <time>2022-09-08T13:48:38Z</time>
      </trkpt>
      <trkpt lat="45.46696" lon="4.25238">
        <ele>466</ele>
        <time>2022-09-08T13:48:40Z</time>
      </trkpt>
      <trkpt lat="45.46726" lon="4.25317">
        <ele>469</ele>
        <time>2022-09-08T13:48:51Z</time>
      </trkpt>
      <trkpt lat="45.46737" lon="4.25338">
        <ele>470</ele>
        <time>2022-09-08T13:48:54Z</time>
      </trkpt>
      <trkpt lat="45.46751" lon="4.25355">
        <ele>471</ele>
        <time>2022-09-08T13:48:57Z</time>
      </trkpt>
      <trkpt lat="45.46806" lon="4.25404">
        <ele>475</ele>
        <time>2022-09-08T13:49:09Z</time>
      </trkpt>
      <trkpt lat="45.46818" lon="4.25411">
        <ele>477</ele>
        <time>2022-09-08T13:49:11Z</time>
      </trkpt>
      <trkpt lat="45.46878" lon="4.25424">
        <ele>482</ele>
        <time>2022-09-08T13:49:22Z</time>
      </trkpt>
      <trkpt lat="45.46962" lon="4.25446">
        <ele>484</ele>
        <time>2022-09-08T13:49:37Z</time>
      </trkpt>
      <trkpt lat="45.47006" lon="4.25465">
        <ele>485</ele>
        <time>2022-09-08T13:49:45Z</time>
      </trkpt>
      <trkpt lat="45.47109" lon="4.25526">
        <ele>487</ele>
        <time>2022-09-08T13:50:05Z</time>
      </trkpt>
      <trkpt lat="45.4714" lon="4.25551">
        <ele>487</ele>
        <time>2022-09-08T13:50:12Z</time>
      </trkpt>
      <trkpt lat="45.47161" lon="4.25572">
        <ele>488</ele>
        <time>2022-09-08T13:50:16Z</time>
      </trkpt>
      <trkpt lat="45.47185" lon="4.25605">
        <ele>488</ele>
        <time>2022-09-08T13:50:22Z</time>
      </trkpt>
      <trkpt lat="45.47217" lon="4.25669">
        <ele>489</ele>
        <time>2022-09-08T13:50:32Z</time>
      </trkpt>
      <trkpt lat="45.47235" lon="4.25738">
        <ele>491</ele>
        <time>2022-09-08T13:50:41Z</time>
      </trkpt>
      <trkpt lat="45.47256" lon="4.25869">
        <ele>497</ele>
        <time>2022-09-08T13:50:58Z</time>
      </trkpt>
      <trkpt lat="45.47253" lon="4.25944">
        <ele>499</ele>
        <time>2022-09-08T13:51:07Z</time>
      </trkpt>
      <trkpt lat="45.47241" lon="4.25982">
        <ele>500</ele>
        <time>2022-09-08T13:51:12Z</time>
      </trkpt>
      <trkpt lat="45.47216" lon="4.26014">
        <ele>500</ele>
        <time>2022-09-08T13:51:18Z</time>
      </trkpt>
      <trkpt lat="45.47129" lon="4.26051">
        <ele>502</ele>
        <time>2022-09-08T13:51:34Z</time>
      </trkpt>
      <trkpt lat="45.47103" lon="4.2607">
        <ele>503</ele>
        <time>2022-09-08T13:51:40Z</time>
      </trkpt>
      <trkpt lat="45.47084" lon="4.26099">
        <ele>504</ele>
        <time>2022-09-08T13:51:45Z</time>
      </trkpt>
      <trkpt lat="45.47074" lon="4.2612">
        <ele>504</ele>
        <time>2022-09-08T13:51:48Z</time>
      </trkpt>
      <trkpt lat="45.4706" lon="4.26169">
        <ele>507</ele>
        <time>2022-09-08T13:51:54Z</time>
      </trkpt>
      <trkpt lat="45.47058" lon="4.26203">
        <ele>508</ele>
        <time>2022-09-08T13:51:59Z</time>
      </trkpt>
      <trkpt lat="45.47062" lon="4.26246">
        <ele>509</ele>
        <time>2022-09-08T13:52:04Z</time>
      </trkpt>
      <trkpt lat="45.47109" lon="4.2635">
        <ele>509</ele>
        <time>2022-09-08T13:52:20Z</time>
      </trkpt>
      <trkpt lat="45.47125" lon="4.26395">
        <ele>510</ele>
        <time>2022-09-08T13:52:26Z</time>
      </trkpt>
      <trkpt lat="45.47121" lon="4.26439">
        <ele>511</ele>
        <time>2022-09-08T13:52:31Z</time>
      </trkpt>
      <trkpt lat="45.47107" lon="4.26485">
        <ele>513</ele>
        <time>2022-09-08T13:52:38Z</time>
      </trkpt>
      <trkpt lat="45.47045" lon="4.26543">
        <ele>519</ele>
        <time>2022-09-08T13:52:51Z</time>
      </trkpt>
      <trkpt lat="45.47022" lon="4.26576">
        <ele>520</ele>
        <time>2022-09-08T13:52:57Z</time>
      </trkpt>
      <trkpt lat="45.47004" lon="4.26618">
        <ele>522</ele>
        <time>2022-09-08T13:53:03Z</time>
      </trkpt>
      <trkpt lat="45.46994" lon="4.26667">
        <ele>523</ele>
        <time>2022-09-08T13:53:09Z</time>
      </trkpt>
      <trkpt lat="45.46985" lon="4.26729">
        <ele>524</ele>
        <time>2022-09-08T13:53:17Z</time>
      </trkpt>
      <trkpt lat="45.46982" lon="4.26779">
        <ele>525</ele>
        <time>2022-09-08T13:53:23Z</time>
      </trkpt>
      <trkpt lat="45.46988" lon="4.26821">
        <ele>528</ele>
        <time>2022-09-08T13:53:29Z</time>
      </trkpt>
      <trkpt lat="45.47002" lon="4.26864">
        <ele>531</ele>
        <time>2022-09-08T13:53:35Z</time>
      </trkpt>
      <trkpt lat="45.47023" lon="4.269">
        <ele>532</ele>
        <time>2022-09-08T13:53:40Z</time>
      </trkpt>
      <trkpt lat="45.47143" lon="4.27042">
        <ele>535</ele>
        <time>2022-09-08T13:54:08Z</time>
      </trkpt>
      <trkpt lat="45.4716" lon="4.27079">
        <ele>537</ele>
        <time>2022-09-08T13:54:14Z</time>
      </trkpt>
      <trkpt lat="45.47168" lon="4.27114">
        <ele>538</ele>
        <time>2022-09-08T13:54:18Z</time>
      </trkpt>
      <trkpt lat="45.47175" lon="4.27203">
        <ele>541</ele>
        <time>2022-09-08T13:54:29Z</time>
      </trkpt>
      <trkpt lat="45.47186" lon="4.27243">
        <ele>542</ele>
        <time>2022-09-08T13:54:35Z</time>
      </trkpt>
      <trkpt lat="45.47239" lon="4.27314">
        <ele>542</ele>
        <time>2022-09-08T13:54:48Z</time>
      </trkpt>
      <trkpt lat="45.47267" lon="4.27361">
        <ele>541</ele>
        <time>2022-09-08T13:54:55Z</time>
      </trkpt>
      <trkpt lat="45.47268" lon="4.27416">
        <ele>542</ele>
        <time>2022-09-08T13:55:02Z</time>
      </trkpt>
      <trkpt lat="45.47262" lon="4.27485">
        <ele>542</ele>
        <time>2022-09-08T13:55:11Z</time>
      </trkpt>
      <trkpt lat="45.47251" lon="4.27546">
        <ele>543</ele>
        <time>2022-09-08T13:55:19Z</time>
      </trkpt>
      <trkpt lat="45.47235" lon="4.276">
        <ele>545</ele>
        <time>2022-09-08T13:55:26Z</time>
      </trkpt>
      <trkpt lat="45.47216" lon="4.27644">
        <ele>547</ele>
        <time>2022-09-08T13:55:33Z</time>
      </trkpt>
      <trkpt lat="45.47203" lon="4.27721">
        <ele>547</ele>
        <time>2022-09-08T13:55:42Z</time>
      </trkpt>
      <trkpt lat="45.47196" lon="4.27836">
        <ele>549</ele>
        <time>2022-09-08T13:55:57Z</time>
      </trkpt>
      <trkpt lat="45.47209" lon="4.27887">
        <ele>549</ele>
        <time>2022-09-08T13:56:04Z</time>
      </trkpt>
      <trkpt lat="45.47249" lon="4.27944">
        <ele>549</ele>
        <time>2022-09-08T13:56:14Z</time>
      </trkpt>
      <trkpt lat="45.47287" lon="4.27964">
        <ele>550</ele>
        <time>2022-09-08T13:56:21Z</time>
      </trkpt>
      <trkpt lat="45.47341" lon="4.27984">
        <ele>552</ele>
        <time>2022-09-08T13:56:31Z</time>
      </trkpt>
      <trkpt lat="45.47363" lon="4.28006">
        <ele>552</ele>
        <time>2022-09-08T13:56:36Z</time>
      </trkpt>
      <trkpt lat="45.47376" lon="4.28025">
        <ele>552</ele>
        <time>2022-09-08T13:56:39Z</time>
      </trkpt>
      <trkpt lat="45.47387" lon="4.28079">
        <ele>555</ele>
        <time>2022-09-08T13:56:46Z</time>
      </trkpt>
      <trkpt lat="45.47386" lon="4.28169">
        <ele>558</ele>
        <time>2022-09-08T13:56:57Z</time>
      </trkpt>
      <trkpt lat="45.47395" lon="4.28373">
        <ele>569</ele>
        <time>2022-09-08T13:57:23Z</time>
      </trkpt>
      <trkpt lat="45.47426" lon="4.28437">
        <ele>573</ele>
        <time>2022-09-08T13:57:32Z</time>
      </trkpt>
      <trkpt lat="45.47532" lon="4.28562">
        <ele>578</ele>
        <time>2022-09-08T13:57:57Z</time>
      </trkpt>
      <trkpt lat="45.47546" lon="4.2861">
        <ele>580</ele>
        <time>2022-09-08T13:58:03Z</time>
      </trkpt>
      <trkpt lat="45.47546" lon="4.28686">
        <ele>582</ele>
        <time>2022-09-08T13:58:13Z</time>
      </trkpt>
      <trkpt lat="45.47531" lon="4.28845">
        <ele>582</ele>
        <time>2022-09-08T13:58:33Z</time>
      </trkpt>
      <trkpt lat="45.47531" lon="4.28899">
        <ele>583</ele>
        <time>2022-09-08T13:58:40Z</time>
      </trkpt>
      <trkpt lat="45.47568" lon="4.2908">
        <ele>591</ele>
        <time>2022-09-08T13:59:03Z</time>
      </trkpt>
      <trkpt lat="45.47591" lon="4.29127">
        <ele>595</ele>
        <time>2022-09-08T13:59:10Z</time>
      </trkpt>
      <trkpt lat="45.47614" lon="4.29155">
        <ele>597</ele>
        <time>2022-09-08T13:59:16Z</time>
      </trkpt>
      <trkpt lat="45.47913" lon="4.2946">
        <ele>614</ele>
        <time>2022-09-08T14:00:21Z</time>
      </trkpt>
      <trkpt lat="45.47941" lon="4.29501">
        <ele>616</ele>
        <time>2022-09-08T14:00:28Z</time>
      </trkpt>
      <trkpt lat="45.47968" lon="4.29581">
        <ele>627</ele>
        <time>2022-09-08T14:00:39Z</time>
      </trkpt>
      <trkpt lat="45.47995" lon="4.29618">
        <ele>627</ele>
        <time>2022-09-08T14:00:46Z</time>
      </trkpt>
      <trkpt lat="45.48071" lon="4.29692">
        <ele>629</ele>
        <time>2022-09-08T14:01:02Z</time>
      </trkpt>
      <trkpt lat="45.48088" lon="4.29721">
        <ele>629</ele>
        <time>2022-09-08T14:01:07Z</time>
      </trkpt>
      <trkpt lat="45.48095" lon="4.29745">
        <ele>630</ele>
        <time>2022-09-08T14:01:10Z</time>
      </trkpt>
      <trkpt lat="45.48098" lon="4.29775">
        <ele>629</ele>
        <time>2022-09-08T14:01:14Z</time>
      </trkpt>
      <trkpt lat="45.48094" lon="4.29804">
        <ele>629</ele>
        <time>2022-09-08T14:01:18Z</time>
      </trkpt>
      <trkpt lat="45.48089" lon="4.29821">
        <ele>630</ele>
        <time>2022-09-08T14:01:20Z</time>
      </trkpt>
      <trkpt lat="45.47892" lon="4.30256">
        <ele>633</ele>
        <time>2022-09-08T14:02:25Z</time>
      </trkpt>
      <trkpt lat="45.47878" lon="4.30306">
        <ele>635</ele>
        <time>2022-09-08T14:02:31Z</time>
      </trkpt>
      <trkpt lat="45.47863" lon="4.30491">
        <ele>633</ele>
        <time>2022-09-08T14:02:55Z</time>
      </trkpt>
      <trkpt lat="45.4786" lon="4.30566">
        <ele>631</ele>
        <time>2022-09-08T14:03:04Z</time>
      </trkpt>
      <trkpt lat="45.47877" lon="4.30721">
        <ele>629</ele>
        <time>2022-09-08T14:03:23Z</time>
      </trkpt>
      <trkpt lat="45.47872" lon="4.30764">
        <ele>628</ele>
        <time>2022-09-08T14:03:29Z</time>
      </trkpt>
      <trkpt lat="45.4786" lon="4.30796">
        <ele>627</ele>
        <time>2022-09-08T14:03:33Z</time>
      </trkpt>
      <trkpt lat="45.4782" lon="4.30844">
        <ele>626</ele>
        <time>2022-09-08T14:03:43Z</time>
      </trkpt>
      <trkpt lat="45.47564" lon="4.31064">
        <ele>616</ele>
        <time>2022-09-08T14:04:36Z</time>
      </trkpt>
      <trkpt lat="45.47551" lon="4.31071">
        <ele>615</ele>
        <time>2022-09-08T14:04:38Z</time>
      </trkpt>
      <trkpt lat="45.47533" lon="4.31077">
        <ele>614</ele>
        <time>2022-09-08T14:04:42Z</time>
      </trkpt>
      <trkpt lat="45.47366" lon="4.31096">
        <ele>607</ele>
        <time>2022-09-08T14:05:12Z</time>
      </trkpt>
      <trkpt lat="45.4731" lon="4.31098">
        <ele>605</ele>
        <time>2022-09-08T14:05:21Z</time>
      </trkpt>
      <trkpt lat="45.47304" lon="4.31138">
        <ele>603</ele>
        <time>2022-09-08T14:05:27Z</time>
      </trkpt>
      <trkpt lat="45.47313" lon="4.31151">
        <ele>602</ele>
        <time>2022-09-08T14:05:29Z</time>
      </trkpt>
      <trkpt lat="45.47282" lon="4.31129">
        <ele>602</ele>
        <time>2022-09-08T14:05:35Z</time>
      </trkpt>
      <trkpt lat="45.47272" lon="4.31125">
        <ele>602</ele>
        <time>2022-09-08T14:05:37Z</time>
      </trkpt>
      <trkpt lat="45.47282" lon="4.31129">
        <ele>602</ele>
        <time>2022-09-08T14:05:39Z</time>
      </trkpt>
      <trkpt lat="45.47313" lon="4.31151">
        <ele>602</ele>
        <time>2022-09-08T14:05:45Z</time>
      </trkpt>
      <trkpt lat="45.47304" lon="4.31138">
        <ele>603</ele>
        <time>2022-09-08T14:05:47Z</time>
      </trkpt>
      <trkpt lat="45.47304" lon="4.31127">
        <ele>603</ele>
        <time>2022-09-08T14:05:49Z</time>
      </trkpt>
      <trkpt lat="45.4727" lon="4.31107">
        <ele>602</ele>
        <time>2022-09-08T14:05:55Z</time>
      </trkpt>
      <trkpt lat="45.47252" lon="4.31104">
        <ele>602</ele>
        <time>2022-09-08T14:05:58Z</time>
      </trkpt>
      <trkpt lat="45.47163" lon="4.3111">
        <ele>603</ele>
        <time>2022-09-08T14:06:14Z</time>
      </trkpt>
      <trkpt lat="45.47136" lon="4.31118">
        <ele>603</ele>
        <time>2022-09-08T14:06:19Z</time>
      </trkpt>
      <trkpt lat="45.47115" lon="4.31128">
        <ele>604</ele>
        <time>2022-09-08T14:06:23Z</time>
      </trkpt>
      <trkpt lat="45.47102" lon="4.31138">
        <ele>604</ele>
        <time>2022-09-08T14:06:26Z</time>
      </trkpt>
      <trkpt lat="45.4708" lon="4.31164">
        <ele>604</ele>
        <time>2022-09-08T14:06:31Z</time>
      </trkpt>
      <trkpt lat="45.4693" lon="4.31394">
        <ele>602</ele>
        <time>2022-09-08T14:07:10Z</time>
      </trkpt>
      <trkpt lat="45.46904" lon="4.31429">
        <ele>602</ele>
        <time>2022-09-08T14:07:16Z</time>
      </trkpt>
      <trkpt lat="45.46823" lon="4.31524">
        <ele>599</ele>
        <time>2022-09-08T14:07:35Z</time>
      </trkpt>
      <trkpt lat="45.46792" lon="4.31565">
        <ele>599</ele>
        <time>2022-09-08T14:07:42Z</time>
      </trkpt>
      <trkpt lat="45.46761" lon="4.31631">
        <ele>595</ele>
        <time>2022-09-08T14:07:52Z</time>
      </trkpt>
      <trkpt lat="45.46733" lon="4.31713">
        <ele>587</ele>
        <time>2022-09-08T14:08:04Z</time>
      </trkpt>
      <trkpt lat="45.46719" lon="4.31747">
        <ele>585</ele>
        <time>2022-09-08T14:08:09Z</time>
      </trkpt>
      <trkpt lat="45.46545" lon="4.32047">
        <ele>571</ele>
        <time>2022-09-08T14:08:57Z</time>
      </trkpt>
      <trkpt lat="45.46526" lon="4.32102">
        <ele>571</ele>
        <time>2022-09-08T14:09:05Z</time>
      </trkpt>
      <trkpt lat="45.46504" lon="4.32131">
        <ele>572</ele>
        <time>2022-09-08T14:09:10Z</time>
      </trkpt>
      <trkpt lat="45.46492" lon="4.32139">
        <ele>573</ele>
        <time>2022-09-08T14:09:13Z</time>
      </trkpt>
      <trkpt lat="45.46487" lon="4.32153">
        <ele>574</ele>
        <time>2022-09-08T14:09:15Z</time>
      </trkpt>
      <trkpt lat="45.46487" lon="4.32161">
        <ele>574</ele>
        <time>2022-09-08T14:09:16Z</time>
      </trkpt>
      <trkpt lat="45.46443" lon="4.32223">
        <ele>575</ele>
        <time>2022-09-08T14:09:27Z</time>
      </trkpt>
      <trkpt lat="45.4628" lon="4.32503">
        <ele>574</ele>
        <time>2022-09-08T14:10:12Z</time>
      </trkpt>
      <trkpt lat="45.46233" lon="4.32578">
        <ele>572</ele>
        <time>2022-09-08T14:10:25Z</time>
      </trkpt>
      <trkpt lat="45.46224" lon="4.32597">
        <ele>571</ele>
        <time>2022-09-08T14:10:27Z</time>
      </trkpt>
      <trkpt lat="45.46197" lon="4.32639">
        <ele>570</ele>
        <time>2022-09-08T14:10:34Z</time>
      </trkpt>
      <trkpt lat="45.46106" lon="4.32795">
        <ele>573</ele>
        <time>2022-09-08T14:11:00Z</time>
      </trkpt>
      <trkpt lat="45.4608" lon="4.32856">
        <ele>574</ele>
        <time>2022-09-08T14:11:09Z</time>
      </trkpt>
      <trkpt lat="45.46026" lon="4.32967">
        <ele>576</ele>
        <time>2022-09-08T14:11:26Z</time>
      </trkpt>
      <trkpt lat="45.45995" lon="4.33023">
        <ele>578</ele>
        <time>2022-09-08T14:11:34Z</time>
      </trkpt>
      <trkpt lat="45.45976" lon="4.3305">
        <ele>579</ele>
        <time>2022-09-08T14:11:39Z</time>
      </trkpt>
      <trkpt lat="45.45931" lon="4.33096">
        <ele>579</ele>
        <time>2022-09-08T14:11:49Z</time>
      </trkpt>
      <trkpt lat="45.45807" lon="4.3321">
        <ele>581</ele>
        <time>2022-09-08T14:12:15Z</time>
      </trkpt>
      <trkpt lat="45.45776" lon="4.33242">
        <ele>581</ele>
        <time>2022-09-08T14:12:22Z</time>
      </trkpt>
      <trkpt lat="45.45712" lon="4.33354">
        <ele>576</ele>
        <time>2022-09-08T14:12:40Z</time>
      </trkpt>
      <trkpt lat="45.45684" lon="4.33389">
        <ele>575</ele>
        <time>2022-09-08T14:12:47Z</time>
      </trkpt>
      <trkpt lat="45.45649" lon="4.33418">
        <ele>575</ele>
        <time>2022-09-08T14:12:54Z</time>
      </trkpt>
      <trkpt lat="45.45623" lon="4.33435">
        <ele>576</ele>
        <time>2022-09-08T14:12:59Z</time>
      </trkpt>
      <trkpt lat="45.45486" lon="4.33492">
        <ele>576</ele>
        <time>2022-09-08T14:13:24Z</time>
      </trkpt>
      <trkpt lat="45.45447" lon="4.33501">
        <ele>575</ele>
        <time>2022-09-08T14:13:32Z</time>
      </trkpt>
      <trkpt lat="45.45419" lon="4.33503">
        <ele>575</ele>
        <time>2022-09-08T14:13:37Z</time>
      </trkpt>
      <trkpt lat="45.45391" lon="4.33501">
        <ele>575</ele>
        <time>2022-09-08T14:13:42Z</time>
      </trkpt>
      <trkpt lat="45.45335" lon="4.33482">
        <ele>576</ele>
        <time>2022-09-08T14:13:52Z</time>
      </trkpt>
      <trkpt lat="45.4532" lon="4.33479">
        <ele>576</ele>
        <time>2022-09-08T14:13:54Z</time>
      </trkpt>
      <trkpt lat="45.45224" lon="4.33475">
        <ele>578</ele>
        <time>2022-09-08T14:14:12Z</time>
      </trkpt>
      <trkpt lat="45.45129" lon="4.33462">
        <ele>579</ele>
        <time>2022-09-08T14:14:29Z</time>
      </trkpt>
      <trkpt lat="45.45041" lon="4.33472">
        <ele>578</ele>
        <time>2022-09-08T14:14:44Z</time>
      </trkpt>
      <trkpt lat="45.45001" lon="4.33469">
        <ele>578</ele>
        <time>2022-09-08T14:14:51Z</time>
      </trkpt>
      <trkpt lat="45.44932" lon="4.33415">
        <ele>582</ele>
        <time>2022-09-08T14:15:05Z</time>
      </trkpt>
      <trkpt lat="45.4492" lon="4.33412">
        <ele>582</ele>
        <time>2022-09-08T14:15:08Z</time>
      </trkpt>
      <trkpt lat="45.44899" lon="4.33415">
        <ele>581</ele>
        <time>2022-09-08T14:15:11Z</time>
      </trkpt>
      <trkpt lat="45.44888" lon="4.33422">
        <ele>580</ele>
        <time>2022-09-08T14:15:13Z</time>
      </trkpt>
      <trkpt lat="45.44878" lon="4.33432">
        <ele>579</ele>
        <time>2022-09-08T14:15:16Z</time>
      </trkpt>
      <trkpt lat="45.44872" lon="4.33443">
        <ele>579</ele>
        <time>2022-09-08T14:15:17Z</time>
      </trkpt>
      <trkpt lat="45.44867" lon="4.33445">
        <ele>579</ele>
        <time>2022-09-08T14:15:18Z</time>
      </trkpt>
      <trkpt lat="45.44863" lon="4.33458">
        <ele>578</ele>
        <time>2022-09-08T14:15:20Z</time>
      </trkpt>
      <trkpt lat="45.44729" lon="4.33561">
        <ele>578</ele>
        <time>2022-09-08T14:15:47Z</time>
      </trkpt>
      <trkpt lat="45.44667" lon="4.33612">
        <ele>577</ele>
        <time>2022-09-08T14:16:00Z</time>
      </trkpt>
      <trkpt lat="45.44646" lon="4.33618">
        <ele>577</ele>
        <time>2022-09-08T14:16:04Z</time>
      </trkpt>
      <trkpt lat="45.4464" lon="4.33615">
        <ele>577</ele>
        <time>2022-09-08T14:16:05Z</time>
      </trkpt>
      <trkpt lat="45.44622" lon="4.3363">
        <ele>577</ele>
        <time>2022-09-08T14:16:09Z</time>
      </trkpt>
      <trkpt lat="45.4462" lon="4.33637">
        <ele>576</ele>
        <time>2022-09-08T14:16:09Z</time>
      </trkpt>
      <trkpt lat="45.44624" lon="4.33648">
        <ele>576</ele>
        <time>2022-09-08T14:16:11Z</time>
      </trkpt>
      <trkpt lat="45.4462" lon="4.33675">
        <ele>575</ele>
        <time>2022-09-08T14:16:14Z</time>
      </trkpt>
      <trkpt lat="45.44621" lon="4.33782">
        <ele>568</ele>
        <time>2022-09-08T14:16:28Z</time>
      </trkpt>
      <trkpt lat="45.44616" lon="4.33829">
        <ele>563</ele>
        <time>2022-09-08T14:16:34Z</time>
      </trkpt>
      <trkpt lat="45.44608" lon="4.33865">
        <ele>560</ele>
        <time>2022-09-08T14:16:38Z</time>
      </trkpt>
      <trkpt lat="45.44591" lon="4.33897">
        <ele>558</ele>
        <time>2022-09-08T14:16:43Z</time>
      </trkpt>
      <trkpt lat="45.44528" lon="4.33948">
        <ele>563</ele>
        <time>2022-09-08T14:16:56Z</time>
      </trkpt>
      <trkpt lat="45.44524" lon="4.33961">
        <ele>562</ele>
        <time>2022-09-08T14:16:58Z</time>
      </trkpt>
      <trkpt lat="45.44523" lon="4.33976">
        <ele>560</ele>
        <time>2022-09-08T14:17:00Z</time>
      </trkpt>
      <trkpt lat="45.44542" lon="4.34022">
        <ele>552</ele>
        <time>2022-09-08T14:17:07Z</time>
      </trkpt>
      <trkpt lat="45.44547" lon="4.34041">
        <ele>548</ele>
        <time>2022-09-08T14:17:09Z</time>
      </trkpt>
      <trkpt lat="45.44545" lon="4.34061">
        <ele>547</ele>
        <time>2022-09-08T14:17:12Z</time>
      </trkpt>
      <trkpt lat="45.44527" lon="4.34135">
        <ele>543</ele>
        <time>2022-09-08T14:17:21Z</time>
      </trkpt>
      <trkpt lat="45.44518" lon="4.34213">
        <ele>536</ele>
        <time>2022-09-08T14:17:31Z</time>
      </trkpt>
      <trkpt lat="45.44519" lon="4.34222">
        <ele>535</ele>
        <time>2022-09-08T14:17:32Z</time>
      </trkpt>
      <trkpt lat="45.44526" lon="4.34224">
        <ele>533</ele>
        <time>2022-09-08T14:17:34Z</time>
      </trkpt>
      <trkpt lat="45.44532" lon="4.3422">
        <ele>532</ele>
        <time>2022-09-08T14:17:35Z</time>
      </trkpt>
      <trkpt lat="45.44573" lon="4.34148">
        <ele>532</ele>
        <time>2022-09-08T14:17:47Z</time>
      </trkpt>
      <trkpt lat="45.44588" lon="4.34129">
        <ele>531</ele>
        <time>2022-09-08T14:17:50Z</time>
      </trkpt>
      <trkpt lat="45.446" lon="4.34122">
        <ele>530</ele>
        <time>2022-09-08T14:17:52Z</time>
      </trkpt>
      <trkpt lat="45.44621" lon="4.34116">
        <ele>528</ele>
        <time>2022-09-08T14:17:56Z</time>
      </trkpt>
      <trkpt lat="45.4463" lon="4.34117">
        <ele>527</ele>
        <time>2022-09-08T14:17:58Z</time>
      </trkpt>
      <trkpt lat="45.44635" lon="4.34122">
        <ele>526</ele>
        <time>2022-09-08T14:17:59Z</time>
      </trkpt>
      <trkpt lat="45.44638" lon="4.3413">
        <ele>525</ele>
        <time>2022-09-08T14:18:00Z</time>
      </trkpt>
      <trkpt lat="45.44638" lon="4.34141">
        <ele>524</ele>
        <time>2022-09-08T14:18:01Z</time>
      </trkpt>
      <trkpt lat="45.4463" lon="4.34167">
        <ele>522</ele>
        <time>2022-09-08T14:18:05Z</time>
      </trkpt>
      <trkpt lat="45.44549" lon="4.34375">
        <ele>504</ele>
        <time>2022-09-08T14:18:35Z</time>
      </trkpt>
      <trkpt lat="45.4452" lon="4.34406">
        <ele>502</ele>
        <time>2022-09-08T14:18:41Z</time>
      </trkpt>
      <trkpt lat="45.44503" lon="4.34432">
        <ele>499</ele>
        <time>2022-09-08T14:18:46Z</time>
      </trkpt>
      <trkpt lat="45.44463" lon="4.34564">
        <ele>489</ele>
        <time>2022-09-08T14:19:03Z</time>
      </trkpt>
      <trkpt lat="45.44459" lon="4.34612">
        <ele>486</ele>
        <time>2022-09-08T14:19:10Z</time>
      </trkpt>
      <trkpt lat="45.44462" lon="4.34744">
        <ele>482</ele>
        <time>2022-09-08T14:19:26Z</time>
      </trkpt>
      <trkpt lat="45.44473" lon="4.34838">
        <ele>484</ele>
        <time>2022-09-08T14:19:38Z</time>
      </trkpt>
      <trkpt lat="45.44496" lon="4.34973">
        <ele>492</ele>
        <time>2022-09-08T14:19:55Z</time>
      </trkpt>
      <trkpt lat="45.44499" lon="4.34981">
        <ele>493</ele>
        <time>2022-09-08T14:19:56Z</time>
      </trkpt>
      <trkpt lat="45.44509" lon="4.34985">
        <ele>494</ele>
        <time>2022-09-08T14:19:58Z</time>
      </trkpt>
      <trkpt lat="45.44574" lon="4.34952">
        <ele>496</ele>
        <time>2022-09-08T14:20:11Z</time>
      </trkpt>
      <trkpt lat="45.44682" lon="4.34925">
        <ele>506</ele>
        <time>2022-09-08T14:20:30Z</time>
      </trkpt>
      <trkpt lat="45.44703" lon="4.34922">
        <ele>506</ele>
        <time>2022-09-08T14:20:34Z</time>
      </trkpt>
      <trkpt lat="45.44738" lon="4.3493">
        <ele>509</ele>
        <time>2022-09-08T14:20:40Z</time>
      </trkpt>
      <trkpt lat="45.44759" lon="4.34925">
        <ele>509</ele>
        <time>2022-09-08T14:20:44Z</time>
      </trkpt>
      <trkpt lat="45.4484" lon="4.34882">
        <ele>504</ele>
        <time>2022-09-08T14:20:59Z</time>
      </trkpt>
      <trkpt lat="45.44858" lon="4.34877">
        <ele>504</ele>
        <time>2022-09-08T14:21:03Z</time>
      </trkpt>
      <trkpt lat="45.44874" lon="4.34876">
        <ele>505</ele>
        <time>2022-09-08T14:21:05Z</time>
      </trkpt>
      <trkpt lat="45.44916" lon="4.34879">
        <ele>508</ele>
        <time>2022-09-08T14:21:13Z</time>
      </trkpt>
      <trkpt lat="45.44932" lon="4.34872">
        <ele>510</ele>
        <time>2022-09-08T14:21:16Z</time>
      </trkpt>
      <trkpt lat="45.44946" lon="4.34853">
        <ele>510</ele>
        <time>2022-09-08T14:21:19Z</time>
      </trkpt>
      <trkpt lat="45.44959" lon="4.34812">
        <ele>507</ele>
        <time>2022-09-08T14:21:25Z</time>
      </trkpt>
      <trkpt lat="45.44989" lon="4.34745">
        <ele>506</ele>
        <time>2022-09-08T14:21:35Z</time>
      </trkpt>
      <trkpt lat="45.45054" lon="4.34559">
        <ele>490</ele>
        <time>2022-09-08T14:22:01Z</time>
      </trkpt>
      <trkpt lat="45.45064" lon="4.34539">
        <ele>488</ele>
        <time>2022-09-08T14:22:04Z</time>
      </trkpt>
      <trkpt lat="45.45105" lon="4.34487">
        <ele>484</ele>
        <time>2022-09-08T14:22:14Z</time>
      </trkpt>
      <trkpt lat="45.45223" lon="4.34327">
        <ele>474</ele>
        <time>2022-09-08T14:22:43Z</time>
      </trkpt>
      <trkpt lat="45.45236" lon="4.34313">
        <ele>474</ele>
        <time>2022-09-08T14:22:45Z</time>
      </trkpt>
      <trkpt lat="45.45314" lon="4.34256">
        <ele>475</ele>
        <time>2022-09-08T14:23:01Z</time>
      </trkpt>
      <trkpt lat="45.45394" lon="4.34205">
        <ele>475</ele>
        <time>2022-09-08T14:23:17Z</time>
      </trkpt>
      <trkpt lat="45.45421" lon="4.34193">
        <ele>474</ele>
        <time>2022-09-08T14:23:22Z</time>
      </trkpt>
      <trkpt lat="45.45508" lon="4.34171">
        <ele>471</ele>
        <time>2022-09-08T14:23:37Z</time>
      </trkpt>
      <trkpt lat="45.45527" lon="4.34168">
        <ele>470</ele>
        <time>2022-09-08T14:23:41Z</time>
      </trkpt>
      <trkpt lat="45.45545" lon="4.34171">
        <ele>470</ele>
        <time>2022-09-08T14:23:44Z</time>
      </trkpt>
      <trkpt lat="45.45577" lon="4.34188">
        <ele>470</ele>
        <time>2022-09-08T14:23:50Z</time>
      </trkpt>
      <trkpt lat="45.45663" lon="4.34253">
        <ele>469</ele>
        <time>2022-09-08T14:24:07Z</time>
      </trkpt>
      <trkpt lat="45.45692" lon="4.34269">
        <ele>469</ele>
        <time>2022-09-08T14:24:13Z</time>
      </trkpt>
      <trkpt lat="45.45799" lon="4.34306">
        <ele>468</ele>
        <time>2022-09-08T14:24:33Z</time>
      </trkpt>
      <trkpt lat="45.45845" lon="4.34319">
        <ele>467</ele>
        <time>2022-09-08T14:24:41Z</time>
      </trkpt>
      <trkpt lat="45.45867" lon="4.34321">
        <ele>468</ele>
        <time>2022-09-08T14:24:45Z</time>
      </trkpt>
      <trkpt lat="45.45885" lon="4.3432">
        <ele>468</ele>
        <time>2022-09-08T14:24:48Z</time>
      </trkpt>
      <trkpt lat="45.45911" lon="4.34313">
        <ele>468</ele>
        <time>2022-09-08T14:24:53Z</time>
      </trkpt>
      <trkpt lat="45.45931" lon="4.34303">
        <ele>469</ele>
        <time>2022-09-08T14:24:56Z</time>
      </trkpt>
      <trkpt lat="45.45964" lon="4.34275">
        <ele>471</ele>
        <time>2022-09-08T14:25:03Z</time>
      </trkpt>
      <trkpt lat="45.45983" lon="4.34263">
        <ele>471</ele>
        <time>2022-09-08T14:25:07Z</time>
      </trkpt>
      <trkpt lat="45.46004" lon="4.34254">
        <ele>472</ele>
        <time>2022-09-08T14:25:11Z</time>
      </trkpt>
      <trkpt lat="45.46028" lon="4.34247">
        <ele>473</ele>
        <time>2022-09-08T14:25:15Z</time>
      </trkpt>
      <trkpt lat="45.46077" lon="4.34245">
        <ele>476</ele>
        <time>2022-09-08T14:25:24Z</time>
      </trkpt>
      <trkpt lat="45.46231" lon="4.34214">
        <ele>485</ele>
        <time>2022-09-08T14:25:52Z</time>
      </trkpt>
      <trkpt lat="45.46292" lon="4.3417">
        <ele>483</ele>
        <time>2022-09-08T14:26:04Z</time>
      </trkpt>
      <trkpt lat="45.46298" lon="4.34171">
        <ele>484</ele>
        <time>2022-09-08T14:26:05Z</time>
      </trkpt>
      <trkpt lat="45.46304" lon="4.34177">
        <ele>485</ele>
        <time>2022-09-08T14:26:06Z</time>
      </trkpt>
      <trkpt lat="45.46305" lon="4.34194">
        <ele>487</ele>
        <time>2022-09-08T14:26:08Z</time>
      </trkpt>
      <trkpt lat="45.46301" lon="4.34228">
        <ele>491</ele>
        <time>2022-09-08T14:26:13Z</time>
      </trkpt>
      <trkpt lat="45.46306" lon="4.34244">
        <ele>493</ele>
        <time>2022-09-08T14:26:15Z</time>
      </trkpt>
      <trkpt lat="45.46334" lon="4.34297">
        <ele>496</ele>
        <time>2022-09-08T14:26:23Z</time>
      </trkpt>
      <trkpt lat="45.46339" lon="4.34312">
        <ele>497</ele>
        <time>2022-09-08T14:26:25Z</time>
      </trkpt>
      <trkpt lat="45.46342" lon="4.34343">
        <ele>497</ele>
        <time>2022-09-08T14:26:29Z</time>
      </trkpt>
      <trkpt lat="45.46341" lon="4.34399">
        <ele>495</ele>
        <time>2022-09-08T14:26:36Z</time>
      </trkpt>
      <trkpt lat="45.46344" lon="4.34417">
        <ele>494</ele>
        <time>2022-09-08T14:26:38Z</time>
      </trkpt>
      <trkpt lat="45.46351" lon="4.34436">
        <ele>493</ele>
        <time>2022-09-08T14:26:41Z</time>
      </trkpt>
      <trkpt lat="45.46361" lon="4.34447">
        <ele>492</ele>
        <time>2022-09-08T14:26:43Z</time>
      </trkpt>
      <trkpt lat="45.46391" lon="4.34465">
        <ele>490</ele>
        <time>2022-09-08T14:26:49Z</time>
      </trkpt>
      <trkpt lat="45.46398" lon="4.34474">
        <ele>490</ele>
        <time>2022-09-08T14:26:51Z</time>
      </trkpt>
      <trkpt lat="45.46401" lon="4.34492">
        <ele>489</ele>
        <time>2022-09-08T14:26:53Z</time>
      </trkpt>
      <trkpt lat="45.46388" lon="4.34566">
        <ele>486</ele>
        <time>2022-09-08T14:27:03Z</time>
      </trkpt>
      <trkpt lat="45.46388" lon="4.34585">
        <ele>485</ele>
        <time>2022-09-08T14:27:05Z</time>
      </trkpt>
      <trkpt lat="45.46396" lon="4.34604">
        <ele>484</ele>
        <time>2022-09-08T14:27:08Z</time>
      </trkpt>
      <trkpt lat="45.46417" lon="4.3464">
        <ele>482</ele>
        <time>2022-09-08T14:27:14Z</time>
      </trkpt>
      <trkpt lat="45.46453" lon="4.34677">
        <ele>480</ele>
        <time>2022-09-08T14:27:21Z</time>
      </trkpt>
      <trkpt lat="45.46465" lon="4.34692">
        <ele>480</ele>
        <time>2022-09-08T14:27:24Z</time>
      </trkpt>
      <trkpt lat="45.46482" lon="4.3472">
        <ele>481</ele>
        <time>2022-09-08T14:27:29Z</time>
      </trkpt>
      <trkpt lat="45.46509" lon="4.34747">
        <ele>481</ele>
        <time>2022-09-08T14:27:35Z</time>
      </trkpt>
      <trkpt lat="45.46521" lon="4.34768">
        <ele>482</ele>
        <time>2022-09-08T14:27:38Z</time>
      </trkpt>
      <trkpt lat="45.46556" lon="4.34867">
        <ele>482</ele>
        <time>2022-09-08T14:27:52Z</time>
      </trkpt>
      <trkpt lat="45.4665" lon="4.35065">
        <ele>473</ele>
        <time>2022-09-08T14:28:22Z</time>
      </trkpt>
      <trkpt lat="45.46659" lon="4.35099">
        <ele>475</ele>
        <time>2022-09-08T14:28:26Z</time>
      </trkpt>
      <trkpt lat="45.46666" lon="4.35167">
        <ele>481</ele>
        <time>2022-09-08T14:28:35Z</time>
      </trkpt>
      <trkpt lat="45.46673" lon="4.35187">
        <ele>482</ele>
        <time>2022-09-08T14:28:38Z</time>
      </trkpt>
      <trkpt lat="45.46688" lon="4.35207">
        <ele>482</ele>
        <time>2022-09-08T14:28:41Z</time>
      </trkpt>
      <trkpt lat="45.46746" lon="4.35225">
        <ele>480</ele>
        <time>2022-09-08T14:28:52Z</time>
      </trkpt>
      <trkpt lat="45.46766" lon="4.35235">
        <ele>480</ele>
        <time>2022-09-08T14:28:56Z</time>
      </trkpt>
      <trkpt lat="45.4681" lon="4.35263">
        <ele>478</ele>
        <time>2022-09-08T14:29:04Z</time>
      </trkpt>
      <trkpt lat="45.46824" lon="4.35284">
        <ele>477</ele>
        <time>2022-09-08T14:29:08Z</time>
      </trkpt>
      <trkpt lat="45.46836" lon="4.35338">
        <ele>475</ele>
        <time>2022-09-08T14:29:15Z</time>
      </trkpt>
      <trkpt lat="45.46845" lon="4.35353">
        <ele>474</ele>
        <time>2022-09-08T14:29:17Z</time>
      </trkpt>
      <trkpt lat="45.46851" lon="4.35359">
        <ele>473</ele>
        <time>2022-09-08T14:29:19Z</time>
      </trkpt>
      <trkpt lat="45.46896" lon="4.35365">
        <ele>471</ele>
        <time>2022-09-08T14:29:27Z</time>
        <extensions>
          <visugpx:TrkExtension xmlns:visugpx="https://www.visugpx.com/editgpx/">
            <visugpx:node>1</visugpx:node>
            </visugpx:TrkExtension>
        </extensions>
      </trkpt>
    </trkseg>
  </trk>
</gpx>